     2              OBSERVATION DATA    GPS                 RINEX VERSION / TYPE
                                                            PGM / RUN BY / DATE
                                                            COMMENT
sig: 9 8 7 6 5 4 1 0                                        COMMENT
sig: 9 8 7 6 5 4 1 0                                        COMMENT
sig: 9 8 7 6 5 4 1 0                                        COMMENT
Original Marker Name: W304                                  COMMENT
Campaign Name: jpl 1993-1997                                COMMENT
4-Character Station Name: W304                              COMMENT
6-Character Antenna Code: DMRCHT                            COMMENT
Vertical Measurement Point: BCR                             COMMENT
Vertical Offset to Rinex Ref. Point: 0.0349                 COMMENT
Radial Measurement Point: ECF                               COMMENT
Radial Offset to Rinex Ref. Point: 0.1896                   COMMENT
Antenna Height from Field Measurement: 1.2010 m             COMMENT
Additional Antenna Identification Info.:                    COMMENT
Turborogue and Ashtech Choke Ring                           COMMENT
Original XYZ: -2492919.6193 -4654950.0522 3565319.0986      COMMENT
New XYZ position is based on association with SCEC monument COMMENT
E1E9H0C5+0011. Position of that monument is believed to be  COMMENT
valid to within 1 m horizontally; vertical accuracy         COMMENT
should be no worse than 3-times this value.                 COMMENT
                                                            COMMENT
Revised Rinex header created by UCSD GPS archive for        COMMENT
GSAC on 14-Apr-1999 (1999:104) 01:30:36 GMT                 COMMENT
For assistance contact dagnew@ucsd.edu or hjohnson@ucsd.edu COMMENT
                                                            COMMENT
W304 1934                                                   MARKER NAME
W304                                                        MARKER NUMBER
GAL JET PROPULSION LABORATORY                               OBSERVER / AGENCY
T334 TURBOROGUE SNR-8000 95.03.08                           REC # / TYPE / VERS
405 DORNE-MARGOL. TYPE T                                    ANT # / TYPE
 -2566921.0000 -4607433.0000  3574535.0000                  APPROX POSITION XYZ
        1.1510        0.0000        0.0000                  ANTENNA: DELTA H/E/N
     1     1     0                                          WAVELENGTH FACT L1/2
     5    L1    L2    P1    P2    C1                        # / TYPES OF OBSERV
    30                                                      INTERVAL
  1997     3    27     0     0    0.000000                  TIME OF FIRST OBS
  1997     3    27    23    59   30.000000                  TIME OF LAST OBS
    25                                                      # OF SATELLITES
                                                            END OF HEADER
 97 03 27 00 00 00.0000000  0  7 04 05 06 09 10 24 30
   1371698.60848   1068861.85745         0.00041  22573044.45445  22573044.97048
 -20355599.45849 -15861497.47846         0.00041  20369650.97746  20369650.76849
  -1293483.25948  -1007907.65244         0.00041  23852668.93144  23852666.70748
  -1260627.95848   -982307.56345         0.00041  22822991.22945  22822990.44848
  -2064165.74148  -1608438.91645         0.00041  22710495.92145  22710495.01148
  -7640800.83548  -5953864.79246         0.00041  20510432.94146  20510432.23948
 -13945759.99948 -10866819.44346         0.00041  21776209.97546  21776209.83948
 97 03 27 00 00 30.0000000  0  7 04 05 06 09 10 24 30
   1460170.55448   1137801.02445         0.00041  22589881.03945  22589880.75248
 -20383797.58549 -15883470.04546         0.00041  20364284.94246  20364284.89649
  -1361087.18848  -1060585.96344         0.00041  23839803.66644  23839802.13848
  -1176828.37048   -917009.20445         0.00041  22838937.89745  22838936.77648
  -2147335.12948  -1673246.19245         0.00041  22694670.32845  22694668.56548
  -7608880.61649  -5928991.89146         0.00041  20516507.25446  20516506.58049
 -14024699.38148 -10928330.62746         0.00041  21761188.26046  21761187.89348
 97 03 27 00 01 00.0000000  0  7 04 05 06 09 10 24 30
   1548921.99548   1206957.98145         0.00041  22606769.53145  22606769.59548
 -20411451.95249 -15905018.89346         0.00041  20359022.75946  20359022.72749
  -1428569.66048  -1113169.65444         0.00041  23826962.09544  23826959.66548
  -1092746.02448   -851490.50845         0.00041  22854939.00745  22854937.59548
  -2230191.18948  -1737809.31745         0.00041  22678902.44545  22678901.25248
  -7576429.89348  -5903705.60646         0.00041  20522682.32546  20522681.69348
 -14103265.15548 -10989550.68146         0.00041  21746237.85446  21746237.32548
 97 03 27 00 01 30.0000000  0  7 04 05 06 09 10 24 30
   1637916.83748   1276304.60945         0.00041  22623704.47745  22623704.78248
 -20438597.30649 -15926171.10946         0.00041  20353857.26346  20353856.84349
  -1495926.77148  -1165655.63244         0.00041  23814142.47544  23814142.21348
  -1008409.26848   -785773.57245         0.00041  22870987.37545  22870985.96648
  -2312755.49148  -1802145.12545         0.00041  22663190.84145  22663189.68348
  -7543479.04548  -5878029.61346         0.00041  20528952.66646  20528951.88348
 -14181480.74448 -11050497.86346         0.00041  21731353.62046  21731353.29648
 97 03 27 00 02 00.0000000  0  7 04 05 06 09 10 24 30
   1727082.64148   1345784.45745         0.00041  22640672.57845  22640672.95048
 -20465326.73449 -15946999.22246         0.00041  20348770.79146  20348770.48249
  -1563229.07648  -1218098.93244         0.00041  23801336.12744  23801334.96348
   -923893.29648   -719917.01145         0.00041  22887069.79345  22887068.62148
  -2395100.00448  -1866309.66145         0.00041  22647521.75545  22647520.11348
  -7510137.20549  -5852048.95446         0.00041  20535297.35546  20535296.72849
 -14259439.34748 -11111244.80846         0.00041  21716518.35446  21716518.49648
 97 03 27 00 02 30.0000000  0  7 04 05 06 09 10 24 30
   1816474.63048   1415440.54045         0.00041  22657683.18545  22657683.07848
 -20491602.59349 -15967473.91146         0.00041  20343770.45346  20343770.27449
  -1630434.93448  -1270467.09344         0.00041  23788547.63444  23788546.60848
   -839140.83848   -653876.14045         0.00041  22903198.24945  22903196.91848
  -2477156.72248  -1930249.91645         0.00041  22631908.00245  22631905.16148
  -7476367.70448  -5825735.05746         0.00041  20541723.68546  20541723.10948
 -14337090.22048 -11171751.95146         0.00041  21701741.72646  21701742.20148
 97 03 27 00 03 00.0000000  0  7 04 05 06 09 10 24 30
   1906030.97748   1485224.70345         0.00041  22674725.24145  22674725.20448
 -20517452.61749 -15987616.77546         0.00041  20338851.42346  20338851.39649
  -1697599.56548  -1322803.08944         0.00041  23775765.70444  23775765.17748
   -754194.92748   -587684.54045         0.00041  22919362.91345  22919361.52348
  -2558959.51548  -1993992.32045         0.00041  22616340.48345  22616338.75048
  -7442214.41949  -5799122.10146         0.00041  20548222.89646  20548222.25049
 -14414474.03748 -11232051.01146         0.00041  21687016.03046  21687016.05548
 97 03 27 00 03 30.0000000  0  7 04 05 06 09 10 24 30
   1995696.99148   1555094.30645         0.00041  22691787.56845  22691787.87948
 -20542926.80749 -16007466.78946         0.00041  20334003.79246  20334003.63449
  -1764799.59948  -1375166.71344         0.00041  23762980.00844  23762977.23448
   -669120.93448   -521393.13845         0.00041  22935551.64045  22935550.10248
  -2640571.27448  -2057585.88145         0.00041  22600811.19845  22600808.85348
  -7407742.02548  -5772260.48746         0.00041  20554782.63746  20554781.99948
 -14491665.01448 -11292199.79846         0.00041  21672326.87146  21672327.02548
 97 03 27 00 04 00.0000000  0  7 04 05 06 09 10 24 30
   2085501.19848   1625071.59845         0.00041  22708877.47045  22708877.54648
 -20568009.16349 -16027011.47946         0.00041  20329230.80946  20329230.50149
  -1832048.17348  -1427568.15144         0.00041  23750181.22544  23750180.21548
   -583925.53148   -455007.13845         0.00041  22951764.01445  22951762.47548
  -2721976.59048  -2121018.55945         0.00041  22585318.50045  22585317.34948
  -7372935.25648  -5745138.32046         0.00041  20561406.11446  20561405.49548
 -14568656.87848 -11352193.43146         0.00041  21657676.51646  21657676.63248
 97 03 27 00 04 30.0000000  0  7 04 05 06 09 10 24 30
   2175480.12748   1695185.04645         0.00041  22726000.02745  22725999.77648
 -20592644.51649 -16046207.85746         0.00041  20324542.86246  20324542.81049
  -1899311.49848  -1479981.06844         0.00041  23737381.01444  23737380.56548
   -498583.76048   -388507.07645         0.00041  22968004.54945  22968002.99948
  -2803136.18648  -2184259.76445         0.00041  22569874.57845  22569873.02648
  -7337736.52048  -5717710.72846         0.00041  20568104.18346  20568103.54948
 -14645393.44248 -11411988.13346         0.00041  21643073.66846  21643074.04348
 97 03 27 00 05 00.0000000  0  7 04 05 06 09 10 24 30
   2265719.43848   1765501.38545         0.00041  22743171.15145  22743171.44148
 -20616735.50949 -16064980.05346         0.00041  20319958.39246  20319958.25349
  -1966478.26748  -1532318.75344         0.00041  23724599.21744  23724598.10148
   -413005.13448   -321822.44845         0.00041  22984289.42445  22984287.95048
  -2883963.95048  -2247242.39345         0.00041  22554493.46545  22554491.99948
  -7302047.83748  -5689901.35846         0.00041  20574895.45746  20574894.89148
 -14721786.04148 -11471514.80946         0.00041  21628536.52046  21628536.82448
 97 03 27 00 05 30.0000000  0  7 04 05 06 09 10 24 30
   2356219.23048   1836020.70244         0.00041  22760385.68144  22760386.18548
 -20640308.16049 -16083348.34146         0.00041  20315472.55946  20315472.48749
  -2033542.83548  -1584576.79244         0.00041  23711839.38144  23711836.81548
   -327204.14048   -254964.55345         0.00041  23000616.83745  23000615.27948
  -2964450.62248  -2309959.23745         0.00041  22539177.46945  22539176.18548
  -7265877.09548  -5661716.35046         0.00041  20581778.71046  20581778.06648
 -14797839.26248 -11530777.03346         0.00041  21614064.03746  21614064.35848
 97 03 27 00 06 00.0000000  0  7 04 05 06 09 10 24 30
   2447538.28548         0.00041         0.00041         0.00041  22777655.62648
 -20663410.76149 -16101350.36146         0.00041  20311076.30246  20311076.13549
  -2100544.03348  -1636785.47344         0.00041  23699088.96844  23699087.00148
   -241218.13448   -187962.50045         0.00041  23016978.26145  23016977.77348
  -3044633.60548  -2372439.46845         0.00041  22523918.73045  22523917.72748
  -7229265.10648  -5633187.51846         0.00041  20588745.63546  20588745.08448
 -14873572.54548 -11589789.96946         0.00041  21599652.74046  21599652.86648
 97 03 27 00 06 30.0000000  0  7 04 05 06 09 10 24 30
   2539117.71448         0.00041         0.00041         0.00041  22794939.54948
 -20686099.77149 -16119030.10346         0.00041  20306758.69046  20306758.81249
  -2167530.21148  -1688982.44744         0.00041  23686341.07244  23686339.47848
   -155092.25948   -120851.44845         0.00041  23033368.26745  23033367.31148
  -3124560.61348  -2434720.20945         0.00041  22508708.96445  22508707.86648
  -7192274.50948  -5604363.66246         0.00041  20595784.90046  20595784.27548
 -14949028.93848 -11648587.13946         0.00041  21585293.31446  21585293.75348
 97 03 27 00 07 00.0000000  0  6 05 06 09 10 24 30
 -20708350.14849 -16136368.05846         0.00041  20302524.84746  20302524.74149
  -2234471.78748  -1741144.66444         0.00041  23673601.38944  23673601.10648
    -68784.65548    -53598.78945         0.00041  23049792.08945  23049790.84548
  -3204185.61048  -2496765.61345         0.00041  22493557.06645  22493555.54948
  -7154875.78549  -5575221.78846         0.00041  20602901.39646  20602900.81049
 -15024178.36048 -11707145.11046         0.00041  21570992.79646  21570993.00448
 97 03 27 00 07 30.0000000  0  6 05 06 09 10 24 30
 -20730159.68849 -16153362.50147         0.00041  20298374.46147  20298374.39449
  -2301380.66548  -1793281.42044         0.00041  23660869.90744  23660869.08148
     17698.23048     13790.44945         0.00041  23066249.17345  23066248.47548
  -3283495.56748  -2558565.54845         0.00041  22478464.99845  22478463.35448
  -7117061.44049  -5545756.06446         0.00041  20610097.20446  20610096.65449
 -15099010.21148 -11765455.62946         0.00041  21556753.04846  21556753.55648
 97 03 27 00 08 00.0000000  0  7 04 05 06 09 10 24 30
        -0.70458        -1.07855         0.00051  22846953.09755  22846953.02858
 -20751552.36849 -16170032.11847         0.00041  20294303.61547  20294303.48549
  -2368305.84648  -1845430.88744         0.00041  23648135.03244  23648134.20648
    104316.52948     81285.20645         0.00041  23082732.71545  23082731.92848
  -3362549.01748  -2620165.59745         0.00041  22463422.27545  22463419.85548
  -7078873.99549  -5515999.60746         0.00041  20617364.29346  20617363.55849
 -15173564.40948 -11823549.79646         0.00041  21542565.74946  21542566.30048
 97 03 27 00 08 30.0000000  0  7 04 05 06 09 10 24 30
     91371.20048     71197.79545         0.00041  22864340.55545  22864340.30448
 -20772470.70649 -16186332.11246         0.00041  20290322.92446  20290322.97649
  -2435204.33748  -1897559.52744         0.00041  23635403.62444  23635403.59348
    191110.73448    148917.02445         0.00041  23099248.89545  23099247.72248
  -3441294.99348  -2681526.04345         0.00041  22448437.22145  22448434.98948
  -7040280.80649  -5485926.99146         0.00041  20624708.18246  20624707.41149
 -15247802.11348 -11881397.33846         0.00041  21528438.65446  21528438.89248
 97 03 27 00 09 00.0000000  0  7 04 05 06 09 10 24 30
    182882.82548    142505.54145         0.00041  22881754.85345  22881754.38048
 -20792904.37649 -16202254.44546         0.00041  20286434.50146  20286434.56549
  -2502060.36948  -1949655.10244         0.00041  23622683.11644  23622681.18448
    278087.17948    216690.86445         0.00041  23115798.89045  23115798.91848
  -3519731.28948  -2742645.19345         0.00041  22433510.96045  22433509.24548
  -7001272.89749  -5455531.21046         0.00041  20632131.29746  20632130.35949
 -15321719.08548 -11938994.95846         0.00041  21514372.71446  21514372.93248
 97 03 27 00 09 30.0000000  0  7 04 05 06 09 10 24 30
    274547.12148    213932.25445         0.00041  22899197.43245  22899197.83548
 -20812850.16149 -16217796.60646         0.00041  20282639.02146  20282638.75349
  -2568858.38848  -2001705.46044         0.00041  23609971.26744  23609970.23948
    365254.41348    284613.36245         0.00041  23132387.43845  23132386.13648
  -3597855.84848  -2803521.41845         0.00041  22418644.34945  22418642.52848
  -6961854.48349  -5424815.55846         0.00041  20639632.44946  20639631.48649
 -15395303.30248 -11996333.28246         0.00041  21500370.58246  21500370.14848
 97 03 27 00 10 00.0000000  0  7 04 05 06 09 10 24 30
    366407.57648    285511.83145         0.00041  22916677.78845  22916678.25048
 -20832278.80249 -16232935.78846         0.00041  20278941.80246  20278941.75149
  -2635562.33348  -2053682.52444         0.00041  23597277.60644  23597276.63248
    452648.50448    352712.62745         0.00041  23149017.57845  23149016.74048
  -3675634.92148  -2864128.43045         0.00041  22403843.01645  22403842.19448
  -6922006.21448  -5393764.95046         0.00041  20647215.06246  20647214.39648
 -15468527.03748 -12053390.71046         0.00041  21486436.30346  21486436.42348
 97 03 27 00 10 30.0000000  0  7 04 05 06 09 10 24 30
    458449.96248    357233.16045         0.00041  22934193.57645  22934193.15448
 -20851208.16149 -16247685.93046         0.00041  20275339.74446  20275339.76349
  -2702177.75048  -2105590.60544         0.00041  23584600.96344  23584599.72048
    540242.58048    420967.75545         0.00041  23165685.74545  23165684.84948
  -3753079.26248  -2924474.62445         0.00041  22389106.42545  22389104.68848
  -6881734.89048  -5362384.69246         0.00041  20654878.46546  20654877.53848
 -15541405.18848 -12110178.86146         0.00041  21472568.07346  21472568.51248
 97 03 27 00 11 00.0000000  0  7 04 05 06 09 10 24 30
    550668.93948    429092.09145         0.00041  22951742.08045  22951742.48448
 -20869651.39849 -16262057.28246         0.00041  20271829.86546  20271829.81249
  -2768711.09448  -2157434.73744         0.00041  23571940.66044  23571939.08248
    628018.83948    489364.81045         0.00041  23182390.08945  23182388.85048
  -3830204.88148  -2984572.45445         0.00041  22374429.77545  22374427.98448
  -6841045.07648  -5330678.33746         0.00041  20662621.55046  20662620.84548
 -15613944.49948 -12166702.98746         0.00041  21458764.09046  21458764.56048
 97 03 27 00 11 30.0000000  0  7 04 05 06 09 10 24 30
    643063.76948    501088.06445         0.00041  22969324.21945  22969324.06848
 -20887604.55949 -16276046.75646         0.00041  20268413.80646  20268413.58049
  -2835176.27948  -2209225.75144         0.00041  23559293.02144  23559290.84148
    715950.19048    557882.73745         0.00041  23199122.46845  23199121.28348
  -3907016.72648  -3044425.80145         0.00041  22359812.17045  22359811.08948
  -6799957.62349  -5298662.13346         0.00041  20670440.19646  20670439.47149
 -15686152.51748 -12222968.94846         0.00041  21445023.35546  21445023.76448
 97 03 27 00 12 00.0000000  0  7 04 05 06 09 10 24 30
    735623.43748    573212.46945         0.00041  22986937.05345  22986937.70748
 -20905047.06849 -16289638.31946         0.00041  20265094.21446  20265094.28049
  -2901575.84348  -2260965.59945         0.00041  23546655.42445  23546655.61748
    804013.68048    626503.62045         0.00041  23215880.72445  23215879.07348
  -3983513.30548  -3104033.48745         0.00041  22345256.30545  22345254.57948
  -6758472.12949  -5266335.76646         0.00041  20678334.66146  20678334.05049
 -15758035.18148 -12278981.38846         0.00041  21431344.36646  21431344.83548
 97 03 27 00 12 30.0000000  0  7 04 05 06 09 10 24 30
    828295.71648    645424.63045         0.00041  23004571.96745  23004572.39848
 -20922013.38549 -16302858.82446         0.00041  20261865.79446  20261865.92749
  -2967951.68348  -2312686.99544         0.00041  23534024.18044  23534024.41048
    892151.39648    695182.36145         0.00041  23232652.23045  23232651.05048
  -4059729.27648  -3163422.51545         0.00041  22330752.48545  22330750.90648
  -6716634.14048  -5233734.72546         0.00041  20686295.82846  20686295.20648
 -15829626.21148 -12334766.58046         0.00041  21417721.67246  21417721.60648
 97 03 27 00 13 00.0000000  0  7 04 05 06 09 10 24 30
    921076.56248    717721.38945         0.00041  23022227.96445  23022227.72648
 -20938505.36549 -16315709.71246         0.00041  20258727.39346  20258727.39249
  -3034322.62648  -2364404.56845         0.00041  23521396.04145  23521394.63748
    980359.69348    763916.06645         0.00041  23249437.71445  23249436.59648
  -4135648.96648  -3222580.68445         0.00041  22316303.94145  22316303.31548
  -6674460.23548  -5200871.93246         0.00041  20694321.28846  20694320.63048
 -15900923.57148 -12390322.93246         0.00041  21404154.00746  21404154.38148
 97 03 27 00 13 30.0000000  0  7 04 05 06 09 10 24 30
   1013966.73148    790103.32045         0.00041  23039904.98445  23039904.61548
 -20954524.21149 -16328191.92546         0.00041  20255679.18446  20255679.05549
  -3100690.50948  -2416119.74744         0.00041  23508765.24744  23508764.94648
   1068644.23948    832709.18745         0.00041  23266238.08945  23266237.01348
  -4211252.57248  -3281492.54245         0.00041  22301917.89845  22301916.80948
  -6631936.36648  -5167736.43946         0.00041  20702413.49946  20702412.76748
 -15971926.04748 -12445649.52046         0.00041  21390642.48246  21390642.89048
 97 03 27 00 14 00.0000000  0  7 04 05 06 09 10 24 30
   1107022.04748    862613.94745         0.00041  23057611.22445  23057612.62648
 -20970034.68749 -16340278.00646         0.00041  20252727.65546  20252727.69749
  -3167004.62148  -2467793.02444         0.00041  23496147.77644  23496146.31948
   1157066.25148    901609.45045         0.00041  23283064.46245  23283063.36548
  -4286488.30048  -3340117.74546         0.00041  22287601.93146  22287600.16748
  -6588993.69048  -5134274.60546         0.00041  20710585.22746  20710584.55548
 -16042571.57348 -12500697.96946         0.00041  21377199.11346  21377199.17748
 97 03 27 00 14 30.0000000  0  7 04 05 06 09 10 24 30
   1200257.05448    935264.60645         0.00041  23075354.35245  23075353.87648
 -20985030.03149 -16351962.68646         0.00041  20249874.18846  20249874.15849
  -3233260.04248  -2519420.54745         0.00041  23483538.36745  23483538.42148
   1245656.35248    970640.67245         0.00041  23299921.45045  23299920.83448
  -4361337.76848  -3398441.96546         0.00041  22273358.51446  22273357.05548
  -6545616.50349  -5100474.18946         0.00041  20718839.51046  20718838.98149
 -16112824.22748 -12555440.28146         0.00041  21363830.36146  21363830.63548
 97 03 27 00 15 00.0000000  0  7 04 05 06 09 10 24 30
   1293661.83048   1008047.54144         0.00041  23093128.25644  23093128.18848
 -20999511.92749 -16363247.27346         0.00041  20247118.48646  20247118.17849
  -3299454.08348  -2571000.27244         0.00041  23470943.29044  23470942.37748
   1334434.26748   1039818.25145         0.00041  23316815.06945  23316815.12848
  -4435807.04148  -3456469.93745         0.00041  22259187.69545  22259185.88848
  -6501797.57748  -5066329.56146         0.00041  20727178.13346  20727177.46948
 -16182674.10848 -12609868.73746         0.00041  21350538.08646  21350538.82848
 97 03 27 00 15 30.0000000  0  7 04 05 06 09 10 24 30
   1387149.77948   1080895.28745         0.00041  23110918.97345  23110918.56648
 -21013564.54749 -16374197.36246         0.00041  20244444.35846  20244444.11949
  -3365644.00448  -2622576.83144         0.00041  23458347.26644  23458345.83448
   1423330.49348   1109088.01045         0.00041  23333732.99845  23333731.63148
  -4509986.13248  -3514271.79646         0.00041  22245070.48746  22245069.86548
  -6457614.72748  -5031901.35746         0.00041  20735585.59546  20735584.97548
 -16252194.22348 -12664040.23846         0.00041  21337309.39846  21337309.58848
 97 03 27 00 16 00.0000000  0  7 04 05 06 09 10 24 30
   1480770.18848   1153846.25145         0.00041  23128735.70145  23128734.18148
 -21027115.45949 -16384756.50946         0.00041  20241865.75546  20241865.45549
  -3431766.60948  -2674100.88544         0.00041  23445763.02144  23445762.92948
   1512405.64648   1178497.20945         0.00041  23350683.32945  23350681.74348
  -4583812.87848  -3571799.09946         0.00041  22231022.40446  22231020.86248
  -6413030.28449  -4997160.22546         0.00041  20744069.94446  20744069.30849
 -16321311.48948 -12717897.83446         0.00041  21324156.53646  21324156.90748
 97 03 27 00 16 30.0000000  0  7 04 05 06 09 10 24 30
   1574556.77448   1226926.68644         0.00041  23146580.91644  23146580.76948
 -21040108.20849 -16394880.72446         0.00041  20239393.25546  20239393.17049
  -3497773.50748  -2725534.77544         0.00041  23433204.44644  23433202.26848
   1601708.63048   1248083.91945         0.00041  23367677.07745  23367675.05748
  -4657232.10548  -3629008.85045         0.00041  22217051.00545  22217049.60048
  -6368014.10849  -4962082.68146         0.00041  20752636.09846  20752635.54749
 -16389979.40948 -12771405.28546         0.00041  21311089.58346  21311089.91048
 97 03 27 00 17 00.0000000  0  7 04 05 06 09 10 24 30
   1668467.15548   1300103.59545         0.00041  23164451.22145  23164451.68048
 -21052596.74349 -16404612.05046         0.00041  20237016.56846  20237016.59549
  -3563691.08148  -2776899.05844         0.00041  23420659.59244  23420658.30048
   1691182.39348   1317803.72745         0.00041  23384703.03845  23384701.70348
  -4730290.13548  -3685937.15345         0.00041  22203147.66745  22203146.68348
  -6322620.38749  -4926710.94746         0.00041  20761274.28846  20761273.78949
 -16458272.84448 -12824620.92846         0.00041  21298093.59146  21298093.71348
 97 03 27 00 17 30.0000000  0  7 04 05 06 09 10 24 30
   1762489.86348   1373368.03445         0.00041  23182344.76145  23182343.59748
 -21064595.40749 -16413961.65246         0.00041  20234733.43246  20234733.30749
  -3629543.70948  -2828212.73444         0.00041  23408130.20944  23408127.11148
   1780786.04048   1387624.72545         0.00041  23401754.75645  23401753.31048
  -4803003.38948  -3742596.78946         0.00041  22189311.45946  22189310.15648
  -6276888.46348  -4891075.67746         0.00041  20769976.68346  20769976.17748
 -16526230.22348 -12877574.71246         0.00041  21285161.64146  21285162.05148
 97 03 27 00 18 00.0000000  0  7 04 05 06 09 10 24 30
   1856575.03848   1446681.14645         0.00041  23200247.77145  23200247.12048
 -21076155.70449 -16422969.67446         0.00041  20232533.74246  20232533.52449
  -3695405.26848  -2879533.40344         0.00041  23395594.73144  23395594.12548
   1870439.31748   1457484.39345         0.00041  23418815.61945  23418813.75948
  -4875425.67948  -3799029.70945         0.00041  22175529.31445  22175528.58148
  -6230883.08149  -4855227.32746         0.00041  20778731.50846  20778730.92349
 -16593910.40448 -12930312.50146         0.00041  21272282.61346  21272283.17648
 97 03 27 00 18 30.0000000  0  7 04 05 06 09 10 24 30
   1950693.33348   1520020.07645         0.00041  23218157.79045  23218157.30448
 -21087322.95249 -16431671.42646         0.00041  20230408.48146  20230408.66349
  -3761307.25848  -2930885.55144         0.00041  23383053.66744  23383053.71848
   1960082.56348   1527336.24544         0.00041  23435872.92744  23435871.45648
  -4947591.47648  -3855262.76245         0.00041  22161796.84245  22161795.86248
  -6184633.52148  -4819188.70146         0.00041  20787532.42646  20787531.96848
 -16661359.62748 -12982870.31846         0.00041  21259447.45646  21259447.75548
 97 03 27 00 19 00.0000000  0  7 04 05 06 09 10 24 30
   2044906.82848   1593433.15145         0.00041  23236086.10745  23236085.88148
 -21098037.83449 -16440020.68146         0.00041  20228369.46946  20228369.33149
  -3827202.32648  -2982232.30644         0.00041  23370515.03344  23370514.07948
   2049756.53648   1597212.05344         0.00041  23452938.33944  23452936.52948
  -5019439.20248  -3911247.97246         0.00041  22148124.79646  22148124.27048
  -6138082.42948  -4782915.11346         0.00041  20796390.91846  20796390.13448
 -16728526.20548 -13035207.88746         0.00041  21246665.84146  21246665.99848
 97 03 27 00 19 30.0000000  0  7 04 05 06 09 10 24 30
   2139296.88248   1666983.82645         0.00041  23254048.19445  23254048.00748
 -21108207.98649 -16447945.46646         0.00041  20226434.06746  20226433.95449
  -3893028.30448  -3033525.20744         0.00041  23357988.63444  23357988.38848
   2139536.89248   1667170.76245         0.00041  23470023.43845  23470021.62648
  -5090874.54848  -3966911.83346         0.00041  22134531.53046  22134530.55948
  -6091136.61048  -4746333.95346         0.00041  20805323.85846  20805323.40548
 -16795297.51948 -13087237.46646         0.00041  21233959.58746  21233960.12348
 97 03 27 00 20 00.0000000  0  7 04 05 06 09 10 24 30
   2233815.77248   1740634.90645         0.00041  23272034.69045  23272034.00148
 -21117884.93149 -16455485.93946         0.00041  20224592.84746  20224592.67549
  -3958821.05548  -3084792.20144         0.00041  23345469.65344  23345467.89648
   2229380.37348   1737178.65145         0.00041  23487118.41045  23487117.26748
  -5161932.23548  -4022281.42846         0.00041  22121010.06646  22121008.30948
  -6043818.34948  -4709462.57846         0.00041  20814328.47346  20814327.99648
 -16861700.86348 -13138980.32046         0.00041  21221323.87946  21221323.91248
 97 03 27 00 20 30.0000000  0  7 04 05 06 09 10 24 30
   2328500.57148   1814415.26344         0.00041  23290052.06944  23290051.66748
 -21127015.58249 -16462600.73146         0.00041  20222855.18946  20222855.14749
  -4024527.90248  -3135991.44845         0.00041  23332964.51845  23332964.60548
   2319105.95848         0.00041         0.00041         0.00041  23504237.42348
  -5232555.85148  -4077312.78746         0.00041  22107570.38846  22107568.77548
  -5996071.94248  -4672257.58146         0.00041  20823414.45246  20823413.98048
 -16927692.76448 -13190402.55746         0.00041  21208765.74046  21208766.28648
 97 03 27 00 21 00.0000000  0  6 04 05 06 10 24 30
   2423329.10748   1888307.62044         0.00041  23308097.45844  23308097.51948
 -21135607.53949 -16469295.76046         0.00041  20221220.06546  20221220.01549
  -4090162.80248  -3187135.57944         0.00041  23320476.36544  23320474.71948
  -5302757.75248  -4132015.53046         0.00041  22094210.95346  22094209.51148
  -5947914.84448  -4634732.56946         0.00041  20832578.07046  20832577.46348
 -16993281.27648 -13241510.47346         0.00041  21196284.80846  21196285.13848
 97 03 27 00 21 30.0000000  0  6 04 05 06 10 24 30
   2518242.29248   1962265.93644         0.00041  23326158.09944  23326158.14148
 -21143704.56949 -16475605.12646         0.00041  20219679.22346  20219679.09249
  -4155754.42948  -3238245.74744         0.00041  23307993.99444  23307992.58248
  -5372573.78148  -4186417.59446         0.00041  22080926.62446  22080924.41648
  -5899394.37148  -4596924.40346         0.00041  20841811.52046  20841810.64048
 -17058497.94448 -13292328.63746         0.00041  21183874.45446  21183874.89448
 97 03 27 00 22 00.0000000  0  7 04 05 06 09 10 24 30
   2613217.81848   2036272.81444         0.00041  23344230.67744  23344231.16848
 -21151317.72849 -16481537.45146         0.00041  20218230.48646  20218230.43649
  -4221304.67248  -3289323.79245         0.00041  23295520.35445  23295518.98348
        -0.73058         0.29954         0.00051  23555728.14054  23555726.49058
  -5442018.97948  -4240530.69946         0.00041  22067710.98946  22067709.70948
  -5850542.48348  -4558857.99846         0.00041  20851107.39746  20851106.77048
 -17123365.75648 -13342874.96846         0.00041  21171530.25446  21171530.61248
 97 03 27 00 22 30.0000000  0  7 04 05 06 09 10 24 30
   2708308.40948   2110369.36944         0.00041  23362328.47944  23362327.13148
 -21158379.96949 -16487040.49246         0.00041  20216886.60046  20216886.90149
  -4286758.62548  -3340326.80045         0.00041  23283064.57745  23283063.06948
     90427.95748     70464.21044         0.00041  23572936.66944  23572935.67548
  -5511030.26448  -4294305.68746         0.00041  22054578.39246  22054577.25348
  -5801321.71448  -4520504.14546         0.00041  20860473.96046  20860473.44248
 -17187821.24848 -13393100.00646         0.00041  21159264.89046  21159265.23048
 97 03 27 00 23 00.0000000  0  7 04 05 06 09 10 24 30
   2803420.08748   2184482.36444         0.00041  23380426.50844  23380426.39948
 -21164993.73249 -16492194.06646         0.00041  20215628.22846  20215628.20549
  -4352212.37748  -3391329.67544         0.00041  23270609.60944  23270607.72348
    180902.22348    140963.62344         0.00041  23590152.21844  23590151.66148
  -5579708.78248  -4347821.37946         0.00041  22041508.64246  22041507.91448
  -5751824.24848  -4481934.68146         0.00041  20869892.90046  20869892.27148
 -17251943.91848 -13443065.70146         0.00041  21147062.86246  21147063.12048
 97 03 27 00 23 30.0000000  0  7 04 05 06 09 10 24 30
   2898467.57348   2258545.30644         0.00041  23398514.10044  23398513.42948
 -21171247.92649 -16497067.45646         0.00041  20214438.04746  20214437.84449
  -4417766.94048  -3442411.09044         0.00041  23258134.31244  23258132.73948
    271316.49948    211416.29544         0.00041  23607358.30644  23607357.01748
  -5648147.68948  -4401150.36746         0.00041  22028485.99946  22028484.44248
  -5702147.21848  -4443225.30246         0.00041  20879346.09946  20879345.52548
 -17315816.59748 -13492836.60446         0.00041  21134908.22346  21134908.64348
 97 03 27 00 24 00.0000000  0  6 04 05 06 10 24 30
   2993627.67148   2332696.04744         0.00041  23416621.07744  23416621.43248
 -21176988.92549 -16501540.95646         0.00041  20213345.68346  20213345.54949
  -4483281.34948  -3493461.25644         0.00041  23245668.17244  23245665.73248
  -5716198.33248  -4454176.80146         0.00041  22015535.65446  22015535.30048
  -5652124.11448  -4404246.26046         0.00041  20888865.64446  20888865.07948
 -17379280.25348 -13542288.79046         0.00041  21122831.63046  21122831.88248
 97 03 27 00 24 30.0000000  0  7 04 05 06 09 10 24 30
   3088989.86048   2407004.21844         0.00041  23434769.80644  23434768.07248
 -21182129.37749 -16505546.50346         0.00041  20212367.27946  20212367.18649
  -4548675.75748  -3544417.87545         0.00041  23233222.31545  23233221.60648
        -0.19158         0.06854         0.00051  23641835.87954  23641834.54458
  -5783767.34848  -4506827.93846         0.00041  22002677.77846  22002677.06448
  -5601654.50048  -4364919.27946         0.00041  20898469.46746  20898468.87148
 -17442240.99048 -13591349.08646         0.00041  21110850.66446  21110850.64348
 97 03 27 00 25 00.0000000  0  7 04 05 06 09 10 24 30
   3184457.72348   2481394.75944         0.00041  23452935.24444  23452935.66648
 -21186761.04149 -16509155.58446         0.00041  20211485.85046  20211485.88349
  -4614051.48848  -3595359.96145         0.00041  23220781.54145  23220781.23548
     90740.49448     70707.08744         0.00041  23659103.63544  23659102.39448
  -5850958.18748  -4559184.39746         0.00041  21989892.48046  21989890.63548
  -5550837.75749  -4325321.81146         0.00041  20908139.44246  20908138.86549
 -17504801.35048 -13640097.39646         0.00041  21098945.66846  21098945.84448
 97 03 27 00 25 30.0000000  0  7 04 05 06 09 10 24 30
   3279943.86048   2555799.52844         0.00041  23471106.66344  23471106.04948
 -21190953.25549 -16512422.23046         0.00041  20210688.12646  20210688.20749
  -4679484.45848  -3646346.66144         0.00041  23208330.60444  23208329.90548
    181463.24148    141400.14644         0.00041  23676366.44144  23676366.18748
  -5917836.59648  -4611297.40546         0.00041  21977165.92046  21977163.80548
  -5499761.26648  -4285521.93246         0.00041  20917858.83046  20917858.32148
 -17567042.02248 -13688596.60146         0.00041  21087101.42446  21087101.86848
 97 03 27 00 26 00.0000000  0  7 04 05 06 09 10 24 30
   3375523.30248   2630277.01644         0.00041  23489294.30844  23489294.48748
 -21194605.35649 -16515268.02446         0.00041  20209993.12046  20209993.22749
  -4744870.22748  -3697296.60645         0.00041  23195888.10845  23195887.75048
    272254.83748    212146.82144         0.00041  23693646.00544  23693642.82348
  -5984298.11648  -4663085.56846         0.00041  21964518.44646  21964516.97848
  -5448323.78349  -4245440.77246         0.00041  20927647.13546  20927646.58949
 -17628865.97248 -13736771.09946         0.00041  21075336.91146  21075337.11648
 97 03 27 00 26 30.0000000  0  7 04 05 06 09 10 24 30
   3471381.74648   2704971.88544         0.00041  23507535.24944  23507535.61048
 -21197505.93249 -16517528.20546         0.00041  20209441.37146  20209441.28349
  -4809984.12248  -3748034.65545         0.00041  23183496.72845  23183496.95148
    363327.48548    283112.47844         0.00041  23710973.51944  23710973.02448
  -6050129.01648  -4714382.32646         0.00041  21951991.29646  21951990.09148
  -5396329.72648  -4204925.91846         0.00041  20937541.40646  20937540.94948
 -17690069.10648 -13784461.83146         0.00041  21063690.23646  21063690.50848
 97 03 27 00 27 00.0000000  0  7 04 05 06 09 10 24 30
   3567320.41148   2779729.28944         0.00041  23525792.43844  23525792.00848
 -21199854.45349 -16519358.21846         0.00041  20208994.43146  20208994.21249
  -4875010.09748  -3798704.18045         0.00041  23171122.69845  23171122.74848
    454487.65048    354146.36344         0.00041  23728323.36644  23728320.99948
  -6115518.07548  -4765334.81746         0.00041  21939547.59646  21939546.61548
  -5343974.84048  -4164129.90246         0.00041  20947504.44946  20947503.84448
 -17750840.60448 -13831816.22846         0.00041  21052125.63746  21052126.08848
 97 03 27 00 27 30.0000000  0  7 04 05 06 09 10 24 30
   3663311.44148   2854527.47744         0.00041  23544058.99344  23544058.26048
 -21201681.95749 -16520782.24746         0.00041  20208646.68746  20208646.45549
  -4939970.78248  -3849322.91345         0.00041  23158761.39245  23158760.89348
    545707.76048    425226.94844         0.00041  23745681.91244  23745679.59648
  -6180478.76948  -4815953.48746         0.00041  21927185.87846  21927184.71448
  -5291276.39449  -4123066.17246         0.00041  20957532.52346  20957531.55749
 -17811192.47148 -13878843.64846         0.00041  21040641.03846  21040641.68748
 97 03 27 00 28 00.0000000  0  7 04 05 06 09 10 24 30
   3759307.98848   2929329.97344         0.00041  23562325.68344  23562326.11548
 -21203061.09049 -16521856.88946         0.00041  20208384.08846  20208383.92449
  -5004922.75348  -3899934.76545         0.00041  23146400.80645  23146401.12148
    636930.99348    496309.93344         0.00041  23763039.85644  23763038.66848
  -6245074.53448  -4866287.81246         0.00041  21914893.94646  21914893.05848
  -5238303.94248  -4081788.93146         0.00041  20967612.45346  20967612.00148
 -17871183.32848 -13925589.76246         0.00041  21029225.41246  21029225.85748
 97 03 27 00 28 30.0000000  0  7 04 05 06 09 10 24 30
   3855321.72548   3004145.83644         0.00041  23580595.56244  23580596.84648
 -21204005.90349 -16522593.11647         0.00041  20208204.19047  20208204.33549
  -5069874.00548  -3950546.08245         0.00041  23134041.95245  23134041.30148
    728173.31648    567407.81944         0.00041  23780403.30144  23780401.57148
  -6309307.83248  -4916339.68746         0.00041  21902670.87746  21902669.68648
  -5185066.69549  -4040305.35746         0.00041  20977743.43346  20977742.99949
 -17930811.44949 -13972053.22646         0.00041  21017878.70546  21017879.00349
 97 03 27 00 29 00.0000000  0  7 04 05 06 09 10 24 30
   3951392.98448   3079006.54244         0.00041  23598879.53044  23598878.72848
 -21204474.29049 -16522958.08546         0.00041  20208115.25346  20208115.18349
  -5134817.07348  -4001151.03545         0.00041  23121683.74145  23121683.09148
    819456.01348    638537.16444         0.00041  23797774.92044  23797772.36648
  -6373142.11948  -4966080.65246         0.00041  21890522.70346  21890522.10448
  -5131535.05748  -3998592.37346         0.00041  20987930.13946  20987929.72748
 -17990038.82348 -14018204.40146         0.00041  21006607.95546  21006607.94148
 97 03 27 00 29 30.0000000  0  7 04 05 06 09 10 24 30
   4047559.21748   3153941.25844         0.00041  23617178.54044  23617177.80348
 -21204424.18849 -16522919.04046         0.00041  20208124.63946  20208124.57749
  -5199733.45048  -4051735.18345         0.00041  23109329.93445  23109329.10048
    910808.30548    709720.76744         0.00041  23815157.49744  23815156.11948
  -6436557.44148  -5015495.14246         0.00041  21878455.44846  21878454.54148
  -5077694.15648  -3956638.41946         0.00041  20998175.69146  20998175.17448
 -18048845.72448 -14064027.94846         0.00041  20995416.78046  20995417.34048
 97 03 27 00 30 00.0000000  0  7 04 05 06 09 10 24 30
   4143821.69048   3228950.95444         0.00041  23635496.80044  23635496.21248
 -21203844.46149 -16522467.29746         0.00041  20208234.98246  20208234.81549
  -5264624.10748  -4102299.27045         0.00041  23096981.05645  23096980.60748
   1002238.80748    780965.33444         0.00041  23832556.95344  23832554.70148
  -6499559.26348  -5064587.43746         0.00041  21866466.99246  21866465.90048
  -5023546.80749  -3914445.67246         0.00041  21008479.37746  21008478.81549
 -18107241.88949 -14109531.45046         0.00041  20984304.89046  20984305.22949
 97 03 27 00 30 30.0000000  0  7 04 05 06 09 10 24 30
   4240147.17948   3304009.76344         0.00041  23653825.93544  23653826.24748
 -21202731.95449 -16521600.40346         0.00041  20208446.87946  20208446.63549
  -5329509.15948  -4152859.01245         0.00041  23084635.02745  23084633.94748
   1093708.92348    852240.69044         0.00041  23849963.10944  23849960.84048
  -6562158.09348  -5113365.70846         0.00041  21854554.75346  21854553.64748
  -4969115.57449  -3872031.71646         0.00041  21018837.28646  21018836.95949
 -18165243.78349 -14154727.71646         0.00041  20973267.56246  20973267.91249
 97 03 27 00 31 00.0000000  0  7 04 05 06 09 10 24 30
   4336518.09748   3379103.94344         0.00041  23672165.93644  23672165.32848
 -21201088.73449 -16520319.97146         0.00041  20208759.58546  20208759.34649
  -5394383.28048  -4203410.23245         0.00041  23072289.02545  23072288.65248
   1185184.06348    923520.00344         0.00041  23867370.09544  23867368.07348
  -6624362.90748  -5161836.95946         0.00041  21842717.29946  21842716.39448
  -4914407.45748  -3829402.01346         0.00041  21029248.00546  21029247.68648
 -18222871.35548 -14199632.30646         0.00041  20962301.27346  20962301.53048
 97 03 27 00 31 30.0000000  0  7 04 05 06 09 10 24 30
   4433001.06648   3454285.47544         0.00041  23690525.85144  23690525.20748
 -21198856.40049 -16518580.49146         0.00041  20209184.31646  20209184.38049
  -5459143.66848  -4253872.83045         0.00041  23059965.67545  23059964.78948
   1276741.31248    994863.26844         0.00041  23884790.44644  23884790.82248
  -6686090.70248  -5209936.50946         0.00041  21830970.69446  21830969.84248
  -4859343.95948  -3786495.38146         0.00041  21039726.07346  21039725.65948
 -18280042.81348 -14244181.47646         0.00041  20951421.60546  20951422.19948
 97 03 27 00 32 00.0000000  0  7 04 05 06 09 10 24 30
   4529568.27948   3529532.62444         0.00041  23708902.32744  23708901.94148
 -21196069.30249 -16516408.72246         0.00041  20209714.53646  20209714.23849
  -5523798.89248  -4304253.49845         0.00041  23047662.21045  23047661.75248
   1368346.69648   1066244.07344         0.00041  23902224.94044  23902223.15948
  -6747345.38348  -5257667.40546         0.00041  21819314.29046  21819313.38748
  -4803939.60049  -3743323.15546         0.00041  21050269.29246  21050268.78349
 -18336758.03649 -14288375.14146         0.00041  20940629.18946  20940629.64249
 97 03 27 00 32 30.0000000  0  7 04 05 06 09 10 24 30
   4626253.77748   3604871.93644         0.00041  23727300.22244  23727300.46848
 -21192714.02749 -16513794.21946         0.00041  20210353.25846  20210353.03749
  -5588325.46748  -4354533.91145         0.00041  23035382.64945  23035382.72448
   1460016.95148   1137675.44544         0.00041  23919668.12444  23919667.51748
  -6808096.08148  -5305005.58446         0.00041  21807753.61946  21807752.76548
  -4748164.33948  -3699861.90446         0.00041  21060882.98146  21060882.50948
 -18392980.13448 -14332184.55046         0.00041  20929930.57446  20929930.91548
 97 03 27 00 33 00.0000000  0  7 04 05 06 09 10 24 30
   4722906.51548   3680185.73844         0.00041  23745691.85644  23745692.88748
 -21188957.58249 -16510867.12046         0.00041  20211067.83046  20211067.94649
  -5652881.16048  -4404837.01745         0.00041  23023099.17645  23023098.27748
   1551612.50648   1209048.57844         0.00041  23937099.33344  23937096.79448
  -6868500.28348  -5352073.76746         0.00041  21796259.66246  21796258.67848
  -4692154.31348  -3656217.72446         0.00041  21071541.51546  21071540.95748
 -18448862.11448 -14375728.94346         0.00041  20919296.70546  20919297.13348
 97 03 27 00 33 30.0000000  0  7 04 05 06 09 10 24 30
   4819552.23748   3755494.11944         0.00041  23764086.02844  23764083.32148
 -21184774.01349 -16507607.19046         0.00041  20211864.23646  20211863.93549
  -5717460.63048  -4455158.65345         0.00041  23010809.88645  23010809.53148
   1643151.30748   1280377.47244         0.00041  23954516.56344  23954516.42548
  -6928530.01548  -5398850.14646         0.00041  21784836.43346  21784835.16448
  -4635898.25348  -3612381.82646         0.00041  21082246.35046  21082246.13048
 -18504372.53248 -14418983.80246         0.00041  20908733.12246  20908733.42548
 97 03 27 00 34 00.0000000  0  7 04 05 06 09 10 24 30
   4916299.40248   3830881.50444         0.00041  23782494.48344  23782493.91148
 -21180050.90749 -16503926.85046         0.00041  20212762.95046  20212762.82049
  -5781969.75548  -4505425.48345         0.00041  22998533.58645  22998534.14948
   1734727.00848   1351735.13244         0.00041  23971942.55344  23971942.89348
  -6988093.77148  -5445263.44646         0.00041  21773501.28146  21773500.05948
  -4579296.75548  -3568276.76046         0.00041  21093017.36046  21093016.89148
 -18559419.17248 -14461877.27646         0.00041  20898258.43346  20898258.61548
 97 03 27 00 34 30.0000000  0  7 04 05 06 09 10 24 30
   5013126.27948   3906331.00644         0.00041  23800921.34244  23800919.71948
 -21174781.57549 -16499820.87346         0.00041  20213765.46146  20213765.51149
  -5846423.31648  -4555649.01245         0.00041  22986268.92745  22986268.56348
   1826331.39448   1423115.14244         0.00041  23989377.04544  23989374.56648
  -7047201.12648  -5491321.09746         0.00041  21762253.91746  21762252.87648
  -4522360.59748  -3523910.92246         0.00041  21103852.02446  21103851.56548
 -18614023.32648 -14504425.95646         0.00041  20887867.37246  20887867.83748
 97 03 27 00 35 00.0000000  0  7 04 05 06 09 10 24 30
   5109966.41048   3981790.85644         0.00041  23819346.43644  23819347.90448
 -21169005.83849 -16495320.28646         0.00041  20214864.48646  20214864.56149
  -5910858.45248  -4605858.16045         0.00041  22974007.08445  22974006.61348
   1917907.81048   1494473.38944         0.00041  24006802.94444  24006800.43548
  -7105884.32848  -5537048.24846         0.00041  21751086.88946  21751085.75348
  -4465153.13148  -3479333.66946         0.00041  21114738.36546  21114737.95048
 -18668234.80248 -14546668.65246         0.00041  20877551.06946  20877551.59748
 97 03 27 00 35 30.0000000  0  7 04 05 06 09 10 24 30
   5206859.73148   4057292.10444         0.00041  23837785.88844  23837786.20048
 -21162672.29049 -16490385.05046         0.00041  20216069.73546  20216069.78549
  -5975231.80448  -4656019.19845         0.00041  22961757.32145  22961756.73748
   2009489.19748   1565835.44244         0.00041  24024230.04744  24024227.90648
  -7164091.71248  -5582404.62746         0.00041  21740010.31946  21740009.30248
  -4407658.70648  -3434532.81546         0.00041  21125679.07346  21125678.64948
 -18721998.55448 -14588562.47946         0.00041  20867320.29146  20867320.83748
 97 03 27 00 36 00.0000000  0  7 04 05 06 09 10 24 30
   5303865.89948   4132881.32644         0.00041  23856245.25444  23856245.80648
 -21155704.48849 -16484955.58546         0.00041  20217395.76746  20217395.53549
  -6039477.27048  -4706080.53945         0.00041  22949532.78845  22949531.36748
   2101155.38748   1637263.64844         0.00041  24041674.46744  24041671.66948
  -7221746.49448  -5627330.40246         0.00041  21729039.22646  21729037.75848
  -4349811.78248  -3389457.28846         0.00041  21136686.89846  21136686.53048
 -18775235.05248 -14630045.45446         0.00041  20857189.77246  20857190.35548
 97 03 27 00 36 30.0000000  0  7 04 05 06 09 10 24 30
   5400860.27648   4208461.34544         0.00041  23874704.20544  23874702.53648
 -21148212.65849 -16479117.78846         0.00041  20218821.43146  20218821.22049
  -6103719.12748  -4756139.09345         0.00041  22937307.65545  22937306.25948
   2192796.68948   1708672.39244         0.00041  24059110.74744  24059110.23348
  -7278944.87848  -5671900.55346         0.00041  21718154.12946  21718152.95348
  -4291733.97448  -3344201.84746         0.00041  21147739.22246  21147738.39248
 -18828050.73148 -14671200.51446         0.00041  20847139.40546  20847139.82948
 97 03 27 00 37 00.0000000  0  7 04 05 06 09 10 24 30
   5497819.05748   4284013.59844         0.00041  23893154.72344  23893152.36948
 -21140232.99949 -16472899.86646         0.00041  20220340.08546  20220340.02349
  -6167976.20448  -4806209.48845         0.00041  22925078.93845  22925078.33048
   2284390.43248   1780044.12744         0.00041  24076541.57244  24076540.02748
  -7335719.39748  -5716140.41546         0.00041  21707350.23446  21707349.29748
  -4233459.24448  -3298792.96946         0.00041  21158828.30946  21158827.64348
 -18880471.28049 -14712047.69146         0.00041  20837163.88946  20837164.28549
 97 03 27 00 37 30.0000000  0  7 04 05 06 09 10 24 30
   5594804.00048   4359586.27041         0.00041         0.00041  23911608.90648
 -21131709.58449 -16466258.23546         0.00041  20221961.75346  20221961.89549
  -6232186.39848  -4856243.37245         0.00041  22912861.22745  22912859.71548
   2376010.50548   1851436.38844         0.00041  24093980.46544  24093973.85748
  -7392018.17848  -5760009.57246         0.00041  21696636.85846  21696636.23348
  -4174910.07548  -3253170.23846         0.00041  21169969.66346  21169969.20648
 -18932428.49348 -14752533.81946         0.00041  20827276.77546  20827277.16148
 97 03 27 00 38 00.0000000  0  7 04 05 06 09 10 24 30
   5691865.04648   4435218.26144         0.00041  23930079.65444  23930079.58248
 -21122611.67749 -16459168.94846         0.00041  20223693.17146  20223692.86549
  -6296296.35848  -4906199.14745         0.00041  22900661.25945  22900660.29548
   2467715.05448   1922894.48141         0.00041         0.00041  24111424.82548
  -7447791.53648  -5803469.30346         0.00041  21686023.65046  21686022.83148
  -4116015.55348  -3207278.40346         0.00041  21181176.88046  21181176.48748
 -18983881.12448 -14792626.77046         0.00041  20817485.52746  20817485.92948
 97 03 27 00 38 30.0000000  0  7 04 05 06 09 10 24 30
   5788975.49748   4510888.75344         0.00041  23948558.48244  23948558.60648
 -21112988.78949 -16451670.59946         0.00041  20225524.27146  20225524.16549
  -6360318.62148  -4956086.59145         0.00041  22888477.38045  22888477.25248
   2559463.45448   1994386.65544         0.00041  24128885.40244  24128885.16048
  -7503077.45248  -5846549.21746         0.00041  21675502.89946  21675501.95948
  -4056802.34748  -3161138.24246         0.00041  21192444.99546  21192444.55148
 -19034863.80748 -14832353.52646         0.00041  20807783.88746  20807784.35148
 97 03 27 00 39 00.0000000  0  7 04 05 06 09 10 24 30
   5886199.57248   4586647.74544         0.00041  23967059.51744  23967059.83248
 -21102787.25149 -16443721.35046         0.00041  20227465.66746  20227465.52049
  -6424186.02548  -5005853.37845         0.00041  22876324.09045  22876323.67748
   2651305.96348   2065952.20844         0.00041  24146363.03444  24146362.59748
  -7557824.09748  -5889208.91946         0.00041  21665085.53946  21665084.15148
  -3997216.19648  -3114707.47546         0.00041  21203783.69946  21203783.30848
 -19085307.07948 -14871659.96346         0.00041  20798184.92446  20798185.42548
 97 03 27 00 39 30.0000000  0  7 04 05 06 09 10 24 30
   5983432.73248   4662413.83941         0.00041         0.00041  23985562.45448
 -21092112.31149 -16435403.21346         0.00041  20229497.23946  20229496.83649
  -6488022.52048  -5055596.05145         0.00041  22864176.13445  22864175.80548
   2743131.66348   2137504.66544         0.00041  24163839.04644  24163835.72048
  -7612132.18048  -5931526.87946         0.00041  21654750.55346  21654749.78548
  -3937368.08648  -3068072.58446         0.00041  21215172.64046  21215172.15748
 -19135314.46448 -14910626.74346         0.00041  20788668.81446  20788669.31348
 97 03 27 00 40 00.0000000  0  7 04 05 06 09 10 24 30
   6080207.20047         0.00041         0.00041         0.00041  24004052.41547
 -21081032.72549 -16426769.76746         0.00041  20231605.35146  20231605.35649
  -6551906.30848  -5105375.61045         0.00041  22852018.98745  22852019.26448
   2834857.83548   2208979.57544         0.00041  24181290.85844  24181291.06448
  -7666073.12448  -5973558.75946         0.00041  21644485.84146  21644485.01048
  -3877347.46548  -3021303.27246         0.00041  21226593.80046  21226593.38448
 -19184958.60349 -14949310.47846         0.00041  20779222.04846  20779222.66849
 97 03 27 00 40 30.0000000  0  6 05 06 09 10 24 30
 -21069492.06949 -16417777.05046         0.00041  20233801.51446  20233801.38049
  -6615804.22848  -5155166.17645         0.00041  22839860.05745  22839859.67648
   2926503.08748   2280391.46244         0.00041  24198733.78444  24198730.26548
  -7719624.07248  -6015286.75046         0.00041  21634295.13946  21634294.58248
  -3817135.64648  -2974384.96746         0.00041  21238051.83146  21238051.38648
 -19234201.71149 -14987681.72646         0.00041  20769851.30346  20769851.79449
 97 03 27 00 41 00.0000000  0  6 05 06 09 10 24 30
 -21057480.04549 -16408417.03146         0.00041  20236087.22846  20236087.22349
  -6679745.84948  -5204990.79045         0.00041  22827692.67245  22827692.32148
   3018063.05048   2351736.77044         0.00041  24216154.56244  24216153.43048
  -7772780.75648  -6056707.51546         0.00041  21624180.22446  21624179.22948
  -3756733.28548  -2927318.18946         0.00041  21249545.76046  21249545.35248
 -19283046.05748 -15025742.24246         0.00041  20760556.31646  20760556.78148
 97 03 27 00 41 30.0000000  0  6 05 06 09 10 24 30
 -21044965.19149 -16398665.18846         0.00041  20238468.68546  20238468.68349
  -6743708.10048  -5254831.47045         0.00041  22815520.53545  22815521.02848
   3109555.76848   2423029.80244         0.00041  24233568.00544  24233563.91248
  -7825514.47648  -6097798.71346         0.00041  21614145.32546  21614144.69148
  -3696106.45448  -2880076.50646         0.00041  21261082.98746  21261082.60248
 -19331464.26248 -15063470.70646         0.00041  20751343.07246  20751343.43048
 97 03 27 00 42 00.0000000  0  6 05 06 09 10 24 30
 -21031839.99749 -16388437.76846         0.00041  20240966.25546  20240966.43249
  -6807584.67248  -5304605.40245         0.00041  22803365.04645  22803364.98148
   3201060.46048   2494332.11644         0.00041  24250979.50344  24250977.43748
  -7877723.71448  -6138481.22146         0.00041  21604209.89846  21604209.32248
  -3635157.42048  -2832583.75346         0.00041  21272681.50646  21272680.90548
 -19379344.61249 -15100780.06446         0.00041  20742231.72346  20742232.04349
 97 03 27 00 42 30.0000000  0  7 04 05 06 09 10 24 30
        -0.65158        -0.31454         0.00051  24096518.76154  24096518.85558
 -21018091.46449 -16377724.63246         0.00041  20243582.72746  20243582.55149
  -6871379.64148  -5354315.72245         0.00041  22791225.78945  22791225.37148
   3292563.66748   2565633.26644         0.00041  24268390.51244  24268389.16048
  -7929388.79748  -6178739.71546         0.00041  21594378.28946  21594377.76048
  -3573887.26748  -2784840.78446         0.00041  21284340.80746  21284340.22248
 -19426679.21849 -15137664.16146         0.00041  20733223.93546  20733224.46249
 97 03 27 00 43 00.0000000  0  7 04 05 06 09 10 24 30
     97400.67548     75896.79044         0.00041  24115053.46544  24115053.95148
 -21003680.60349 -16366495.39446         0.00041  20246325.08346  20246324.88249
  -6935040.53848  -5403921.59345         0.00041  22779111.75045  22779111.12248
   3384109.35248   2636967.53644         0.00041  24285809.89244  24285810.69048
  -7980446.98748  -6218525.29946         0.00041  21584662.30346  21584661.71648
  -3512251.07448  -2736812.58346         0.00041  21296069.66146  21296069.26248
 -19473420.82848 -15174086.18446         0.00041  20724329.40746  20724329.63148
 97 03 27 00 43 30.0000000  0  7 04 05 06 09 10 24 30
    194989.03848    151939.68144         0.00041  24133625.05844  24133623.98748
 -20988558.85049 -16354712.21446         0.00041  20249202.52646  20249202.55349
  -6998482.10948  -5453356.55045         0.00041  22767038.87245  22767038.47048
   3475760.81448   2708384.25044         0.00041  24303253.46444  24303250.68248
  -8030834.46148  -6257788.25446         0.00041  21575074.39146  21575073.26248
  -3450201.03048  -2688461.90146         0.00041  21307877.39446  21307876.96048
 -19519515.76848 -15210004.31046         0.00041  20715557.68446  20715558.16948
 97 03 27 00 44 00.0000000  0  8 04 05 06 09 10 17 24 30
    292643.16248    228033.77544         0.00041  24152208.59644  24152207.60048
 -20972843.94149 -16342466.83846         0.00041  20252192.78946  20252193.07649
  -7061815.85948  -5502707.47145         0.00041  22754986.96945  22754986.75148
   3567418.18948   2779805.54744         0.00041  24320693.64944  24320692.83748
  -8080652.31448  -6296607.33446         0.00041  21565593.76046  21565593.15648
        -0.55358         0.00051         0.00051         0.00051  25578584.51358
  -3387855.12848  -2639880.67846         0.00041  21319741.37646  21319741.06348
 -19565086.17349 -15245513.70646         0.00041  20706885.94146  20706886.55649
 97 03 27 00 44 30.0000000  0  8 04 05 06 09 10 17 24 30
    390192.79448    304046.46044         0.00041  24170771.54544  24170770.85248
 -20956706.88449 -16329892.50946         0.00041  20255263.70946  20255263.69649
  -7125196.05048  -5552094.62645         0.00041  22742925.67745  22742925.35748
   3658939.22548   2851120.59544         0.00041  24338108.86044  24338108.19348
  -8130056.25348  -6335103.89246         0.00041  21556192.84746  21556192.21348
    -99469.43848         0.00041         0.00041         0.00041  25559654.57348
  -3325368.04548  -2591189.44446         0.00041  21331632.18546  21331631.69548
 -19610303.05948 -15280747.64046         0.00041  20698281.58146  20698281.94948
 97 03 27 00 45 00.0000000  0  8 04 05 06 09 10 17 24 30
    487647.77548    379985.37144         0.00041  24189315.65444  24189315.66348
 -20940160.85749 -16316999.50546         0.00041  20258412.41846  20258412.31749
  -7188602.21348  -5601501.99145         0.00041  22730859.52245  22730859.72848
   3750343.52948   2922344.65344         0.00041  24355503.45944  24355502.55848
  -8179046.06148  -6373277.75146         0.00041  21546870.83646  21546869.58048
   -198947.45548         0.00041         0.00041         0.00041  25540724.33648
  -3262733.96648  -2542383.67246         0.00041  21343551.06046  21343550.20948
 -19655168.42648 -15315707.66346         0.00041  20689744.00946  20689744.43748
 97 03 27 00 45 30.0000000  0  8 04 05 06 09 10 17 24 30
    585155.75348    455965.65644         0.00041  24207872.42744  24207870.61348
 -20923042.86349 -16303660.80546         0.00041  20261669.90346  20261669.71849
  -7251885.58748  -5650813.68545         0.00041  22718818.06545  22718817.08648
   3841785.72248   2993598.28644         0.00041  24372903.97744  24372902.88548
  -8227461.62748  -6411004.15646         0.00041  21537657.31846  21537656.43848
   -298267.89048         0.00041         0.00041         0.00041  25521824.05348
  -3199799.70748  -2493343.99346         0.00041  21355527.04946  21355526.53848
 -19699523.97148 -15350270.41846         0.00041  20681303.26946  20681303.67348
 97 03 27 00 46 00.0000000  0  7 05 06 09 10 17 24 30
 -20905411.30549 -16289921.90646         0.00041  20265024.82746  20265024.89449
  -7315126.59848  -5700092.36045         0.00041  22706783.45045  22706782.80648
   3933177.09448   3064812.28344         0.00041  24390294.60744  24390294.35848
  -8275385.30848  -6448347.27146         0.00041  21528537.82746  21528536.76448
   -397488.85948   -309731.12241         0.00041         0.00041  25502942.30548
  -3136635.40648  -2444125.05946         0.00041  21367546.69646  21367546.29248
 -19743425.77949 -15384479.61346         0.00041  20672949.04046  20672949.61849
 97 03 27 00 46 30.0000000  0  7 05 06 09 10 17 24 30
 -20887508.89549 -16275971.96146         0.00041  20268431.36046  20268431.67649
  -7378558.73348  -5749519.97145         0.00041  22694712.39645  22694711.94848
   4024261.75048   3135787.31244         0.00041  24407630.19644  24407627.17148
  -8323062.75048  -6485498.51046         0.00041  21519464.73046  21519464.13748
   -496860.26748         0.00041         0.00041         0.00041  25484032.78048
  -3073481.78148  -2394914.44646         0.00041  21379564.51146  21379564.00248
 -19787100.45249 -15418511.82146         0.00041  20664638.00846  20664638.58049
 97 03 27 00 47 00.0000000  0  7 05 06 09 10 17 24 30
 -20869116.46149 -16261640.19146         0.00041  20271931.52146  20271931.55149
  -7441983.07848  -5798941.50045         0.00041  22682642.30645  22682642.69848
   4115234.61448   3206675.20841         0.00041         0.00041  24424938.05948
  -8370288.98448  -6522298.15146         0.00041  21510478.06846  21510477.45048
   -596191.95448         0.00041         0.00041         0.00041  25465130.43648
  -3010138.74048  -2345556.22746         0.00041  21391618.16746  21391617.63048
 -19830322.71149 -15452191.49546         0.00041  20656413.04046  20656413.68049
 97 03 27 00 47 30.0000000  0  7 05 06 09 10 17 24 30
 -20850096.82349 -16246819.70946         0.00041  20275551.08746  20275551.03349
  -7505282.56248  -5848265.75245         0.00041  22670597.90845  22670597.48148
   4206228.56748   3277579.54044         0.00041  24442256.48844  24442254.61148
  -8416941.58448  -6558650.82246         0.00041  21501600.65646  21501599.78348
   -695346.26447   -541827.50241         0.00041         0.00041  25446261.86847
  -2946467.35048  -2295942.16046         0.00041  21403734.59446  21403734.11548
 -19872941.99649 -15485401.31846         0.00041  20648302.97946  20648303.40949
 97 03 27 00 48 00.0000000  0  7 05 06 09 10 17 24 30
 -20830460.26049 -16231518.50446         0.00041  20279287.57446  20279287.47549
  -7568454.12048  -5897490.31745         0.00041  22658576.51645  22658576.08448
   4297260.38248   3348513.41444         0.00041  24459577.53444  24459577.01548
  -8463019.58548  -6594555.74246         0.00041  21492831.82646  21492831.31148
   -794333.24648         0.00041         0.00041         0.00041  25427424.94948
  -2882457.50348  -2246064.36046         0.00041  21415915.68246  21415914.79648
 -19914936.50449 -15518124.30846         0.00041  20640311.58146  20640312.00749
 97 03 27 00 48 30.0000000  0  7 05 06 09 10 17 24 30
 -20810173.21949 -16215710.42146         0.00041  20283148.40246  20283148.19949
  -7631460.81248  -5946586.41545         0.00041  22646586.73145  22646586.12448
   4388379.40448   3419515.22944         0.00041  24476917.90344  24476916.85548
  -8508480.24848  -6629979.61546         0.00041  21484180.94346  21484180.13248
   -893130.02048   -695944.54241         0.00041         0.00041  25408625.26948
  -2818077.34948  -2195898.01046         0.00041  21428166.48646  21428165.58148
 -19956271.80849 -15550333.63046         0.00041  20632445.83746  20632446.39549
 97 03 27 00 49 00.0000000  0  7 05 06 09 10 17 24 30
 -20789330.57449 -16199469.40646         0.00041  20287114.62246  20287114.28049
  -7694417.80248  -5995643.78645         0.00041  22634605.89945  22634605.71248
   4479484.79648   3490506.44844         0.00041  24494256.22044  24494253.19648
  -8553434.32248  -6665008.74146         0.00041  21475626.81946  21475625.60448
   -991822.57447   -772847.73741         0.00041         0.00041  25389843.83147
  -2753440.55148  -2145531.66746         0.00041  21440466.48246  21440465.77048
 -19997061.70649 -15582117.96146         0.00041  20624683.70646  20624684.28349
 97 03 27 00 49 30.0000000  0  6 05 06 09 10 24 30
 -20767983.54349 -16182835.35446         0.00041  20291176.60546  20291176.58849
  -7757358.17248  -6044688.20746         0.00041  22622629.24346  22622628.73548
   4570529.73948   3561450.45641         0.00041         0.00041  24511578.98048
  -8597913.21248  -6699667.60046         0.00041  21467162.39546  21467161.82448
  -2688590.76148  -2094999.35646         0.00041  21452807.04346  21452806.59348
 -20037358.09249 -15613517.73946         0.00041  20617015.48946  20617015.97949
 97 03 27 00 50 00.0000000  0  6 05 06 09 10 24 30
 -20746105.96249 -16165787.88946         0.00041  20295339.90646  20295339.68549
  -7820245.70748  -6093691.45646         0.00041  22610661.79346  22610661.52848
   4661511.83748   3632345.56441         0.00041         0.00041  24528891.90748
  -8641880.55248  -6733927.84946         0.00041  21458795.58846  21458795.13648
  -2623515.69648  -2044291.51146         0.00041  21465190.23146  21465189.54148
 -20077154.00449 -15644527.53646         0.00041  20609442.52746  20609443.09949
 97 03 27 00 50 30.0000000  0  6 05 06 09 10 24 30
 -20723684.93249 -16148316.95646         0.00041  20299606.38346  20299606.13749
  -7883073.33148  -6142648.02446         0.00041  22598706.95746  22598706.48048
   4752404.43847         0.00041         0.00041         0.00041  24546176.82147
  -8685324.00248  -6767779.86446         0.00041  21450528.47146  21450527.88048
  -2558220.75248  -1993412.33046         0.00041  21477615.36546  21477614.51948
 -20116458.47249 -15675154.38346         0.00041  20601963.40446  20601963.93049
 97 03 27 00 51 00.0000000  0  5 05 06 10 24 30
 -20700574.17349 -16130308.58446         0.00041  20304004.15646  20304004.03849
  -7945681.37548  -6191433.48746         0.00041  22586792.67246  22586792.15948
  -8728076.00048  -6801093.07746         0.00041  21442392.86346  21442392.21348
  -2492538.75648  -1942231.55946         0.00041  21490114.65546  21490113.74948
 -20155112.43249 -15705274.34346         0.00041  20594607.68646  20594608.27749
 97 03 27 00 51 30.0000000  0  6 04 05 06 10 24 30
        -0.00758         0.00051         0.00051         0.00051  24430346.44658
 -20676892.99649 -16111855.73346         0.00041  20308510.61446  20308510.62449
  -8008160.88748  -6240118.79245         0.00041  22574902.95645  22574902.37648
  -8770231.62248  -6833941.59746         0.00041  21434370.97146  21434370.23448
  -2426571.25848  -1890828.30546         0.00041  21502667.50946  21502666.93148
 -20193213.45248 -15734963.44946         0.00041  20587357.25146  20587357.80248
 97 03 27 00 52 00.0000000  0  6 04 05 06 10 24 30
     97612.96248     76062.19841         0.00041         0.00041  24448921.42248
 -20652787.44549 -16093072.20546         0.00041  20313097.59246  20313097.57449
  -8070666.44948  -6288824.40245         0.00041  22563008.89445  22563008.11048
  -8811943.35948  -6866444.24046         0.00041  21426433.85046  21426432.84648
  -2360465.59648  -1839317.40146         0.00041  21515247.05746  21515246.32548
 -20230904.16948 -15764332.83646         0.00041  20580185.06246  20580185.16948
 97 03 27 00 52 30.0000000  0  6 04 05 06 10 24 30
    195075.68448    152007.21944         0.00041  24467471.62244  24467468.46248
 -20628313.80049 -16074001.86146         0.00041  20317755.02346  20317754.83249
  -8133264.57748  -6337602.13546         0.00041  22551095.74746  22551096.12348
  -8853275.88848  -6898651.39346         0.00041  21418568.15246  21418567.49248
  -2294283.51148  -1787746.94046         0.00041  21527840.71046  21527840.32448
 -20268243.68849 -15793428.55746         0.00041  20573079.22346  20573079.75149
 97 03 27 00 53 00.0000000  0  6 04 05 06 10 24 30
    292369.83048    227820.83041         0.00041         0.00041  24485982.79148
 -20603477.97849 -16054649.29846         0.00041  20322481.08546  20322480.78049
  -8195967.17448  -6386461.28745         0.00041  22539164.79445  22539164.15448
  -8894235.71148  -6930568.11946         0.00041  21410774.09046  21410773.16048
  -2228046.32848  -1736133.55046         0.00041  21540445.45246  21540445.11448
 -20305246.51549 -15822261.92446         0.00041  20566037.95446  20566038.56949
 97 03 27 00 53 30.0000000  0  6 04 05 06 10 24 30
    389715.03048    303674.24841         0.00041         0.00041  24504506.58148
 -20578020.53049 -16034812.34346         0.00041  20327325.42546  20327325.28049
  -8258530.46148  -6435211.87646         0.00041  22527259.17146  22527258.70748
  -8934577.22748  -6962003.06146         0.00041  21403096.98046  21403096.55448
  -2161523.30848  -1684297.42946         0.00041  21553104.22746  21553103.93148
 -20341672.47149 -15850645.78746         0.00041  20559106.47946  20559106.99849
 97 03 27 00 54 00.0000000  0  7 04 05 06 10 17 24 30
    487185.52848    379625.22744         0.00041  24523054.52944  24523054.18248
 -20551825.01049 -16014400.27746         0.00041  20332310.28446  20332310.52749
  -8320869.48448  -6483787.70046         0.00041  22515396.33446  22515395.93448
  -8974207.08648  -6992883.45646         0.00041  21395555.75446  21395554.88148
        -0.02458         0.15151         0.00051         0.00051  25203339.26358
  -2094619.46448  -1632164.56746         0.00041  21565835.78846  21565835.20448
 -20377427.06049 -15878506.50046         0.00041  20552302.59346  20552303.18949
 97 03 27 00 54 30.0000000  0  7 04 05 06 10 17 24 30
    584673.48548    455589.87944         0.00041  24541605.67344  24541606.22348
 -20524989.71749 -15993489.68646         0.00041  20337416.98146  20337416.87349
  -8383081.88448  -6532264.89346         0.00041  22503557.46946  22503557.06048
  -9013231.35748  -7023291.95846         0.00041  21388129.73446  21388129.01848
    -97278.28148         0.00041         0.00041         0.00041  25184826.76048
  -2027454.69548  -1579828.38046         0.00041  21578617.00546  21578616.30448
 -20412618.89049 -15905928.70346         0.00041  20545605.50346  20545606.10649
 97 03 27 00 55 00.0000000  0  7 04 05 06 10 17 24 30
    681987.22648    531418.80044         0.00041  24560124.56644  24560125.20748
 -20497718.59349 -15972239.47546         0.00041  20342606.41746  20342606.22549
  -8445361.96148  -6580794.78645         0.00041  22491705.81245  22491705.40748
  -9051835.28248  -7053372.91746         0.00041  21380783.74046  21380783.15648
   -194585.44248   -151624.69041         0.00041         0.00041  25166309.82348
  -1960223.58948  -1527440.51046         0.00041  21591410.68646  21591409.94548
 -20447427.28949 -15933052.12146         0.00041  20538981.99446  20538982.46949
 97 03 27 00 55 30.0000000  0  7 04 05 06 10 17 24 30
    779140.37548    607122.53644         0.00041  24578612.62544  24578612.41448
 -20470020.30049 -15950656.39546         0.00041  20347877.30646  20347876.95849
  -8507701.65448  -6629371.15546         0.00041  22479842.93146  22479842.66448
  -9090018.99348  -7083126.44346         0.00041  21373517.51646  21373516.76748
   -291897.31048         0.00041         0.00041         0.00041  25147791.61548
  -1892904.42048  -1474984.01246         0.00041  21604220.68846  21604220.20548
 -20481829.48849 -15959859.02646         0.00041  20532435.31246  20532436.07649
 97 03 27 00 56 00.0000000  0  7 04 05 06 10 17 24 30
    876196.49448    682750.64941         0.00041         0.00041  24597080.90648
 -20441858.68149 -15928712.27746         0.00041  20353236.36846  20353236.27149
  -8570049.45448  -6677953.83346         0.00041  22467979.23346  22467978.61848
  -9127732.34348  -7112513.45046         0.00041  21366340.67446  21366340.19948
   -389155.16248         0.00041         0.00041         0.00041  25129284.00248
  -1825452.72748  -1422424.25046         0.00041  21617056.63046  21617055.98048
 -20515776.41049 -15986311.17246         0.00041  20525975.61146  20525976.13049
 97 03 27 00 56 30.0000000  0  7 04 05 06 10 17 24 30
    973200.00147    758337.75841         0.00041         0.00041  24615539.95047
 -20413227.32049 -15906402.12846         0.00041  20358684.49046  20358684.47349
  -8632378.11348  -6726521.59646         0.00041  22456118.13646  22456117.68148
  -9164934.28648  -7141501.95846         0.00041  21359262.02946  21359260.97248
   -486334.91748   -378961.73141         0.00041         0.00041  25110791.33948
  -1757848.39048  -1369745.55046         0.00041  21629920.99846  21629920.55148
 -20549235.10549 -16012382.87746         0.00041  20519608.52146  20519609.02549
 97 03 27 00 57 00.0000000  0  7 04 05 06 10 17 24 30
   1070134.84547    833871.39944         0.00041  24633988.65944  24633986.52347
 -20384152.73449 -15883746.61146         0.00041  20364217.33346  20364217.11649
  -8694709.16448  -6775091.21246         0.00041  22444256.96346  22444256.58448
  -9201630.97048  -7170096.75146         0.00041  21352278.49246  21352277.86548
   -583447.45748   -454633.85044         0.00041  25092314.02544  25092311.28548
  -1690089.90748  -1316946.73246         0.00041  21642815.28246  21642814.96948
 -20582209.21149 -16038076.98546         0.00041  20513333.59346  20513334.20449
 97 03 27 00 57 30.0000000  0  7 04 05 06 10 17 24 30
   1167023.84447    909369.31741         0.00041         0.00041  24652423.95547
 -20354606.59549 -15860723.65546         0.00041  20369839.78946  20369839.51549
  -8757012.25748  -6823639.04846         0.00041  22432400.71446  22432400.21748
  -9237811.93148  -7198289.68246         0.00041  21345393.93946  21345392.73448
   -680473.43248   -530238.39241         0.00041         0.00041  25073847.10548
  -1622164.75448  -1264018.04046         0.00041  21655741.00446  21655740.24748
 -20614686.79049 -16063384.18646         0.00041  20507153.51746  20507153.97249
 97 03 27 00 58 00.0000000  0  7 04 05 06 10 17 24 30
   1264077.06147         0.00041         0.00041         0.00041  24670891.58047
 -20324347.98949 -15837145.53346         0.00041  20375598.04246  20375597.63249
  -8819077.85448  -6872001.82246         0.00041  22420589.55746  22420589.13248
  -9273249.36848  -7225903.24946         0.00041  21338650.12346  21338649.10848
   -777191.25948         0.00041         0.00041         0.00041  25055442.31148
  -1553865.32648  -1210797.70746         0.00041  21668737.84146  21668737.40948
 -20646456.40149 -16088139.72246         0.00041  20501107.90446  20501108.46349
 97 03 27 00 58 30.0000000  0  7 04 05 06 10 17 24 30
   1361204.14247         0.00041         0.00041         0.00041  24689374.73547
 -20293461.85149 -15813078.41446         0.00041  20381475.29046  20381475.02149
  -8881000.44348  -6920253.16746         0.00041  22408806.78146  22408806.27248
  -9308032.02548  -7253006.59046         0.00041  21332030.97846  21332030.34448
   -873668.44547         0.00041         0.00041         0.00041  25037082.99747
  -1485266.18248  -1157343.82646         0.00041  21681791.61146  21681791.48548
 -20677588.74449 -16112398.68846         0.00041  20495183.80246  20495184.28249
 97 03 27 00 59 00.0000000  0  7 04 05 06 10 17 24 30
   1458256.74447   1136303.95141         0.00041         0.00041  24707844.83647
 -20262077.19549 -15788622.84146         0.00041  20387447.51446  20387447.38249
  -8942904.60648  -6968490.16046         0.00041  22397026.67946  22397026.39148
  -9342305.20648  -7279712.93646         0.00041  21325508.83246  21325508.29048
   -970035.78247         0.00041         0.00041         0.00041  25018744.96547
  -1416498.23648  -1103758.41846         0.00041  21694878.13146  21694877.60948
 -20708224.67149 -16136270.83446         0.00041  20489353.79446  20489354.36349
 97 03 27 00 59 30.0000000  0  7 04 05 06 10 17 24 30
   1555312.11347         0.00041         0.00041         0.00041  24726312.94547
 -20230106.01349 -15763710.25146         0.00041  20393531.36346  20393531.35649
  -9004707.29248  -7016648.07546         0.00041  22385265.61846  22385265.78748
  -9375988.30548  -7305959.48446         0.00041  21319099.16146  21319098.61448
  -1066210.84347         0.00041         0.00041         0.00041  25000443.03247
  -1347495.65448  -1049990.17946         0.00041  21708008.79046  21708008.23448
 -20738296.24349 -16159703.22946         0.00041  20483631.56946  20483631.85649
 97 03 27 01 00 00.0000000  0  7 04 05 06 10 17 24 30
   1652436.75447   1287613.05141         0.00041         0.00041  24744794.87847
 -20197481.62349 -15738288.65446         0.00041  20399739.61846  20399739.26449
  -9066338.10648  -7064672.06346         0.00041  22373537.46046  22373537.75848
  -9408998.13648  -7331681.41146         0.00041  21312817.55946  21312816.93148
  -1162115.19047         0.00041         0.00041         0.00041  24982193.32947
  -1278167.08148   -995967.91446         0.00041  21721201.61946  21721201.14448
 -20767702.60049 -16182617.26846         0.00041  20478035.73846  20478036.16049
 97 03 27 01 00 30.0000000  0  7 04 05 06 10 17 24 30
   1749434.19847         0.00041         0.00041         0.00041  24763252.23647
 -20164434.29349 -15712537.50746         0.00041  20406028.36746  20406028.04149
  -9127992.13648  -7112714.14846         0.00041  22361805.19046  22361805.26048
  -9441555.59848  -7357050.84246         0.00041  21306622.31746  21306621.42548
  -1257978.46647   -980241.91841         0.00041         0.00041  24963951.46847
  -1208716.98348   -941850.96146         0.00041  21734417.32446  21734417.05748
 -20796642.11549 -16205167.54246         0.00041  20472528.58346  20472529.00049
 97 03 27 01 01 00.0000000  0  7 04 05 06 10 17 24 30
   1846283.66947         0.00041         0.00041         0.00041  24781682.25347
 -20130970.13949 -15686461.55946         0.00041  20412396.34846  20412396.25749
  -9189685.74148  -7160787.07046         0.00041  22350065.95446  22350065.15948
  -9473684.32148  -7382086.19446         0.00041  21300508.28146  21300507.43748
  -1353837.12947  -1054936.91141         0.00041         0.00041  24945710.07247
  -1139189.85048   -887673.97846         0.00041  21747647.80746  21747647.46748
 -20825142.36149 -16227375.52646         0.00041  20467105.19746  20467105.65749
 97 03 27 01 01 30.0000000  0  6 04 05 06 10 24 30
   1943035.10748         0.00041         0.00041         0.00041  24800094.09548
 -20097038.27949 -15660021.13646         0.00041  20418853.58446  20418853.22349
  -9251379.66248  -7208860.24046         0.00041  22338325.61246  22338325.54448
  -9505350.53948  -7406761.14946         0.00041  21294482.53446  21294481.76548
  -1069544.41648   -833404.81246         0.00041  21760901.26246  21760900.76448
 -20853144.07449 -16249195.04046         0.00041  20461776.49046  20461777.02149
 97 03 27 01 02 00.0000000  0  6 04 05 06 10 24 30
   2039746.12347         0.00041         0.00041         0.00041  24818497.26147
 -20062584.15949 -15633173.75846         0.00041  20425410.03246  20425409.79449
  -9313020.52548  -7256892.05246         0.00041  22326595.59646  22326595.62748
  -9536499.96248  -7431033.41146         0.00041  21288554.75646  21288554.21248
   -999721.52748   -778997.37946         0.00041  21774188.11946  21774187.55248
 -20880583.68849 -16270576.55746         0.00041  20456554.74746  20456555.31049
 97 03 27 01 02 30.0000000  0  6 04 05 06 10 24 30
   2136425.04848   1664746.75541         0.00041         0.00041  24836894.71148
 -20027590.72749 -15605906.15146         0.00041  20432069.01946  20432068.68749
  -9374607.06348  -7304881.54646         0.00041  22314875.92946  22314875.99348
  -9567120.31048  -7454893.41246         0.00041  21282727.68346  21282727.26748
   -929741.47748   -724467.47346         0.00041  21787504.86746  21787504.16048
 -20907485.14549 -16291538.73446         0.00041  20451435.72346  20451436.33849
 97 03 27 01 03 00.0000000  0  6 04 05 06 10 24 30
   2233116.94248         0.00041         0.00041         0.00041  24855294.41348
 -19991983.17049 -15578160.02246         0.00041  20438844.87046  20438844.61849
  -9436075.16748  -7352778.74446         0.00041  22303179.61046  22303179.19748
  -9597131.72748  -7478278.91646         0.00041  21277017.06846  21277016.30648
   -859543.95648   -669768.11246         0.00041  21800862.83146  21800862.63648
 -20933787.77949 -16312034.29446         0.00041  20446430.65446  20446431.07849
 97 03 27 01 03 30.0000000  0  6 04 05 06 10 24 30
   2329843.79148         0.00041         0.00041         0.00041  24873701.21048
 -19955748.55449 -15549925.27946         0.00041  20445740.14046  20445739.93149
  -9497390.04648  -7400556.54546         0.00041  22291511.20946  22291511.56748
  -9626478.78648  -7501146.74246         0.00041  21271432.61146  21271431.79748
   -789073.31948   -614855.93046         0.00041  21814273.01546  21814272.81548
 -20959446.44549 -16332028.05546         0.00041  20441547.98046  20441548.46249
 97 03 27 01 04 00.0000000  0  6 04 05 06 10 24 30
   2426593.41148         0.00041         0.00041         0.00041  24892111.34648
 -19918902.54349 -15521214.13046         0.00041  20452751.65546  20452751.32149
  -9558559.36248  -7448220.93646         0.00041  22279871.71546  22279871.40048
  -9655140.37048  -7523480.43346         0.00041  21265978.01646  21265977.32748
   -718351.25648   -559747.82746         0.00041  21827730.98946  21827730.40748
 -20984465.69449 -16351523.57146         0.00041  20436786.81946  20436787.07249
 97 03 27 01 04 30.0000000  0  7 04 05 06 10 17 24 30
   2523345.41848         0.00041         0.00041         0.00041  24910523.11548
 -19881469.36349 -15492045.43846         0.00041  20459875.02246  20459874.72849
  -9619592.23248  -7495778.98746         0.00041  22268257.34846  22268256.95948
  -9683131.67648  -7545291.83946         0.00041  21260651.44946  21260651.20148
        -0.72258         0.03354         0.00051  24818717.86854  24818715.22058
   -647398.92648   -504460.30246         0.00041  21841232.87246  21841232.15748
 -21008859.92749 -16370532.06346         0.00041  20432145.02546  20432145.57749
 97 03 27 01 05 00.0000000  0  7 04 05 06 10 17 24 30
   2620022.89248         0.00041         0.00041         0.00041  24928920.19548
 -19843531.34749 -15462483.36446         0.00041  20467094.43546  20467094.25649
  -9680553.70748  -7543281.41846         0.00041  22256656.32046  22256656.42048
  -9710520.88548  -7566634.06246         0.00041  21255439.54246  21255439.13748
    -94564.35048    -73685.83941         0.00041         0.00041  24800721.13148
   -576273.81048   -449038.13446         0.00041  21854767.28146  21854766.61748
 -21032681.61849 -16389094.42246         0.00041  20427611.68146  20427612.17549
 97 03 27 01 05 30.0000000  0  7 04 05 06 10 17 24 30
   2716626.47848         0.00041         0.00041         0.00041  24947302.63548
 -19805107.90749 -15432543.02946         0.00041  20474406.23146  20474405.79349
  -9741451.95448  -7590734.57746         0.00041  22245068.30246  22245067.88248
  -9737314.81448  -7587512.42546         0.00041  21250340.97146  21250340.41648
   -189000.86948   -147272.69944         0.00041  24782753.44044  24782749.98048
   -504990.39348   -393492.61346         0.00041  21868331.89646  21868331.57948
 -21055946.62549 -16407222.99546         0.00041  20423184.33046  20423185.12449
 97 03 27 01 06 00.0000000  0  7 04 05 06 10 17 24 30
   2813196.68648         0.00041         0.00041         0.00041  24965679.57048
 -19766169.33549 -15402201.29746         0.00041  20481815.77446  20481815.54749
  -9802262.81248  -7638119.63046         0.00041  22233495.98346  22233495.49748
  -9763509.92248  -7607924.18446         0.00041  21245356.19246  21245355.72148
   -283275.58748   -220733.41444         0.00041  24764811.41744  24764810.20048
   -433537.07648   -337814.70446         0.00041  21881929.24946  21881928.71448
 -21078651.13349 -16424914.82346         0.00041  20418863.91046  20418864.41249
 97 03 27 01 06 30.0000000  0  7 04 05 06 10 17 24 30
   2909648.15448         0.00041         0.00041         0.00041  24984033.66248
 -19726803.24049 -15371526.41146         0.00041  20489306.95846  20489306.80549
  -9863081.07248  -7685510.45046         0.00041  22221922.41046  22221922.16448
  -9789203.28848  -7627944.97946         0.00041  21240466.76246  21240466.37048
   -377477.97548   -294137.82644         0.00041  24746884.18144  24746884.08148
   -361989.19648   -282063.09746         0.00041  21895544.60946  21895544.07448
 -21100896.70849 -16442249.03146         0.00041  20414630.67446  20414631.04849
 97 03 27 01 07 00.0000000  0  7 04 05 06 10 17 24 30
   3005927.92848         0.00041         0.00041         0.00041  25002355.33548
 -19687061.85649 -15340559.09646         0.00041  20496869.60046  20496869.33649
  -9923961.86248  -7732950.01346         0.00041  22210337.49046  22210336.85448
  -9814451.39248  -7647618.81146         0.00041  21235662.42746  21235661.76948
   -471658.67348   -367525.36241         0.00041         0.00041  24728961.84448
   -290409.46748   -226286.69046         0.00041  21909165.93446  21909165.07148
 -21122731.99949 -16459263.54446         0.00041  20410475.84346  20410476.41349
 97 03 27 01 07 30.0000000  0  7 04 05 06 10 17 24 30
   3102239.22547         0.00041         0.00041         0.00041  25020682.03647
 -19646741.22249 -15309140.43246         0.00041  20504542.26446  20504542.08349
  -9984715.19948  -7780290.25846         0.00041  22198776.20846  22198775.85148
  -9839070.73248  -7666802.70646         0.00041  21230977.16146  21230976.65648
   -565605.46348   -440730.52441         0.00041         0.00041  24711084.24048
   -218608.11148   -170337.58046         0.00041  21922828.76646  21922828.25848
 -21143964.80649 -16475808.58946         0.00041  20406435.15846  20406435.84849
 97 03 27 01 08 00.0000000  0  7 04 05 06 10 17 24 30
   3198544.24147         0.00041         0.00041         0.00041  25039008.33547
 -19605861.09848 -15277285.80846         0.00041  20512321.83546  20512321.51748
 -10045379.45748  -7827561.08146         0.00041  22187232.21746  22187232.03448
  -9863102.90748  -7685529.06546         0.00041  21226403.97846  21226403.49848
   -659349.25748         0.00041         0.00041         0.00041  24693245.52848
   -146624.11648   -114246.15746         0.00041  21936526.72446  21936526.30748
 -21164620.72248 -16491904.10846         0.00041  20402504.49246  20402505.05348
 97 03 27 01 08 30.0000000  0  7 04 05 06 10 17 24 30
   3294734.12147         0.00041         0.00041         0.00041  25057313.92547
 -19564506.72549 -15245061.64046         0.00041  20520191.22846  20520190.84149
 -10106037.70948  -7874827.22846         0.00041  22175688.93146  22175688.89348
  -9886625.47148  -7703858.32246         0.00041  21221927.87446  21221927.46648
   -752985.25848         0.00041         0.00041         0.00041  24675427.32948
    -74558.21548    -58090.90646         0.00041  21950240.70646  21950240.10248
 -21184771.05149 -16507605.66346         0.00041  20398669.70346  20398670.23549
 97 03 27 01 09 00.0000000  0  7 04 05 06 10 17 24 30
   3390884.39947         0.00041         0.00041         0.00041  25075611.25947
 -19522598.41449 -15212405.83146         0.00041  20528165.94446  20528165.75449
 -10166600.43948  -7922018.95246         0.00041  22164164.62246  22164164.32148
  -9909560.40548  -7721729.67446         0.00041  21217563.57246  21217563.17948
   -846425.23148         0.00041         0.00041         0.00041  24657646.12448
     -2336.25948     -1814.06146         0.00041  21963984.13146  21963983.69848
 -21204329.03249 -16522845.65146         0.00041  20394948.11646  20394948.67449
 97 03 27 01 09 30.0000000  0  7 04 05 06 10 17 24 30
   3486971.85347         0.00041         0.00041         0.00041  25093895.57147
 -19480151.53648 -15179330.36046         0.00041  20536243.36446  20536243.11148
 -10227092.31648  -7969155.45946         0.00041  22152653.39546  22152653.20648
  -9931921.99548  -7739154.26346         0.00041  21213307.96546  21213307.53348
   -939697.68348   -732230.69241         0.00041         0.00041  24639896.86048
     70033.35348     54577.83746         0.00041  21977755.30046  21977755.20548
 -21223328.60749 -16537650.51646         0.00041  20391332.92246  20391333.33849
 97 03 27 01 10 00.0000000  0  7 04 05 06 10 17 24 30
   3583047.27547         0.00041         0.00041         0.00041  25112177.92847
 -19437110.85049 -15145792.18646         0.00041  20544433.48946  20544433.39049
 -10287444.14548  -8016182.82946         0.00041  22141168.76746  22141168.55248
  -9953638.26048  -7756076.00246         0.00041  21209175.62646  21209175.00248
  -1032768.04648   -804753.03341         0.00041         0.00041  24622185.94648
    142604.85548    111127.05746         0.00041  21991565.28246  21991564.69848
 -21241708.17949 -16551972.26346         0.00041  20387835.26746  20387835.77549
 97 03 27 01 10 30.0000000  0  7 04 05 06 10 17 24 30
   3679152.10347         0.00041         0.00041         0.00041  25130465.99347
 -19393448.57849 -15111769.65146         0.00041  20552742.31346  20552742.01649
 -10347612.00848  -8063066.85946         0.00041  22129718.86546  22129718.88048
  -9974665.40248  -7772460.75446         0.00041  21205174.33746  21205173.94048
  -1125592.72748         0.00041         0.00041         0.00041  24604521.94248
    215426.93648    167871.52846         0.00041  22005423.14946  22005422.50848
 -21259426.07849 -16565778.42046         0.00041  20384463.57046  20384464.19449
 97 03 27 01 11 00.0000000  0  6 05 06 10 17 24 30
 -19349315.94949 -15077380.59446         0.00041  20561140.52946  20561140.33349
 -10407759.25148  -8109934.82546         0.00041  22118273.37746  22118273.29048
  -9995165.21348  -7788434.60946         0.00041  21201273.30746  21201273.02948
  -1218331.01148         0.00041         0.00041         0.00041  24586874.43248
    288362.48148    224704.42246         0.00041  22019302.45246  22019301.85848
 -21276637.78149 -16579190.13946         0.00041  20381188.37446  20381188.85849
 97 03 27 01 11 30.0000000  0  6 05 06 10 17 24 30
 -19304724.17648 -15042633.76446         0.00041  20569626.12346  20569625.94848
 -10467896.65248  -8156795.11846         0.00041  22106830.03446  22106829.42348
 -10015147.91848  -7804005.53046         0.00041  21197470.74146  21197470.11148
  -1311011.48747         0.00041         0.00041         0.00041  24569237.34047
    361394.69148    281612.63146         0.00041  22033199.85046  22033199.48548
 -21293352.21548 -16592214.37546         0.00041  20378007.58246  20378008.19048
 97 03 27 01 12 00.0000000  0  6 05 06 10 17 24 30
 -19259662.96548 -15007521.13846         0.00041  20578200.80046  20578200.68848
 -10527996.19248  -8203625.90946         0.00041  22095392.81946  22095393.07148
 -10034593.06548  -7819157.57246         0.00041  21193770.40346  21193769.93848
  -1403604.69747         0.00041         0.00041         0.00041  24551617.43047
    434535.81048    338605.71246         0.00041  22047118.09646  22047117.67348
 -21309532.88849 -16604822.69346         0.00041  20374928.55946  20374929.07649
 97 03 27 01 12 30.0000000  0  6 05 06 10 17 24 30
 -19214152.58849 -14972058.51146         0.00041  20586861.14746  20586861.26349
 -10588079.02248  -8250443.67546         0.00041  22083960.03446  22083959.72048
 -10053511.04248  -7833898.84046         0.00041  21190170.56146  21190170.10248
  -1496098.26347         0.00041         0.00041         0.00041  24534015.84047
    507779.54048    395678.74646         0.00041  22061055.37246  22061055.67548
 -21325181.88649 -16617016.72146         0.00041  20371950.80646  20371951.26649
 97 03 27 01 13 00.0000000  0  5 05 06 10 24 30
 -19168189.38649 -14936243.02646         0.00041  20595607.71746  20595607.63849
 -10648137.59248  -8297242.54446         0.00041  22072530.61646  22072530.90548
 -10071891.59148  -7848221.33246         0.00041  21186672.65946  21186672.29548
    581121.34448    452828.19146         0.00041  22075012.10546  22075011.63748
 -21340295.54649 -16628793.60146         0.00041  20369074.67046  20369075.21049
 97 03 27 01 13 30.0000000  0  6 05 06 10 17 24 30
 -19121737.98348 -14900047.12946         0.00041  20604447.20946  20604446.94948
 -10708112.86848  -8343976.50746         0.00041  22061118.10846  22061117.60848
 -10089679.09148  -7862081.69946         0.00041  21183287.97046  21183287.51748
        -0.73357         0.04151         0.00051         0.00051  24498888.26557
    654593.68448    510079.36846         0.00041  22088993.62046  22088992.84648
 -21354826.11848 -16640116.12846         0.00041  20366309.54646  20366309.95948
 97 03 27 01 14 00.0000000  0  6 05 06 10 17 24 30
 -19074763.46848 -14863443.63246         0.00041  20613385.90246  20613385.94448
 -10767978.67848  -8390625.17746         0.00041  22049725.93046  22049725.71448
 -10106835.67048  -7875450.44646         0.00041  21180022.82446  21180022.40548
    -91987.88148    -71678.15444         0.00041  24481387.36944  24481383.70748
    728225.57448    567454.85146         0.00041  22103005.78946  22103004.54448
 -21368730.40049 -16650950.63546         0.00041  20363663.44646  20363663.93249
 97 03 27 01 14 30.0000000  0  6 05 06 10 17 24 30
 -19027211.71848 -14826390.33846         0.00041  20622435.14846  20622434.62748
 -10827695.13848  -8437157.44446         0.00041  22038362.30246  22038361.95948
 -10123317.27348  -7888293.23346         0.00041  21176886.45346  21176886.12848
   -183707.76848   -143148.16044         0.00041  24463932.94444  24463930.26348
    802061.47948    624989.32946         0.00041  22117056.01446  22117055.03548
 -21381965.93049 -16661264.03546         0.00041  20361145.04046  20361145.57749
 97 03 27 01 15 00.0000000  0  6 05 06 10 17 24 30
 -18979152.43248 -14788941.57346         0.00041  20631580.40246  20631580.12648
 -10887321.22748  -8483619.32346         0.00041  22027016.04446  22027015.67248
 -10139204.31748  -7900672.73946         0.00041  21173863.71046  21173862.96248
   -275256.07648   -214484.42944         0.00041  24446512.07844  24446509.27448
    876022.09448    682620.96846         0.00041  22131129.85646  22131129.20948
 -21394619.66049 -16671124.09346         0.00041  20358737.25946  20358737.72949
 97 03 27 01 15 30.0000000  0  6 05 06 10 17 24 30
 -18930640.62748 -14751140.18646         0.00041  20640811.67146  20640811.54948
 -10946918.63248  -8530058.84446         0.00041  22015674.49946  22015674.57848
 -10154569.12448  -7912645.29146         0.00041  21170939.47546  21170939.01348
   -366707.27448   -285745.08644         0.00041  24429107.08344  24429107.12148
    950049.23748    740304.45846         0.00041  22145216.54346  22145216.46348
 -21406744.79148 -16680572.24546         0.00041  20356429.80446  20356430.23148
 97 03 27 01 16 00.0000000  0  6 05 06 10 17 24 30
 -18881617.36749 -14712940.25346         0.00041  20650140.67146  20650140.52249
 -11006439.10348  -8576438.40346         0.00041  22004348.57446  22004348.22248
 -10169358.90648  -7924169.78146         0.00041  21168125.34046  21168124.58048
   -458019.01848   -356897.04644         0.00041  24411732.55644  24411731.10548
   1024206.26948    798089.15146         0.00041  22159328.94646  22159328.22848
 -21418287.98249 -16689566.94246         0.00041  20354233.25346  20354233.71849
 97 03 27 01 16 30.0000000  0  6 05 06 10 17 24 30
 -18832023.96549 -14674296.06446         0.00041  20659578.15746  20659577.86049
 -11065802.20548  -8622695.35646         0.00041  21993052.29446  21993051.94448
 -10183504.12948  -7935192.01346         0.00041  21165433.27346  21165432.69048
   -549127.69748   -427890.77744         0.00041  24394394.31944  24394393.26748
   1098569.54448    856034.55446         0.00041  22173479.57246  22173479.17848
 -21429190.16449 -16698062.14846         0.00041  20352158.39846  20352158.89149
 97 03 27 01 17 00.0000000  0  6 05 06 10 17 24 30
 -18781906.42048 -14635243.45946         0.00041  20669115.10546  20669114.64348
 -11125044.19148  -8668857.91846         0.00041  21981778.90946  21981778.39248
 -10197045.02448  -7945743.33346         0.00041  21162856.75046  21162856.15848
   -640074.58148   -498758.37744         0.00041  24377089.49244  24377085.79448
   1173098.15748    914108.80446         0.00041  22187661.86446  22187661.37448
 -21439492.53649 -16706089.97546         0.00041  20350197.99646  20350198.51549
 97 03 27 01 17 30.0000000  0  6 05 06 10 17 24 30
 -18731269.35448 -14595786.03146         0.00041  20678751.21846  20678750.88748
 -11184182.23848  -8714939.48946         0.00041  21970525.00246  21970524.44448
 -10209975.68448  -7955819.15346         0.00041  21160395.91846  21160395.46348
   -730832.08848         0.00041         0.00041         0.00041  24359820.89448
   1247785.26748    972306.55646         0.00041  22201874.56846  22201873.61748
 -21449184.86749 -16713642.44346         0.00041  20348353.57546  20348354.02349
 97 03 27 01 18 00.0000000  0  6 05 06 10 17 24 30
 -18680122.17648 -14555931.10846         0.00041  20688483.62046  20688483.88948
 -11243210.11548  -8760935.23046         0.00041  21959292.21746  21959291.97348
 -10222272.11548  -7965400.77246         0.00041  21158055.80146  21158055.64248
   -822009.56547         0.00041         0.00041         0.00041  24342577.25247
   1322626.30448   1030624.23846         0.00041  22216116.88746  22216115.45448
 -21458266.48849 -16720719.03046         0.00041  20346625.81746  20346625.76949
 97 03 27 01 18 30.0000000  0  5 05 06 10 24 30
 -18628517.90848 -14515720.00546         0.00041  20698304.23846  20698303.92348
 -11302173.93848  -8806881.03846         0.00041  21948071.99446  21948071.38748
 -10233982.31648  -7974525.59646         0.00041  21155827.64446  21155827.15548
   1397557.63848   1089012.28146         0.00041  22230374.83946  22230374.54648
 -21466794.53449 -16727364.26446         0.00041  20345002.65746  20345003.14349
 97 03 27 01 19 00.0000000  0  5 05 06 10 24 30
 -18576419.79848 -14475124.08546         0.00041  20708217.94446  20708217.83248
 -11361050.28948  -8852758.70546         0.00041  21936867.93146  21936867.69448
 -10245086.80148  -7983178.43046         0.00041  21153714.62446  21153714.12148
   1472600.31848   1147487.10045         0.00041  22244655.26145  22244654.51548
 -21474746.77149 -16733560.81546         0.00041  20343489.78046  20343490.04049
 97 03 27 01 19 30.0000000  0  5 05 06 10 24 30
 -18523795.72548 -14434118.31946         0.00041  20718232.02546  20718231.62348
 -11419807.25848  -8898543.33746         0.00041  21925686.93346  21925686.81148
 -10255542.92848  -7991326.04146         0.00041  21151724.79146  21151724.20648
   1547778.69148   1206067.65345         0.00041  22258960.96445  22258960.55548
 -21482099.06148 -16739289.87646         0.00041  20342090.52746  20342090.93148
 97 03 27 01 20 00.0000000  0  6 05 06 10 17 24 30
 -18470332.38748 -14392458.58546         0.00041  20728405.76946  20728405.41048
 -11478137.16848  -8943995.19246         0.00041  21914586.42446  21914586.79448
 -10265049.80248  -7998733.98546         0.00041  21149915.45346  21149914.96148
         0.26257         0.00051         0.00051         0.00051  24274059.35857
   1623401.07848   1264994.18745         0.00041  22273351.42845  22273350.96448
 -21488557.09548 -16744322.11646         0.00041  20340861.36746  20340861.90748
 97 03 27 01 20 30.0000000  0  5 05 06 10 24 30
 -18416142.65948 -14350232.83946         0.00041  20738717.71546  20738717.31348
 -11536173.80448  -8989218.52946         0.00041  21903542.64846  21903542.74548
 -10273761.51848  -8005522.31846         0.00041  21148257.75946  21148257.46348
   1699340.37948   1324167.66246         0.00041  22287802.29146  22287801.76548
 -21494257.38148 -16748763.90746         0.00041  20339776.68346  20339777.08548
 97 03 27 01 21 00.0000000  0  5 05 06 10 24 30
 -18361859.01648 -14307933.90946         0.00041  20749047.47046  20749047.25448
 -11594562.91048  -9034716.52246         0.00041  21892431.71046  21892431.62548
 -10282306.87748  -8012181.02346         0.00041  21146631.80946  21146631.23748
   1774962.47848   1383093.97345         0.00041  22302192.70745  22302192.25848
 -21499809.02649 -16753089.86646         0.00041  20338720.26846  20338720.62249
 97 03 27 01 21 30.0000000  0  5 05 06 10 24 30
 -18306994.55648 -14265182.39646         0.00041  20759487.88746  20759487.50648
 -11652815.30748  -9080107.97946         0.00041  21881347.13546  21881346.68948
 -10290176.44848  -8018313.15746         0.00041  21145134.55346  21145133.65748
   1850765.42748   1442161.19345         0.00041  22316617.74245  22316617.08448
 -21504693.00448 -16756895.57046         0.00041  20337790.72346  20337791.21848
 97 03 27 01 22 00.0000000  0  6 05 06 10 17 24 30
 -18251387.34048 -14221852.10846         0.00041  20770069.78446  20770069.42848
 -11710757.15748  -9125257.45446         0.00041  21870320.72446  21870320.87748
 -10297211.81948  -8023795.25746         0.00041  21143795.40046  21143794.88248
         0.18258         1.03354         0.00051  24206279.63654  24206276.04158
   1926913.56248   1501497.40246         0.00041  22331108.04146  22331107.57448
 -21508729.88249 -16760041.19646         0.00041  20337022.85146  20337023.20049
 97 03 27 01 22 30.0000000  0  6 05 06 10 17 24 30
 -18195175.75048 -14178050.87746         0.00041  20780766.58346  20780766.27848
 -11768501.09848  -9170252.71646         0.00041  21859332.76646  21859332.28048
 -10303525.25648  -8028714.79346         0.00041  21142594.10246  21142593.63448
    -88354.86848         0.00041         0.00041         0.00041  24189463.34448
   2003277.36248   1561001.64045         0.00041  22345639.34745  22345639.01548
 -21512034.16148 -16762615.96146         0.00041  20336394.10646  20336394.28848
 97 03 27 01 23 00.0000000  0  6 05 06 10 17 24 30
 -18138764.74148 -14134094.25346         0.00041  20791501.03046  20791500.63648
 -11826420.42248  -9215384.64446         0.00041  21848310.34546  21848310.67748
 -10309480.77948  -8033355.44046         0.00041  21141460.92246  21141460.42348
   -176793.50648   -137760.22644         0.00041  24172635.96344  24172634.69748
   2079467.13248   1620370.29745         0.00041  22360138.36945  22360137.90648
 -21514979.42048 -16764910.97646         0.00041  20335833.44746  20335833.75448
 97 03 27 01 23 30.0000000  0  6 05 06 10 17 24 30
 -18082364.18248 -14090145.77146         0.00041  20802233.93046  20802233.60748
 -11884701.37348  -9260798.35946         0.00041  21837219.96446  21837220.20248
 -10315297.97948  -8037888.30746         0.00041  21140353.61546  21140353.18448
   -265536.77448   -206910.70441         0.00041         0.00041  24155746.53748
   2155272.89448   1679439.72345         0.00041  22374563.34445  22374562.84148
 -21517791.91149 -16767102.53146         0.00041  20335298.23146  20335298.71649
 97 03 27 01 24 00.0000000  0  6 05 06 10 17 24 30
 -18026003.24548 -14046228.16846         0.00041  20812958.99446  20812958.58748
 -11943371.64448  -9306515.43146         0.00041  21826055.78446  21826055.88948
 -10321023.78348  -8042349.95546         0.00041  21139264.06046  21139263.63048
   -354239.00147         0.00041         0.00041         0.00041  24138795.96847
   2230649.24548   1738174.53645         0.00041  22388907.50445  22388906.54448
 -21520532.63149 -16769238.16446         0.00041  20334776.82046  20334777.28349
 97 03 27 01 24 30.0000000  0  6 05 06 10 17 24 30
 -17969148.13748 -14001925.50446         0.00041  20823778.04646  20823777.62648
 -12001905.36548  -9352126.10046         0.00041  21814916.79746  21814916.95548
 -10326133.12248  -8046331.24346         0.00041  21138291.56446  21138291.44748
   -442399.21647         0.00041         0.00041         0.00041  24121877.82347
   2306138.76948   1796997.54345         0.00041  22403272.17245  22403271.43148
 -21522668.06149 -16770902.14246         0.00041  20334370.34946  20334370.85649
 97 03 27 01 25 00.0000000  0  5 05 06 10 24 30
 -17911625.09748 -13957102.37246         0.00041  20834724.43046  20834723.93348
 -12060149.00748  -9397510.74946         0.00041  21803833.00046  21803833.50648
 -10330472.99848  -8049712.95146         0.00041  21137465.71046  21137465.17848
   2381908.89048   1856039.19245         0.00041  22417690.71845  22417690.30648
 -21524045.13649 -16771975.19246         0.00041  20334108.27146  20334108.86549
 97 03 27 01 25 30.0000000  0  6 05 06 10 17 24 30
 -17853600.05148 -13911888.06646         0.00041  20845766.05046  20845765.75348
 -12118282.59948  -9442809.63346         0.00041  21792770.94946  21792770.94848
 -10334213.57348  -8052627.65846         0.00041  21136754.11846  21136753.61148
        -1.13058        -0.65254         0.00051  24088209.46154  24088206.77258
   2457796.96648   1915172.76045         0.00041  22432132.06145  22432131.08148
 -21524839.99449 -16772594.56946         0.00041  20333957.03846  20333957.35149
 97 03 27 01 26 00.0000000  0  6 05 06 10 17 24 30
 -17795173.84948 -13866361.16346         0.00041  20856884.12846  20856883.92248
 -12176414.75748  -9488107.40446         0.00041  21781708.86546  21781708.97048
 -10337440.60048  -8055142.20246         0.00041  21136140.09646  21136139.63548
    -88270.72248    -68782.09844         0.00041  24071411.05044  24071409.12848
   2533714.17448   1974329.01745         0.00041  22446578.03145  22446577.57948
 -21525151.82449 -16772837.55646         0.00041  20333897.79846  20333898.03449
 97 03 27 01 26 30.0000000  0  6 05 06 10 17 24 30
 -17736199.27448 -13820406.94046         0.00041  20868106.50446  20868106.48648
 -12234381.98848  -9533276.66346         0.00041  21770677.90446  21770678.11348
 -10339995.36448  -8057132.90446         0.00041  21135653.59946  21135653.13948
   -176271.22348   -137353.88944         0.00041  24054665.15444  24054663.37948
   2609816.85148   2033629.79645         0.00041  22461060.40045  22461059.36748
 -21524805.01249 -16772567.31746         0.00041  20333963.59446  20333964.07149
 97 03 27 01 27 00.0000000  0  6 05 06 10 17 24 30
 -17676620.25348 -13773981.70946         0.00041  20879444.29946  20879443.94548
 -12292122.17448  -9578269.00046         0.00041  21759690.77446  21759690.35448
 -10341811.84548  -8058548.31846         0.00041  21135307.97546  21135307.63348
   -263936.96548   -205664.87644         0.00041  24037980.70644  24037980.85248
   2686144.22748   2093105.67245         0.00041  22475584.23145  22475584.07648
 -21523743.05149 -16771739.82546         0.00041  20334165.75646  20334166.19249
 97 03 27 01 27 30.0000000  0  6 05 06 10 17 24 30
 -17616492.62648 -13727129.02146         0.00041  20890886.04046  20890886.01148
 -12349669.71548  -9623111.21546         0.00041  21748739.81846  21748739.67448
 -10342934.94048  -8059423.43146         0.00041  21135094.14446  21135093.82048
   -351335.16048   -273767.27844         0.00041  24021350.92744  24021349.83948
   2762647.09748   2152718.30345         0.00041  22490142.87345  22490142.26048
 -21521997.48649 -16770379.64646         0.00041  20334498.06746  20334498.65049
 97 03 27 01 28 00.0000000  0  6 05 06 10 17 24 30
 -17555846.71048 -13679872.49646         0.00041  20902426.42646  20902426.44348
 -12407045.77548  -9667819.81346         0.00041  21737821.37746  21737821.05848
 -10343412.29148  -8059795.36446         0.00041  21135003.61146  21135003.35648
   -438502.93148   -341690.21144         0.00041  24004763.41144  24004762.11648
   2839287.33048   2212437.97445         0.00041  22504727.13945  22504726.58148
 -21519589.81148 -16768503.53846         0.00041  20334956.20946  20334956.72248
 97 03 27 01 28 30.0000000  0  6 05 06 10 17 24 30
 -17494675.09248 -13632206.33246         0.00041  20914067.44646  20914067.29048
 -12464226.59948  -9712376.28846         0.00041  21726940.12146  21726939.90548
 -10343233.63548  -8059656.13546         0.00041  21135037.74946  21135037.08948
   -525413.01748   -409412.35444         0.00041  23988226.72544  23988223.87748
   2916079.47348   2272275.98645         0.00041  22519340.95145  22519339.41248
 -21516487.95249 -16766086.51346         0.00041  20335546.50546  20335547.06449
 97 03 27 01 29 00.0000000  0  6 05 06 10 17 24 30
 -17433004.23348 -13584151.12446         0.00041  20925802.88146  20925802.58448
 -12521248.19848  -9756808.69546         0.00041  21716088.94546  21716089.50848
 -10342424.84248  -8059025.88646         0.00041  21135191.21746  21135190.78448
   -612100.56248   -476961.05044         0.00041  23971730.98444  23971727.77548
   2992994.18348   2332209.52045         0.00041  22533976.84245  22533975.55848
 -21512721.99049 -16763152.00046         0.00041  20336263.12046  20336263.53249
 97 03 27 01 29 30.0000000  0  6 05 06 10 17 24 30
 -17370819.96348 -13535695.84546         0.00041  20937636.17846  20937635.83148
 -12578097.13348  -9801106.55346         0.00041  21705271.50746  21705271.28048
 -10340967.60848  -8057890.35746         0.00041  21135468.78846  21135468.31148
   -698536.55348   -544313.75144         0.00041  23955282.84944  23955279.75648
   3070056.90248   2392258.39645         0.00041  22548640.65145  22548640.54648
 -21508275.66549 -16759687.33846         0.00041  20337109.28446  20337109.70949
 97 03 27 01 30 00.0000000  0  6 05 06 10 17 24 30
 -17308171.23248 -13486878.66446         0.00041  20949557.84646  20949557.36748
 -12634843.03248  -9845324.11846         0.00041  21694472.93046  21694472.88848
 -10338923.29248  -8056297.35546         0.00041  21135857.86446  21135857.45548
   -784760.53748   -611501.22244         0.00041  23938873.26744  23938871.49848
   3147192.54648   2452364.10545         0.00041  22563319.53945  22563319.04548
 -21503219.94048 -16755747.81546         0.00041  20338071.18046  20338071.57848
 97 03 27 01 30 30.0000000  0  6 05 06 10 17 24 30
 -17245054.82648 -13437697.07246         0.00041  20961568.51546  20961568.22448
 -12691496.67248  -9889469.79746         0.00041  21683691.99546  21683691.98648
 -10336278.80848  -8054236.70346         0.00041  21136360.72846  21136360.34048
   -870771.28048   -678522.54644         0.00041  23922506.12044  23922504.16348
   3224390.93448   2512518.68345         0.00041  22578010.60545  22578009.41548
 -21497562.42648 -16751339.36446         0.00041  20339147.87246  20339148.25148
 97 03 27 01 31 00.0000000  0  6 05 06 10 17 24 30
 -17181483.41048 -13388160.91146         0.00041  20973665.42646  20973665.26248
 -12748090.09248  -9933568.54546         0.00041  21672922.65546  21672922.62848
 -10333056.78348  -8051726.01246         0.00041  21136974.00146  21136973.59148
   -956605.61048   -745406.41244         0.00041  23906173.75644  23906170.18748
   3301617.71548   2572695.40445         0.00041  22592705.28945  22592705.30148
 -21491337.89848 -16746489.08146         0.00041  20340332.21446  20340332.78148
 97 03 27 01 31 30.0000000  0  6 05 06 10 17 24 30
 -17117422.73448 -13338243.50146         0.00041  20985856.08146  20985855.63448
 -12804599.17548  -9977601.57546         0.00041  21662168.98546  21662169.06648
 -10329214.54548  -8048732.04046         0.00041  21137705.11246  21137704.89648
  -1042231.80748   -812128.06844         0.00041  23889876.63244  23889876.12248
   3378918.84748   2632930.03445         0.00041  22607416.36245  22607415.32848
 -21484526.36548 -16741181.39646         0.00041  20341628.60946  20341628.94848
 97 03 27 01 32 00.0000000  0  6 05 06 10 17 24 30
 -17052790.57948 -13287880.79446         0.00041  20998155.43846  20998154.90948
 -12860932.66448 -10021497.78346         0.00041  21651449.47546  21651449.16348
 -10324657.56448  -8045181.13446         0.00041  21138572.27546  21138571.92848
  -1127576.29848   -878630.19544         0.00041  23873636.39444  23873635.71748
   3456388.88748   2693296.30645         0.00041  22622158.29745  22622156.75748
 -21477040.30648 -16735348.10446         0.00041  20343053.40446  20343053.52048
 97 03 27 01 32 30.0000000  0  6 05 06 10 17 24 30
 -16987519.98048 -13237020.61146         0.00041  21010575.89846  21010575.47548
 -12916995.56648 -10065183.14046         0.00041  21640781.27346  21640781.02648
 -10319292.55648  -8041000.59146         0.00041  21139593.18646  21139592.79848
  -1212553.84648   -944846.46444         0.00041  23857465.75844  23857465.37348
   3534133.40148   2753876.44945         0.00041  22636951.88045  22636951.43648
 -21468788.15348 -16728917.85746         0.00041  20344623.55446  20344623.85348
 97 03 27 01 33 00.0000000  0  6 05 06 10 17 24 30
 -16921862.93448 -13185859.29146         0.00041  21023070.11346  21023069.65248
 -12973033.50048 -10108849.05846         0.00041  21630116.89946  21630117.36748
 -10313364.14848  -8036381.04546         0.00041  21140720.92146  21140720.76448
  -1297410.95648  -1010968.84744         0.00041  23841317.69944  23841317.26448
   3611917.64448   2814487.54645         0.00041  22651753.40445  22651752.89848
 -21460027.06848 -16722091.04346         0.00041  20346290.67346  20346291.05448
 97 03 27 01 33 30.0000000  0  6 05 06 10 17 24 30
 -16855982.94248 -13134524.23146         0.00041  21035606.47046  21035606.19848
 -13029186.38748 -10152604.54046         0.00041  21619431.48746  21619431.67148
 -10307033.08348  -8031447.73346         0.00041  21141926.05646  21141925.89948
  -1382297.72048  -1077114.33944         0.00041  23825165.38144  23825163.87448
   3689590.48348   2875011.82945         0.00041  22666534.23945  22666533.64548
 -21450919.59348 -16714994.31346         0.00041  20348023.88046  20348024.11448
 97 03 27 01 34 00.0000000  0  6 05 06 10 17 24 30
 -16789815.44948 -13082965.14746         0.00041  21048197.55946  21048197.44048
 -13085356.95748 -10196373.80446         0.00041  21608742.43946  21608742.86448
 -10300246.95948  -8026159.82946         0.00041  21143217.29546  21143216.94948
  -1467134.65448  -1143220.97944         0.00041  23809020.15544  23809019.85648
   3767202.65248   2935488.85345         0.00041  22681303.41245  22681302.87548
 -21441381.82648 -16707562.30046         0.00041  20349838.51346  20349838.97348
 97 03 27 01 34 30.0000000  0  6 05 06 10 17 24 30
 -16723311.78748 -13031144.10346         0.00041  21060853.08446  21060852.59548
 -13141495.31748 -10240117.97546         0.00041  21598059.71146  21598060.07348
 -10292975.70548  -8020493.90046         0.00041  21144600.94746  21144600.45948
  -1551866.56848  -1209245.77644         0.00041  23792897.54644  23792895.40748
   3844786.40948   2995943.71145         0.00041  22696067.37945  22696066.42348
 -21431365.21248 -16699757.15646         0.00041  20351744.82446  20351745.12448
 97 03 27 01 35 00.0000000  0  6 05 06 10 17 24 30
 -16656434.30148 -12979031.75446         0.00041  21073579.25546  21073578.97148
 -13197565.44148 -10283808.96046         0.00041  21587390.26646  21587390.16148
 -10285178.92048  -8014418.46746         0.00041  21146084.77446  21146084.33448
  -1636472.34848  -1275172.36244         0.00041  23776796.07844  23776795.68548
   3922364.33248   3056394.04145         0.00041  22710829.18345  22710829.23148
 -21420830.93948 -16691548.63646         0.00041  20353749.55646  20353749.82048
 97 03 27 01 35 30.0000000  0  6 05 06 10 17 24 30
 -16589002.45148 -12926487.47546         0.00041  21086411.03446  21086410.72448
 -13253370.39848 -10327293.32546         0.00041  21576771.26746  21576770.95248
 -10276682.31748  -8007797.72946         0.00041  21147701.59946  21147701.19348
  -1720771.60048  -1340860.01944         0.00041  23760755.14144  23760754.05648
   4000107.49648   3116973.12645         0.00041  22725624.08745  22725623.34348
 -21409570.94249 -16682774.61946         0.00041  20355892.24246  20355892.59549
 97 03 27 01 36 00.0000000  0  6 05 06 10 17 24 30
 -16521049.06548 -12873536.81846         0.00041  21099342.06046  21099341.66148
 -13308960.59848 -10370610.35846         0.00041  21566192.43146  21566192.21448
 -10267512.12548  -8000652.11846         0.00041  21149446.53946  21149446.12648
  -1804800.24948  -1406336.85344         0.00041  23744767.48244  23744764.05048
   4077973.33948   3177647.79445         0.00041  22740441.33945  22740440.93148
 -21397603.75649 -16673449.54546         0.00041  20358169.40846  20358169.89749
 97 03 27 01 36 30.0000000  0  6 05 06 10 17 24 30
 -16452688.34848 -12820268.74846         0.00041  21112350.91846  21112350.28948
 -13364464.75948 -10413860.33846         0.00041  21555630.49146  21555630.35748
 -10257768.36948  -7993059.55946         0.00041  21151300.54246  21151300.23548
  -1888692.93048  -1471707.76044         0.00041  23728801.41844  23728800.00948
   4155849.95748   3238330.86245         0.00041  22755261.01945  22755260.20148
 -21385055.37049 -16663671.58946         0.00041  20360557.34346  20360557.76849
 97 03 27 01 37 00.0000000  0  6 05 06 10 17 24 30
 -16383871.34148 -12766645.08246         0.00041  21125446.28146  21125445.79048
 -13419835.26448 -10457006.16646         0.00041  21545093.30346  21545093.47048
 -10247410.30748  -7984988.32946         0.00041  21153271.67146  21153271.12148
  -1972416.81548  -1536947.10444         0.00041  23712869.78644  23712867.58248
   4233783.28848   3299058.12645         0.00041  22770091.70045  22770090.88648
 -21371885.40249 -16653409.28646         0.00041  20363063.39646  20363063.80649
 97 03 27 01 37 30.0000000  0  6 05 06 10 17 24 30
 -16314531.96348 -12712614.37446         0.00041  21138641.10946  21138640.78448
 -13475010.25748 -10499999.66346         0.00041  21534593.58546  21534593.89648
 -10236398.25148  -7976407.49246         0.00041  21155366.98246  21155366.49548
  -2055893.86448  -1601994.14544         0.00041  23696983.75844  23696982.75948
   4311825.92048   3359870.57045         0.00041  22784942.24245  22784941.64148
 -21358044.32448 -16642624.04046         0.00041  20365697.44646  20365697.86048
 97 03 27 01 38 00.0000000  0  6 05 06 10 17 24 30
 -16244695.05248 -12658196.02546         0.00041  21151930.46446  21151930.25148
 -13530005.95648 -10542853.44046         0.00041  21524128.44446  21524128.42648
 -10224732.74748  -7967317.48546         0.00041  21157587.12646  21157586.71948
  -2139129.30448  -1666852.85944         0.00041  23681143.87744  23681143.25748
   4389972.19648   3420763.77045         0.00041  22799812.88145  22799812.44648
 -21343568.81149 -16631344.43046         0.00041  20368451.69046  20368452.16649
 97 03 27 01 38 30.0000000  0  6 05 06 10 17 24 30
 -16174271.26448 -12603320.38146         0.00041  21165331.74046  21165331.53848
 -13584710.81348 -10585480.58246         0.00041  21513718.78646  21513718.63148
 -10212310.59548  -7957637.86946         0.00041  21159950.59246  21159950.31748
  -2222014.57248  -1731438.71244         0.00041  23665370.73544  23665370.66048
   4468326.12148   3481818.78945         0.00041  22814722.27345  22814721.74048
 -21328368.63949 -16619500.15346         0.00041  20371344.26446  20371344.91049
 97 03 27 01 39 00.0000000  0  6 05 06 10 17 24 30
 -16103343.02448 -12548051.66346         0.00041  21178829.13546  21178828.84748
 -13639204.31348 -10627943.04346         0.00041  21503348.47246  21503348.92148
 -10199216.22848  -7947434.45346         0.00041  21162442.62746  21162442.21948
  -2304597.47848  -1795789.04444         0.00041  23649657.82644  23649655.53048
   4546821.45348   3542983.96745         0.00041  22829659.71945  22829659.14248
 -21312506.56249 -16607140.10046         0.00041  20374362.95746  20374363.44149
 97 03 27 01 39 30.0000000  0  6 05 06 10 17 24 30
 -16031998.55348 -12492458.58246         0.00041  21192405.45046  21192405.04548
 -13693572.47948 -10670307.83646         0.00041  21493002.94046  21493003.16848
 -10185503.96148  -7936749.55946         0.00041  21165052.01646  21165051.94148
  -2386931.52048  -1859945.40944         0.00041  23633988.51944  23633987.64648
   4625388.18248   3604204.79245         0.00041  22844610.11545  22844610.04448
 -21296053.16049 -16594319.28046         0.00041  20377493.81346  20377494.18649
 97 03 27 01 40 00.0000000  0  6 05 06 10 17 24 30
 -15960276.62148 -12436571.37546         0.00041  21206053.97046  21206053.57348
 -13747858.56148 -10712608.66646         0.00041  21482672.91846  21482672.75548
 -10171199.29348  -7925603.05846         0.00041  21167773.90346  21167773.71048
  -2469053.81748  -1923936.76044         0.00041  23618363.15244  23618360.50648
   4704006.34748   3665465.68245         0.00041  22859571.35645  22859570.72148
 -21279026.50049 -16581051.76446         0.00041  20380733.85746  20380734.28349
 97 03 27 01 40 30.0000000  0  6 05 06 10 17 24 30
 -15888248.07548 -12380445.23746         0.00041  21219760.02846  21219760.33748
 -13802153.28348 -10754916.23246         0.00041  21472340.51446  21472340.94848
 -10156412.58448  -7914080.93646         0.00041  21170587.43246  21170587.50348
  -2551054.92448  -1987833.74345         0.00041  23602758.65845  23602756.27548
   4782582.55648   3726693.89845         0.00041  22874523.01945  22874523.21448
 -21261505.57349 -16567399.10146         0.00041  20384068.08046  20384068.37449
 97 03 27 01 41 00.0000000  0  6 05 06 10 17 24 30
 -15815920.82848 -12324086.34446         0.00041  21233524.13446  21233523.60248
 -13856483.14148 -10797251.16446         0.00041  21462002.28546  21462002.14748
 -10141179.12348  -7902210.68846         0.00041  21173486.95346  21173486.45348
  -2632968.06348  -2051662.09244         0.00041  23587169.35744  23587168.58548
   4861090.70648   3787869.09745         0.00041  22889463.39545  22889462.99548
 -21243513.49349 -16553379.30046         0.00041  20387491.68946  20387492.42349
 97 03 27 01 41 30.0000000  0  6 05 06 10 17 24 30
 -15743284.41848 -12267486.56346         0.00041  21247346.29946  21247345.86148
 -13910828.80748 -10839598.42546         0.00041  21451660.42146  21451660.41648
 -10125491.67548  -7889986.68146         0.00041  21176471.99846  21176471.59748
  -2714801.87448  -2115428.66144         0.00041  23571597.82944  23571596.07148
   4939517.96848   3848981.23345         0.00041  22904387.75845  22904387.44548
 -21225049.80349 -16538992.02246         0.00041  20391005.22746  20391005.94249
 97 03 27 01 42 00.0000000  0  6 05 06 10 17 24 30
 -15670225.12248 -12210557.26846         0.00041  21261248.51946  21261248.61048
 -13965077.94148 -10881870.45846         0.00041  21441336.98046  21441337.12548
 -10109255.53948  -7877335.13846         0.00041  21179561.62246  21179561.34348
  -2796459.82548  -2179058.17744         0.00041  23556058.88144  23556057.32648
   5017952.33948   3910098.94245         0.00041  22919313.75645  22919312.40648
 -21206017.12749 -16524161.38346         0.00041  20394627.06046  20394627.42149
 97 03 27 01 42 30.0000000  0  6 05 06 10 17 24 30
 -15596666.77348 -12153239.11846         0.00041  21275246.61346  21275246.19848
 -14019142.60948 -10923998.76546         0.00041  21431048.72046  21431049.18748
 -10092387.48948  -7864191.18746         0.00041  21182771.66346  21182771.27248
  -2877863.26348  -2242489.41644         0.00041  23540566.37944  23540567.10748
   5096457.97248   3971272.13745         0.00041  22934252.81445  22934252.38148
 -21186335.60349 -16508825.14346         0.00041  20398372.39546  20398372.83249
 97 03 27 01 43 00.0000000  0  6 05 06 10 17 24 30
 -15522537.93248 -12095476.40446         0.00041  21289352.51746  21289352.45148
 -14072934.23448 -10965914.30446         0.00041  21420812.56446  21420812.86548
 -10074780.88048  -7850471.73846         0.00041  21186121.91646  21186121.59248
  -2958920.90648  -2305651.17844         0.00041  23525143.64144  23525141.60048
   5175117.94048   4032565.63045         0.00041  22949220.79745  22949220.62348
 -21165911.96048 -16492910.61646         0.00041  20402259.05646  20402259.43448
 97 03 27 01 43 30.0000000  0  6 05 06 10 17 24 30
 -15447948.37648 -12037354.68046         0.00041  21303546.90746  21303546.54348
 -14126543.36648 -11007687.64346         0.00041  21410611.19446  21410611.25148
 -10056520.78648  -7836243.07946         0.00041  21189596.69446  21189596.32848
  -3039713.93648  -2368606.75144         0.00041  23509768.47944  23509767.27648
   5253844.81548   4093911.25945         0.00041  22964201.67645  22964201.16148
 -21144836.70449 -16476488.34046         0.00041  20406269.59746  20406269.90049
 97 03 27 01 44 00.0000000  0  6 05 06 10 17 24 30
 -15372960.21648 -11978922.33046         0.00041  21317816.36346  21317815.82648
 -14180031.18748 -11049366.44946         0.00041  21400432.66946  21400432.88848
 -10037664.51948  -7821549.87346         0.00041  21193184.69746  21193184.20548
  -3120297.30748  -2431398.93544         0.00041  23494434.42844  23494432.63048
   5332606.59848   4155284.04944         0.00041  22979189.95144  22979189.51648
 -21123159.14949 -16459596.73646         0.00041  20410394.53546  20410394.96449
 97 03 27 01 44 30.0000000  0  6 05 06 10 17 24 30
 -15297615.10948 -11920211.83846         0.00041  21332154.29346  21332153.54448
 -14233412.88748 -11090962.56846         0.00041  21390274.52246  21390274.47548
 -10018233.69748  -7806408.95946         0.00041  21196882.45646  21196881.99048
  -3200702.66948  -2494052.41844         0.00041  23479133.38244  23479131.84348
   5411392.58348   4216675.72245         0.00041  22994182.44545  22994181.80648
 -21100904.20449 -16442255.23046         0.00041  20414629.32746  20414629.83249
 97 03 27 01 45 00.0000000  0  6 05 06 10 17 24 30
 -15221871.35748 -11861190.71546         0.00041  21346567.40446  21346566.85048
 -14286639.37748 -11132437.74646         0.00041  21380146.00946  21380145.90848
  -9998182.97848  -7790785.00346         0.00041  21200698.03646  21200697.52748
  -3280882.30748  -2556530.04944         0.00041  23463876.65944  23463874.65548
   5490264.51948   4278134.37345         0.00041  23009190.42145  23009191.02848
 -21078033.86349 -16424434.19446         0.00041  20418981.48646  20418981.95449
 97 03 27 01 45 30.0000000  0  6 05 06 10 17 24 30
 -15145637.84948 -11801788.00346         0.00041  21361074.48046  21361074.06448
 -14339615.83448 -11173718.08846         0.00041  21370064.87646  21370064.99948
  -9977436.57648  -7774618.95746         0.00041  21204645.76746  21204645.47148
  -3360755.16948  -2618768.56944         0.00041  23448678.23444  23448675.44348
   5569311.88348   4339729.69345         0.00041  23024232.45745  23024232.85448
 -21054458.63149 -16406063.89446         0.00041  20423467.90946  20423468.42649
 97 03 27 01 46 00.0000000  0  6 05 06 10 17 24 30
 -15069080.18648 -11742132.71746         0.00041  21375643.04646  21375642.86348
 -14392508.13148 -11214932.85546         0.00041  21359999.58246  21360000.05548
  -9956170.80848  -7758048.21646         0.00041  21208692.38946  21208692.06048
  -3440507.55548  -2680913.22644         0.00041  23433501.22544  23433498.61048
   5648347.94748   4401316.25045         0.00041  23039274.11245  23039273.08648
 -21030350.70749 -16387278.50946         0.00041  20428055.41346  20428055.95149
 97 03 27 01 46 30.0000000  0  6 05 06 10 17 24 30
 -14992269.67348 -11682280.40646         0.00041  21390259.38846  21390259.28448
 -14445390.68048 -11256140.02846         0.00041  21349936.21646  21349936.64748
  -9934463.87948  -7741133.71346         0.00041  21212823.00846  21212822.58148
  -3520217.07848  -2743024.51344         0.00041  23418332.69244  23418330.48248
   5727271.57948   4462815.18244         0.00041  23054292.47544  23054292.10148
 -21005804.56749 -16368151.65546         0.00041  20432726.28746  20432726.76249
 97 03 27 01 47 00.0000000  0  6 05 06 10 17 24 30
 -14915164.24448 -11622198.28246         0.00041  21404932.30946  21404931.97448
 -14498237.97048 -11297319.71946         0.00041  21339879.90746  21339880.13548
  -9912294.78148  -7723859.07946         0.00041  21217041.93546  21217041.46648
  -3599847.53248  -2805074.18144         0.00041  23403178.43544  23403177.51648
   5806105.44148   4524244.16444         0.00041  23069294.08244  23069293.35348
 -20980789.50249 -16348659.40846         0.00041  20437486.55646  20437487.02149
 97 03 27 01 47 30.0000000  0  6 05 06 10 17 24 30
 -14837640.16548 -11561789.93146         0.00041  21419684.81346  21419684.46948
 -14550920.95948 -11338371.38746         0.00041  21329854.75246  21329855.19648
  -9889542.54948  -7706130.05346         0.00041  21221371.44246  21221371.05848
  -3679275.01848  -2866965.67144         0.00041  23388063.69844  23388062.71848
   5884955.25148   4585685.57444         0.00041  23084298.22544  23084297.82348
 -20955193.13849 -16328714.19746         0.00041  20442357.56946  20442358.02349
 97 03 27 01 48 00.0000000  0  6 05 06 10 17 24 30
 -14759683.29948 -11501044.34146         0.00041  21434519.09446  21434519.00548
 -14603434.79548 -11379291.25146         0.00041  21319861.51246  21319861.96348
  -9866188.83848  -7687932.34746         0.00041  21225815.56446  21225815.16748
  -3758480.92148  -2928684.51945         0.00041  23372991.75845  23372990.15548
   5963827.87648   4647144.78444         0.00041  23099307.43044  23099306.22848
 -20929015.23549 -16308315.83846         0.00041  20447338.93946  20447339.34849
 97 03 27 01 48 30.0000000  0  6 05 06 10 17 24 30
 -14681183.74548 -11439875.85846         0.00041  21449457.41846  21449456.92948
 -14655661.12548 -11419987.08246         0.00041  21309923.41246  21309923.82948
  -9842120.32848  -7669177.64146         0.00041  21230395.91946  21230395.36348
  -3837330.73248  -2990125.89544         0.00041  23357986.06344  23357985.60548
   6042842.59948   4708714.74644         0.00041  23114345.96044  23114343.03548
 -20902145.34648 -16287378.26946         0.00041  20452452.30346  20452452.54948
 97 03 27 01 49 00.0000000  0  6 05 06 10 17 24 30
 -14602248.20548 -11378367.64346         0.00041  21464477.95146  21464477.70648
 -14707698.40648 -11460535.60546         0.00041  21300020.99246  21300021.19948
  -9817429.87248  -7649938.31546         0.00041  21235094.25646  21235093.88548
  -3915922.54848  -3051366.23744         0.00041  23343031.46244  23343030.37348
   6121903.58848   4770320.44244         0.00041  23129387.30544  23129388.06248
 -20874671.09248 -16265969.76646         0.00041  20457680.36746  20457680.73648
 97 03 27 01 49 30.0000000  0  6 05 06 10 17 24 30
 -14522987.08648 -11316605.73246         0.00041  21479561.20946  21479560.82748
 -14759657.92048 -11501023.52546         0.00041  21290133.34546  21290133.65248
  -9792216.10348  -7630291.21446         0.00041  21239891.87446  21239891.49848
  -3994373.84248  -3112497.09845         0.00041  23328101.76145  23328101.43348
   6200908.29448   4831881.71444         0.00041  23144420.48744  23144421.98748
 -20846699.40649 -16244173.65146         0.00041  20463003.19246  20463003.54949
 97 03 27 01 50 00.0000000  0  6 05 06 10 17 24 30
 -14443380.31548 -11254574.49246         0.00041  21494709.51846  21494709.47548
 -14811525.00848 -11541439.43346         0.00041  21280263.09746  21280263.56648
  -9766463.06548  -7610223.90246         0.00041  21244792.57846  21244792.39748
  -4072661.14648  -3173500.14245         0.00041  23313204.88045  23313203.78148
   6279883.95548   4893421.20644         0.00041  23159450.49744  23159450.56148
 -20818195.91649 -16221963.14346         0.00041  20468427.35546  20468427.51449
 97 03 27 01 50 30.0000000  0  6 05 06 10 17 24 30
 -14363278.44348 -11192157.44246         0.00041  21509952.94546  21509952.21248
 -14863138.74748 -11581657.91946         0.00041  21270441.60446  21270441.94548
  -9740000.77348  -7589603.92046         0.00041  21249828.55446  21249828.14048
  -4150621.95948  -3234248.80245         0.00041  23298369.34045  23298367.82248
   6359004.73548   4955073.76744         0.00041  23174506.50844  23174506.34948
 -20788995.59048 -16199209.65246         0.00041  20473983.68446  20473983.93648
 97 03 27 01 51 00.0000000  0  6 05 06 10 17 24 30
 -14282735.98048 -11129397.06046         0.00041  21525279.57446  21525278.82848
 -14914557.72448 -11621724.64446         0.00041  21260656.57246  21260657.03848
  -9712879.17348  -7568470.19046         0.00041  21254989.56246  21254989.12548
  -4228319.97948  -3294792.66444         0.00041  23283583.16644  23283582.45248
   6438224.93448   5016803.78744         0.00041  23189582.15444  23189581.76948
 -20759145.61249 -16175949.93746         0.00041  20479663.99346  20479664.59549
 97 03 27 01 51 30.0000000  0  6 05 06 10 17 24 30
 -14201732.06748 -11066277.12046         0.00041  21540693.70746  21540693.21748
 -14965764.09048 -11661625.70146         0.00041  21250912.55446  21250912.62848
  -9685085.69548  -7546812.93246         0.00041  21260278.03546  21260277.95548
  -4305726.75048  -3355109.59445         0.00041  23268854.88445  23268852.68848
   6517572.77148   5078633.26944         0.00041  23204681.03944  23204681.17448
 -20728625.00949 -16152167.65746         0.00041  20485471.89646  20485472.45549
 97 03 27 01 52 00.0000000  0  6 05 06 10 17 24 30
 -14120374.70148 -11002881.76746         0.00041  21556175.55846  21556174.93748
 -15016854.78048 -11701436.61246         0.00041  21241190.29246  21241190.63848
  -9656726.46148  -7524714.81946         0.00041  21265674.73346  21265674.36148
  -4382922.41648  -3415262.02745         0.00041  23254164.27545  23254162.94348
   6596948.08148   5140484.13844         0.00041  23219786.53944  23219785.98448
 -20697535.26149 -16127941.89446         0.00041  20491388.20346  20491388.71149
 97 03 27 01 52 30.0000000  0  6 05 06 10 17 24 30
 -14038695.29048 -10939235.49046         0.00041  21571718.79246  21571718.30648
 -15067849.83048 -11741173.00546         0.00041  21231486.35146  21231486.61848
  -9627827.05048  -7502195.78546         0.00041  21271173.83746  21271173.70848
  -4459928.26848  -3475266.53645         0.00041  23239511.23145  23239509.18948
   6676328.25748   5202338.81044         0.00041  23234891.93844  23234891.49848
 -20665903.54049 -16103293.81346         0.00041  20497407.61446  20497408.04749
 97 03 27 01 53 00.0000000  0  6 05 06 10 17 24 30
 -13956648.51948 -10875302.97346         0.00041  21587331.64246  21587331.30548
 -15118700.04948 -11780796.54146         0.00041  21221809.97946  21221810.29048
  -9598368.95848  -7479241.41946         0.00041  21276779.33946  21276779.37048
  -4536705.26948  -3535092.75445         0.00041  23224899.70545  23224898.82848
   6755736.61948   5264215.43344         0.00041  23250002.78044  23250002.14748
 -20633697.04349 -16078197.84946         0.00041  20503536.28346  20503536.63349
 97 03 27 01 53 30.0000000  0  6 05 06 10 17 24 30
 -13874271.91448 -10811113.43546         0.00041  21603007.42246  21603006.92948
 -15169425.53648 -11820322.87846         0.00041  21212157.20546  21212157.38848
  -9568399.43548  -7455888.53346         0.00041  21282483.19046  21282482.70548
  -4613277.22748  -3594759.17445         0.00041  23210328.30645  23210327.51448
   6835137.16248   5326086.00344         0.00041  23265113.25344  23265111.55648
 -20600946.96649 -16052678.31146         0.00041  20509768.37246  20509768.72449
 97 03 27 01 54 00.0000000  0  6 05 06 10 17 24 30
 -13791534.76448 -10746642.95046         0.00041  21618752.06546  21618751.58648
 -15219968.98548 -11859707.37546         0.00041  21202538.79946  21202539.30448
  -9537883.05748  -7432109.52546         0.00041  21288289.71146  21288289.52248
  -4689613.12948  -3654241.67144         0.00041  23195801.67344  23195801.22648
   6914552.26648   5387967.88344         0.00041  23280224.32944  23280223.45448
 -20567615.19249 -16026705.50846         0.00041  20516111.44446  20516111.77649
 97 03 27 01 54 30.0000000  0  6 05 06 10 17 24 30
 -13708461.99148 -10681910.92646         0.00041  21634560.27046  21634559.81448
 -15270332.98948 -11898952.04046         0.00041  21192955.12046  21192955.48748
  -9506839.98848  -7407920.11046         0.00041  21294196.67446  21294196.58148
  -4765761.94248  -3713578.36844         0.00041  23181311.87744  23181310.66948
   6993947.59048   5449834.38144         0.00041  23295332.56844  23295331.30948
 -20533721.00949 -16000294.46046         0.00041  20522561.21546  20522561.75049
 97 03 27 01 55 00.0000000  0  6 05 06 10 17 24 30
 -13624988.11448 -10616866.33846         0.00041  21650444.51146  21650444.30148
 -15320442.27848 -11937998.23046         0.00041  21183419.33546  21183419.88248
  -9475213.99548  -7383276.47046         0.00041  21300215.31346  21300214.95548
  -4841675.53348  -3772731.80345         0.00041  23166865.12645  23166864.71548
   7073381.37048   5511730.81444         0.00041  23310447.55444  23310447.58548
 -20499207.84949 -15973401.09746         0.00041  20529128.82546  20529129.25349
 97 03 27 01 55 30.0000000  0  6 05 06 10 17 24 30
 -13541206.93948 -10551582.28846         0.00041  21666388.14646  21666387.61548
 -15370383.19348 -11976913.21646         0.00041  21173916.32246  21173916.49148
  -9443085.08748  -7358240.94446         0.00041  21306329.03146  21306328.79548
  -4917447.70748  -3831774.98544         0.00041  23152447.10444  23152445.55948
   7152769.36748   5573591.58744         0.00041  23325555.91044  23325554.67648
 -20464159.54449 -15946090.73346         0.00041  20535798.19046  20535798.68149
 97 03 27 01 56 00.0000000  0  6 05 06 10 17 24 30
 -13457108.47748 -10486051.00246         0.00041  21682391.45146  21682391.08748
 -15420159.42748 -12015699.87746         0.00041  21164444.10746  21164444.20348
  -9410424.16848  -7332790.87146         0.00041  21312544.31446  21312544.00248
  -4993070.31948  -3890701.66044         0.00041  23138056.21144  23138055.15248
   7232120.36748   5635423.51544         0.00041  23340655.12144  23340654.87948
 -20428577.44549 -15918364.43646         0.00041  20542569.28846  20542569.58749
 97 03 27 01 56 30.0000000  0  6 05 06 10 17 24 30
 -13372582.70248 -10420186.74046         0.00041  21698475.80146  21698475.45948
 -15469673.68648 -12054282.40946         0.00041  21155021.83646  21155022.18348
  -9377120.14648  -7306839.67446         0.00041  21318881.98146  21318881.74648
  -5068419.45348  -3949415.26145         0.00041  23123717.65545  23123716.98148
   7311559.04648   5697323.80744         0.00041  23355772.67544  23355771.43248
 -20392357.99248 -15890141.49946         0.00041  20549461.58246  20549462.01048
 97 03 27 01 57 00.0000000  0  6 05 06 10 17 24 30
 -13287736.69248 -10354072.95846         0.00041  21714621.75446  21714621.36548
 -15519067.05948 -12092770.74846         0.00041  21145622.43746  21145622.86948
  -9343288.40848  -7280477.26946         0.00041  21325320.11946  21325319.58448
  -5143571.71248  -4007975.41945         0.00041  23109416.95045  23109415.81548
   7390977.78548   5759208.54844         0.00041  23370885.43144  23370884.43848
 -20355614.17648 -15861509.96546         0.00041  20556453.92846  20556454.05848
 97 03 27 01 57 30.0000000  0  6 05 06 10 17 24 30
 -13202494.60548 -10287650.56246         0.00041  21730842.65846  21730841.99948
 -15568282.94748 -12131120.77946         0.00041  21136257.15646  21136257.47348
  -9308828.54548  -7253625.42446         0.00041  21331877.44046  21331877.06148
  -5218422.27648  -4066300.49745         0.00041  23095172.78745  23095172.11048
   7470456.49748   5821140.00444         0.00041  23386010.08244  23386009.43548
 -20318249.69348 -15832394.79146         0.00041  20563563.98546  20563564.31548
 97 03 27 01 58 00.0000000  0  6 05 06 10 17 24 30
 -13116920.91948 -10220969.79446         0.00041  21747126.38346  21747125.93948
 -15617390.79148 -12169386.61846         0.00041  21126912.04246  21126912.33248
  -9273799.36048  -7226329.94246         0.00041  21338543.24246  21338542.93248
  -5293029.97748  -4124436.33545         0.00041  23080977.10945  23080974.27748
   7549925.57448   5883063.95244         0.00041  23401132.82944  23401131.49048
 -20280322.64249 -15802841.25546         0.00041  20570781.12346  20570781.74649
 97 03 27 01 58 30.0000000  0  6 05 06 10 17 24 30
 -13030996.68448 -10154015.88046         0.00041  21763477.15246  21763476.74048
 -15666377.83048 -12207558.32146         0.00041  21117589.81046  21117590.16748
  -9238196.06948  -7198587.11446         0.00041  21345318.13146  21345317.72048
  -5367386.78548  -4182376.65845         0.00041  23066826.99145  23066825.17148
   7629402.51648   5944994.04244         0.00041  23416256.78544  23416255.55648
 -20241813.87149 -15772834.41846         0.00041  20578109.15646  20578109.68349
 97 03 27 01 59 00.0000000  0  6 05 06 10 17 24 30
 -12944763.99548 -10086821.60946         0.00041  21779886.95246  21779886.56848
 -15715293.97148 -12245674.78246         0.00041  21108281.71546  21108282.01248
  -9202063.84948  -7170432.12746         0.00041  21352193.74346  21352193.76648
  -5441553.46648  -4240168.83645         0.00041  23052712.46345  23052711.68348
   7708833.03948   6006887.96244         0.00041  23431370.55644  23431370.75148
 -20202766.98849 -15742408.27746         0.00041  20585539.60046  20585540.15149
 97 03 27 01 59 30.0000000  0  6 05 06 10 17 24 30
 -12858210.04548 -10019376.98346         0.00041  21796357.38346  21796357.01748
 -15764098.37948 -12283704.18446         0.00041  21098994.57646  21098994.80348
  -9165379.54448  -7141846.94746         0.00041  21359174.62046  21359174.34948
  -5515543.38748  -4297823.27245         0.00041  23038633.24345  23038631.76448
   7788236.46848   6068760.77544         0.00041  23446482.27744  23446480.84948
 -20163173.98748 -15711556.59546         0.00041  20593073.88946  20593074.31848
 97 03 27 02 00 00.0000000  0  6 05 06 10 17 24 30
 -12771306.29348  -9951659.76946         0.00041  21812895.32146  21812894.69848
 -15812732.49948 -12321600.89846         0.00041  21089739.35146  21089739.77048
  -9128135.19448  -7112825.36846         0.00041  21366262.20946  21366262.04848
  -5589340.26448  -4355327.31245         0.00041  23024590.77245  23024588.68848
   7867644.89748   6130637.46944         0.00041  23461589.49444  23461591.27748
 -20123017.97448 -15680266.20646         0.00041  20600715.25846  20600715.68148
 97 03 27 02 00 30.0000000  0  6 05 06 10 17 24 30
 -12684001.77048  -9883630.27446         0.00041  21829508.27046  21829507.85348
 -15861128.55648 -12359312.09746         0.00041  21080530.40346  21080530.67648
  -9090290.31348  -7083335.83946         0.00041  21373464.13246  21373463.69848
  -5662881.62848  -4412632.26145         0.00041  23010595.49045  23010594.05148
   7947131.52248   6192575.08744         0.00041  23476717.00544  23476717.02448
 -20082244.93648 -15648495.02446         0.00041  20608474.18746  20608474.51448
 97 03 27 02 01 00.0000000  0  6 05 06 10 17 24 30
 -12596389.51448  -9815360.98846         0.00041  21846180.53946  21846180.10548
 -15909350.21348 -12396887.39746         0.00041  21071354.13646  21071354.20448
  -9051931.19048  -7053445.60346         0.00041  21380763.25946  21380762.95248
  -5736244.31848  -4469797.95945         0.00041  22996634.28445  22996633.67948
   8026602.73548   6254500.67844         0.00041  23491841.38244  23491840.15648
 -20040939.01048 -15616308.60946         0.00041  20616334.38546  20616334.88448
 97 03 27 02 01 30.0000000  0  6 05 06 10 17 24 30
 -12508469.32448  -9746851.77046         0.00041  21862911.14646  21862910.73048
 -15957380.35448 -12434313.46846         0.00041  21062213.99646  21062214.33848
  -9013062.53548  -7023158.33946         0.00041  21388159.88946  21388159.42048
  -5809408.36948  -4526808.87545         0.00041  22982711.40145  22982710.94448
   8106058.18448   6316414.04544         0.00041  23506960.27544  23506959.35248
 -19999095.48348 -15583703.27046         0.00041  20624297.02146  20624297.47748
 97 03 27 02 02 00.0000000  0  6 05 06 10 17 24 30
 -12420309.43648  -9678155.76046         0.00041  21879687.34046  21879687.02648
 -16005282.70248 -12471639.96546         0.00041  21053098.80046  21053099.17148
  -8973757.20848  -6992530.81346         0.00041  21395639.04346  21395639.03148
  -5882417.25148  -4583698.88945         0.00041  22968819.14445  22968817.89648
   8185432.49948   6378264.13644         0.00041  23522063.73844  23522064.05748
 -19956775.29148 -15550726.50646         0.00041  20632350.28946  20632350.55348
 97 03 27 02 02 30.0000000  0  6 05 06 10 17 24 30
 -12331858.25648  -9609232.76746         0.00041  21896519.16146  21896518.83948
 -16053015.51348 -12508834.35046         0.00041  21044015.15646  21044015.43648
  -8933949.69348  -6961511.96446         0.00041  21403214.13546  21403214.10248
  -5955220.74848  -4640428.85145         0.00041  22954964.48945  22954963.83248
   8264767.93848   6440083.96744         0.00041  23537162.51244  23537161.06948
 -19913932.94749 -15517342.86546         0.00041  20640502.90446  20640503.32949
 97 03 27 02 03 00.0000000  0  6 05 06 10 17 24 30
 -12243014.53148  -9540003.88946         0.00041  21913425.67046  21913425.52348
 -16100476.76748 -12545817.14046         0.00041  21034983.71246  21034984.05248
  -8893521.90448  -6930009.78946         0.00041  21410907.83446  21410907.46948
  -6027721.16748  -4696922.66545         0.00041  22941168.37045  22941167.21048
   8344145.97848   6501936.96144         0.00041  23552265.88344  23552266.01348
 -19870483.84348 -15483486.42746         0.00041  20648771.37046  20648771.40048
 97 03 27 02 03 30.0000000  0  6 05 06 10 17 24 30
 -12153856.30948  -9470529.94746         0.00041  21930392.27146  21930391.75348
 -16147735.36448 -12582642.01646         0.00041  21025990.50446  21025990.79248
  -8852541.96848  -6898077.36746         0.00041  21418705.88246  21418705.53748
  -6099995.60948  -4753240.38245         0.00041  22927414.69145  22927413.79348
   8423501.73448   6563772.60444         0.00041  23567366.60244  23567366.95148
 -19826500.21848 -15449213.48646         0.00041  20657140.90146  20657141.09048
 97 03 27 02 04 00.0000000  0  6 05 06 10 17 24 30
 -12064414.63348  -9400835.14646         0.00041  21947412.09946  21947411.46648
 -16194821.76448 -12619332.70146         0.00041  21017030.35946  21017030.91848
  -8811026.28948  -6865727.48846         0.00041  21426605.67846  21426605.34848
  -6172074.72248  -4809405.89345         0.00041  22913698.66145  22913697.53148
   8502824.10148   6625582.27944         0.00041  23582461.29144  23582462.21148
 -19782006.68749 -15414543.21646         0.00041  20665607.63946  20665607.88449
 97 03 27 02 04 30.0000000  0  6 05 06 10 17 24 30
 -11974582.65248  -9330836.20646         0.00041  21964505.79046  21964505.83748
 -16241642.87948 -12655816.66646         0.00041  21008120.57946  21008120.90048
  -8768864.60348  -6832874.21446         0.00041  21434628.92846  21434628.71448
  -6243857.42048  -4865340.42845         0.00041  22900039.16145  22900037.77248
   8582216.22148   6687446.23244         0.00041  23597570.36844  23597569.63448
 -19736902.12249 -15379396.81146         0.00041  20674190.56746  20674191.08549
 97 03 27 02 05 00.0000000  0  6 05 06 10 17 24 30
 -11884360.91148  -9260533.56146         0.00041  21981675.28046  21981674.84348
 -16288204.81648 -12692098.67846         0.00041  20999260.09546  20999260.47548
  -8726071.89348  -6799529.23946         0.00041  21442771.78146  21442771.76148
  -6315337.60248  -4921039.24045         0.00041  22886436.63045  22886435.81348
   8661676.81148   6749363.54444         0.00041  23612692.78844  23612690.74748
 -19691185.26149 -15343773.29746         0.00041  20682890.55446  20682890.86349
 97 03 27 02 05 30.0000000  0  6 05 06 10 17 24 30
 -11793848.15148  -9190004.13646         0.00041  21998899.97346  21998899.00748
 -16334623.17548 -12728268.81846         0.00041  20990426.79946  20990427.20748
  -8682763.35048  -6765782.31446         0.00041  21451013.36946  21451013.14348
  -6386613.77948  -4976579.09445         0.00041  22872873.75245  22872872.51448
   8741107.23348   6811257.42244         0.00041  23627806.86544  23627805.79448
 -19644943.81848 -15307741.01346         0.00041  20691689.85946  20691690.16848
 97 03 27 02 06 00.0000000  0  6 05 06 10 17 24 30
 -11702963.64248  -9119185.05146         0.00041  22016193.98546  22016193.58448
 -16380828.86848 -12764273.24746         0.00041  20981634.32446  20981634.71848
  -8638865.76448  -6731576.40246         0.00041  21459366.95346  21459366.53948
  -6457606.77848  -5031898.28045         0.00041  22859364.01645  22859363.13848
   8820575.06048   6873180.38144         0.00041  23642928.36544  23642928.26948
 -19598104.81548 -15271243.09246         0.00041  20700602.92446  20700603.26448
 97 03 27 02 06 30.0000000  0  6 05 06 10 17 24 30
 -11611803.38348  -9048151.09946         0.00041  22033540.91246  22033540.60948
 -16426907.12748 -12800178.37646         0.00041  20972865.97646  20972866.31948
  -8594484.09248  -6696993.27146         0.00041  21467812.93846  21467812.35048
  -6528415.82748  -5087074.13945         0.00041  22845889.53945  22845888.22548
   8899972.94748   6935048.85744         0.00041  23658036.75144  23658037.12448
 -19550774.28549 -15234362.16746         0.00041  20709609.96246  20709610.19849
 97 03 27 02 07 00.0000000  0  6 05 06 10 17 24 30
 -11520326.87148  -8976870.70246         0.00041  22050948.67146  22050948.32948
 -16472802.94048 -12835941.34046         0.00041  20964132.00146  20964132.37048
  -8549591.07848  -6662011.69646         0.00041  21476355.31246  21476355.15648
  -6599008.38448  -5142081.29745         0.00041  22832455.94345  22832454.82948
   8979342.30148   6996895.09844         0.00041  23673140.05144  23673140.47148
 -19502907.12949 -15197063.10546         0.00041  20718718.62246  20718718.92049
 97 03 27 02 07 30.0000000  0  6 05 06 10 17 24 30
 -11428533.68948  -8905343.56246         0.00041  22068416.52746  22068415.89148
 -16518487.08648 -12871539.36846         0.00041  20955438.96946  20955439.29748
  -8504170.98248  -6626619.39946         0.00041  21484998.39746  21484998.43148
  -6669381.51348  -5196917.47345         0.00041  22819063.92945  22819063.57748
   9058709.00448   7058739.30444         0.00041  23688243.79244  23688243.80648
 -19454478.38048 -15159326.42846         0.00041  20727934.28646  20727934.65448
 97 03 27 02 08 00.0000000  0  6 05 06 10 17 24 30
 -11336388.03848  -8833541.76646         0.00041  22085950.81046  22085950.25548
 -16563900.66448 -12906926.56346         0.00041  20946797.26146  20946797.26948
  -8458178.44448  -6590781.05546         0.00041  21493749.98946  21493750.43948
  -6739497.83148  -5251553.54445         0.00041  22805722.13545  22805720.67648
   9138121.03548   7120618.79644         0.00041  23703356.27144  23703355.10748
 -19405448.55148 -15121121.37146         0.00041  20737264.60346  20737264.61148
 97 03 27 02 08 30.0000000  0  7 05 06 10 17 24 26 30
 -11243980.40348  -8761535.82745         0.00041  22103535.66645  22103535.27048
 -16609123.19748 -12942164.88646         0.00041  20938191.36846  20938191.68348
  -8411701.46248  -6554565.22046         0.00041  21502595.19346  21502594.69148
  -6809438.88048  -5306053.03845         0.00041  22792412.79445  22792411.23248
   9217503.74348   7182475.46344         0.00041  23718462.41044  23718460.84548
        -0.21857         0.00051         0.00051         0.00051  24867444.65057
 -19355894.51548 -15082507.84146         0.00041  20746694.38046  20746694.34048
 97 03 27 02 09 00.0000000  0  7 05 06 10 17 24 26 30
 -11151286.20548  -8689306.61646         0.00041  22121174.60746  22121174.49348
 -16654129.82948 -12977234.98646         0.00041  20929626.78846  20929627.23648
  -8364691.61848  -6517934.16246         0.00041  21511540.46846  21511540.12348
  -6879164.71548  -5360384.82845         0.00041  22779143.68745  22779142.59448
   9296895.47948   7244339.09544         0.00041  23733569.37144  23733568.34048
    -77939.69147         0.00041         0.00041         0.00041  24852613.36447
 -19305775.86848 -15043454.35146         0.00041  20756231.65546  20756231.79448
 97 03 27 02 09 30.0000000  0  7 05 06 10 17 24 26 30
 -11058348.38848  -8616887.58246         0.00041  22138860.26846  22138859.62248
 -16698949.80748 -13012159.63346         0.00041  20921097.82346  20921098.17148
  -8317172.24248  -6480906.05146         0.00041  21520582.84246  21520582.71648
  -6948697.66048  -5414566.32045         0.00041  22765911.74745  22765910.99248
   9376266.76848   7306186.88444         0.00041  23748673.43644  23748671.70048
   -155959.01147         0.00041         0.00041         0.00041  24837766.52747
 -19255124.18148 -15003985.50646         0.00041  20765870.43546  20765870.41148
 97 03 27 02 10 00.0000000  0  7 05 06 10 17 24 26 30
 -10965122.11648  -8544243.76146         0.00041  22156600.30146  22156599.81648
 -16743549.31548 -13046912.49346         0.00041  20912610.95146  20912611.22748
  -8269112.22548  -6443456.69546         0.00041  21529728.29746  21529728.43848
  -7017982.74548  -5468554.67045         0.00041  22752727.85445  22752726.60248
   9455653.56248   7368046.74244         0.00041  23763778.71344  23763779.74448
   -234024.41947         0.00041         0.00041         0.00041  24822910.82447
 -19203921.19449 -14964087.08746         0.00041  20775613.94246  20775614.30949
 97 03 27 02 10 30.0000000  0  7 05 06 10 17 24 26 30
 -10871632.01248  -8471394.35146         0.00041  22174390.75446  22174390.91348
 -16787964.46948 -13081521.69446         0.00041  20904158.93046  20904159.23948
  -8220547.90248  -6405614.35446         0.00041  21538969.81746  21538969.50648
  -7087046.03948  -5522370.19945         0.00041  22739585.09345  22739584.43648
   9535021.05848   7429891.54444         0.00041  23778883.28744  23778882.46148
   -312175.75547         0.00041         0.00041         0.00041  24808040.31147
 -19152202.24449 -14923786.61446         0.00041  20785455.79746  20785456.19649
 97 03 27 02 11 00.0000000  0  7 05 06 10 17 24 26 30
 -10777884.80248  -8398344.60146         0.00041  22192230.18146  22192230.42448
 -16832201.59148 -13115992.16646         0.00041  20895740.97646  20895741.52848
  -8171484.12948  -6367382.83446         0.00041  21548306.10446  21548306.03148
  -7155892.91748  -5576017.09245         0.00041  22726484.70545  22726483.40048
   9614352.74048   7491708.40544         0.00041  23793981.49144  23793979.02348
   -390411.82047   -304215.97941         0.00041         0.00041  24793151.12247
 -19099983.78849 -14883096.91646         0.00041  20795392.49046  20795392.84949
 97 03 27 02 11 30.0000000  0  7 05 06 10 17 24 26 30
 -10683847.78848  -8325068.99745         0.00041  22210125.62945  22210124.76848
 -16876222.94448 -13150294.50646         0.00041  20887363.99646  20887364.47448
  -8121916.13848  -6328758.41646         0.00041  21557739.08546  21557738.67748
  -7224497.78348  -5629475.39345         0.00041  22713429.01645  22713427.82648
   9693672.20848   7553515.83041         0.00041         0.00041  23809071.86148
   -468694.75247         0.00041         0.00041         0.00041  24778254.64947
 -19047244.99448 -14842001.76946         0.00041  20805428.38646  20805428.55348
 97 03 27 02 12 00.0000000  0  7 05 06 10 17 24 26 30
 -10589509.05148  -8251558.29545         0.00041  22228077.08945  22228076.49448
 -16920021.51248 -13184423.24646         0.00041  20879029.44946  20879029.75248
  -8071828.58348  -6289729.14346         0.00041  21567270.74946  21567270.19748
  -7292841.35848  -5682730.11045         0.00041  22700424.33145  22700422.41048
   9772989.04348   7615321.14644         0.00041  23824167.28644  23824166.43948
   -547017.52248   -426246.24744         0.00041  24763352.14444  24763351.14148
 -18993980.67948 -14800497.11946         0.00041  20815564.19246  20815564.29948
 97 03 27 02 12 30.0000000  0  7 05 06 10 17 24 26 30
 -10494886.64448  -8177826.56545         0.00041  22246083.67245  22246083.02548
 -16963603.40248 -13218383.15746         0.00041  20870735.88946  20870736.27948
  -8021222.71148  -6250295.99246         0.00041  21576900.19746  21576900.11048
  -7360944.41748  -5735797.39345         0.00041  22687464.00145  22687462.98148
   9852288.01648   7677112.52044         0.00041  23839256.89244  23839255.93648
   -625379.16848   -487307.25541         0.00041         0.00041  24748439.63348
 -18940193.03249 -14758584.68246         0.00041  20825799.73546  20825799.85949
 97 03 27 02 13 00.0000000  0  7 05 06 10 17 24 26 30
 -10399997.67348  -8103887.13845         0.00041  22264139.85445  22264139.33748
 -17006963.27748 -13252170.06246         0.00041  20862484.71746  20862485.06948
  -7970101.88548  -6210461.57546         0.00041  21586628.49546  21586628.17948
  -7428802.63948  -5788673.90045         0.00041  22674551.58545  22674549.99548
   9931564.40648   7738886.36644         0.00041  23854341.91044  23854341.78148
   -703771.48347         0.00041         0.00041         0.00041  24733520.21347
 -18885884.40148 -14716266.28446         0.00041  20836134.31046  20836134.64348
 97 03 27 02 13 30.0000000  0  7 05 06 10 17 24 26 30
 -10304891.29948  -8029778.30345         0.00041  22282237.98645  22282238.13348
 -17050160.59248 -13285830.29846         0.00041  20854264.73946  20854265.22148
  -7918535.60648  -6170280.05146         0.00041  21596440.57246  21596440.77248
  -7496477.46248  -5841407.51845         0.00041  22661673.42245  22661671.76548
  10010769.37848   7800604.52741         0.00041         0.00041  23869414.08348
   -782255.06647         0.00041         0.00041         0.00041  24718585.23847
 -18831109.17148 -14673584.29446         0.00041  20846557.73546  20846558.12548
 97 03 27 02 14 00.0000000  0  7 05 06 10 17 24 26 30
 -10209514.04448  -7955458.39745         0.00041  22300388.33145  22300387.70448
 -17093147.22248 -13319326.37346         0.00041  20846084.64746  20846084.96348
  -7866459.21248  -6129701.03746         0.00041  21606350.13046  21606350.34448
  -7563925.91148  -5893964.72545         0.00041  22648837.76745  22648837.19948
  10089955.05748   7862307.59241         0.00041         0.00041  23884482.75648
   -860767.92947   -670726.85741         0.00041         0.00041  24703646.13847
 -18775810.76848 -14630494.63246         0.00041  20857080.58546  20857080.94248
 97 03 27 02 14 30.0000000  0  7 05 06 10 17 24 26 30
 -10113805.64448  -7880880.44545         0.00041  22318601.04745  22318600.65248
 -17135861.43748 -13352610.16446         0.00041  20837956.57446  20837956.70048
  -7813817.49048  -6088681.50446         0.00041  21616368.64746  21616368.13748
  -7631099.98548  -5946308.14545         0.00041  22636055.19145  22636053.96348
  10169175.83148   7924038.08641         0.00041         0.00041  23899558.50448
   -939237.85448   -731872.22844         0.00041  24688713.75844  24688713.30748
 -18719923.74248 -14586946.30446         0.00041  20867715.39746  20867715.75648
 97 03 27 02 15 00.0000000  0  7 05 06 10 17 24 26 30
 -10017877.43948  -7806131.19845         0.00041  22336855.09945  22336854.96848
 -17178411.68548 -13385766.19446         0.00041  20829859.20346  20829859.50548
  -7760722.95448  -6047309.14046         0.00041  21626472.09246  21626471.76448
  -7698108.51248  -5998522.55545         0.00041  22623303.46645  22623302.82848
  10248327.78848   7985714.93444         0.00041  23914620.62444  23914620.71648
  -1017767.21248         0.00041         0.00041         0.00041  24673769.28448
 -18663554.77548 -14543022.45446         0.00041  20878442.22746  20878442.61148
 97 03 27 02 15 30.0000000  0  7 05 06 10 17 24 26 30
  -9921672.07448  -7731166.00945         0.00041  22355162.94245  22355162.38048
 -17220731.09148 -13418742.33746         0.00041  20821806.09546  20821806.61948
  -7707112.72648  -6005534.93446         0.00041  21636673.60446  21636673.26548
  -7764899.36448  -6050567.35745         0.00041  22610594.49945  22610593.16148
  10327479.66448   8047391.72344         0.00041  23929684.29144  23929682.39148
  -1096291.83647   -854251.82741         0.00041         0.00041  24658825.64847
 -18606654.73348 -14498684.78346         0.00041  20889270.06546  20889270.36148
 97 03 27 02 16 00.0000000  0  7 05 06 10 17 24 26 30
  -9825159.71448  -7655961.58845         0.00041  22373528.21545  22373528.09348
 -17262761.75048 -13451493.49346         0.00041  20813807.99546  20813808.33948
  -7652929.50648  -5963314.23946         0.00041  21646984.05246  21646983.96448
  -7831415.84348  -6102398.36345         0.00041  22597935.86945  22597935.29848
  10406669.66548   8109098.19844         0.00041  23944750.30944  23944751.13748
  -1174767.57947         0.00041         0.00041         0.00041  24643892.51447
 -18549182.40648 -14453901.16346         0.00041  20900206.62046  20900206.76148
 97 03 27 02 16 30.0000000  0  8 05 06 10 17 23 24 26 30
  -9728431.70448  -7580589.14145         0.00041  22391934.63245  22391934.78348
 -17304581.57748 -13484080.35846         0.00041  20805850.12846  20805850.43148
  -7598270.67948  -5920722.94046         0.00041  21657385.75746  21657385.49048
  -7897730.01548  -6154071.71845         0.00041  22585316.78545  22585316.30348
         0.01157         0.00051         0.00051         0.00051  24968843.48157
  10485806.11948   8170762.95344         0.00041  23959811.51144  23959809.96548
  -1253288.98047         0.00041         0.00041         0.00041  24628950.54347
 -18491233.08148 -14408745.84646         0.00041  20911234.06646  20911234.21548
 97 03 27 02 17 00.0000000  0  8 05 06 10 17 23 24 26 30
  -9631494.03148  -7505053.30045         0.00041  22410381.96045  22410381.71148
 -17346201.34148 -13516511.33646         0.00041  20797929.87446  20797930.20648
  -7543167.89248  -5877785.69746         0.00041  21667871.26846  21667871.04148
  -7963841.66548  -6205587.27845         0.00041  22572735.63145  22572735.44048
   -107142.39047         0.00041         0.00041         0.00041  24948454.87147
  10564876.36948   8232376.15044         0.00041  23974857.70844  23974857.13548
  -1331867.14648         0.00041         0.00041         0.00041  24613997.67548
 -18432828.60348 -14363235.86146         0.00041  20922348.05846  20922348.08148
 97 03 27 02 17 30.0000000  0  8 05 06 10 17 23 24 26 30
  -9534297.41848  -7429315.68045         0.00041  22428877.83545  22428877.23948
 -17387581.04948 -13548755.25646         0.00041  20790055.32146  20790055.75848
  -7487581.23948  -5834471.42546         0.00041  21678448.83646  21678448.42248
  -8029709.51148  -6256912.83645         0.00041  22560201.67045  22560201.09348
   -214297.58347         0.00041         0.00041         0.00041  24928063.54947
  10643908.99048   8293959.97744         0.00041  23989898.67744  23989896.75548
  -1410471.96947         0.00041         0.00041         0.00041  24599038.44647
 -18373936.47048 -14317345.88346         0.00041  20933554.90146  20933554.91448
 97 03 27 02 18 00.0000000  0  8 05 06 10 17 23 24 26 30
  -9436842.17248  -7353376.51945         0.00041  22447421.52945  22447422.40548
 -17428733.48849 -13580822.08446         0.00041  20782224.51046  20782225.00649
  -7431516.11648  -5790784.30646         0.00041  21689117.77946  21689117.58748
  -8095335.60948  -6308050.03646         0.00041  22547713.34446  22547712.75748
   -321440.81347         0.00041         0.00041         0.00041  24907674.70747
  10722883.96048   8355498.92644         0.00041  24004925.07644  24004925.41948
  -1489091.72448         0.00041         0.00041         0.00041  24584078.24248
 -18314544.75748 -14271066.64846         0.00041  20944856.91246  20944856.81148
 97 03 27 02 18 30.0000000  0  8 05 06 10 17 23 24 26 30
  -9339125.40748  -7277233.57845         0.00041  22466017.67645  22466017.52248
 -17469653.89748 -13612708.10446         0.00041  20774437.54946  20774437.95448
  -7374972.10748  -5746724.03346         0.00041  21699877.80146  21699877.66248
  -8160709.94448  -6358991.04945         0.00041  22535272.98845  22535272.73648
   -428529.67747         0.00041         0.00041         0.00041  24887296.29147
  10801810.75048   8417000.37144         0.00041  24019950.06044  24019944.58948
  -1567703.73847         0.00041         0.00041         0.00041  24569118.41547
 -18254644.98748 -14224391.51846         0.00041  20956255.22546  20956255.37648
 97 03 27 02 19 00.0000000  0  8 05 06 10 17 23 24 26 30
  -9241179.81348  -7200912.32645         0.00041  22484656.23845  22484655.86248
 -17510353.99448 -13644422.45246         0.00041  20766692.63846  20766693.00548
  -7317958.35448  -5702297.73046         0.00041  21710727.08746  21710726.70148
  -8225853.94348  -6409752.59546         0.00041  22522877.13546  22522876.29748
   -535573.33647         0.00041         0.00041         0.00041  24866925.60147
  10880679.94448   8478456.86144         0.00041  24034952.33644  24034953.45548
  -1646316.94847         0.00041         0.00041         0.00041  24554159.17347
 -18194249.06748 -14177329.76646         0.00041  20967748.19346  20967748.59648
 97 03 27 02 19 30.0000000  0  8 05 06 10 17 23 24 26 30
  -9143043.07048  -7124442.15745         0.00041  22503331.28845  22503330.30848
 -17550835.01448 -13675966.09246         0.00041  20758989.40546  20758989.80748
  -7260477.18848  -5657507.20346         0.00041  21721665.52246  21721665.23248
  -8290802.10048  -6460361.52546         0.00041  22510518.26746  22510516.57248
   -642578.46047         0.00041         0.00041         0.00041  24846562.88547
  10959476.04248   8539856.41644         0.00041  24049947.29844  24049947.73348
  -1724936.13047         0.00041         0.00041         0.00041  24539198.47747
 -18133367.17448 -14129889.33046         0.00041  20979333.85346  20979333.90148
 97 03 27 02 20 00.0000000  0  8 05 06 10 17 23 24 26 30
  -9044700.86748  -7047811.85945         0.00041  22522043.81145  22522044.11348
 -17591052.72348 -13707304.55146         0.00041  20751336.10546  20751336.60048
  -7202503.96848  -5612333.25646         0.00041  21732697.03746  21732696.91048
  -8355518.04348  -6510789.50946         0.00041  22498203.08446  22498201.82148
   -749514.32447         0.00041         0.00041         0.00041  24826214.50047
  11038239.73348   8601230.71844         0.00041  24064935.87644  24064935.68348
  -1803518.59547         0.00041         0.00041         0.00041  24524244.34447
 -18071972.82848 -14082049.58546         0.00041  20991016.56946  20991016.74848
 97 03 27 02 20 30.0000000  0  8 05 06 10 17 23 24 26 30
  -8946168.85448  -6971033.65545         0.00041  22540795.07345  22540794.32948
 -17631029.78048 -13738455.48546         0.00041  20743728.73646  20743729.09848
  -7144060.00648  -5566792.50646         0.00041  21743818.71346  21743818.73848
  -8420020.15948  -6561050.88346         0.00041  22485927.90646  22485927.59848
   -856424.41847         0.00041         0.00041         0.00041  24805870.76147
  11116968.67848   8662577.97544         0.00041  24079916.24344  24079916.82648
  -1882095.30447         0.00041         0.00041         0.00041  24509291.66847
 -18010094.57948 -14033832.76446         0.00041  21002791.61146  21002791.67448
 97 03 27 02 21 00.0000000  0  8 05 06 10 17 23 24 26 30
  -8847383.31248  -6894057.93045         0.00041  22559593.29045  22559592.52548
 -17670718.65948 -13769381.87346         0.00041  20736176.33546  20736176.52848
  -7085098.44648  -5520848.42146         0.00041  21755038.97646  21755038.91548
  -8484283.96048  -6611126.55146         0.00041  22473699.00646  22473698.36948
   -963284.71747         0.00041         0.00041         0.00041  24785535.21647
  11195721.14048   8723943.52844         0.00041  24094905.24144  24094903.42848
  -1960617.91447         0.00041         0.00041         0.00041  24494350.35447
 -17947688.16348 -13985204.40646         0.00041  21014667.21546  21014667.57648
 97 03 27 02 21 30.0000000  0  8 05 06 10 17 23 24 26 30
  -8748315.65948  -6816862.39045         0.00041  22578445.62045  22578444.47748
 -17710122.98748 -13800086.53946         0.00041  20728677.68746  20728678.06448
  -7025620.56048  -5474502.01146         0.00041  21766357.07346  21766357.26648
  -8548305.19048  -6661013.19946         0.00041  22461516.23246  22461515.63548
  -1070092.88547         0.00041         0.00041         0.00041  24765209.97247
  11274503.16248   8785332.13744         0.00041  24109896.07944  24109895.90048
  -2039078.86447         0.00041         0.00041         0.00041  24479419.23247
 -17884758.36748 -13936168.21146         0.00041  21026642.24246  21026642.62348
 97 03 27 02 22 00.0000000  0  8 05 06 10 17 23 24 26 30
  -8648927.07848  -6739416.75345         0.00041  22597357.46145  22597357.28748
 -17749246.09448 -13830572.06446         0.00041  20721233.09146  20721233.26248
  -6965609.84348  -5427740.41346         0.00041  21777776.63246  21777776.94948
  -8612049.10048  -6710683.75446         0.00041  22449386.58246  22449385.42448
  -1176827.95747         0.00041         0.00041         0.00041  24744898.21447
  11353334.38448   8846759.07444         0.00041  24124897.73944  24124896.57748
  -2117469.28947         0.00041         0.00041         0.00041  24464503.42947
 -17821302.65448 -13886722.22446         0.00041  21038717.74946  21038717.94948
 97 03 27 02 22 30.0000000  0  7 05 06 10 17 24 26 30
  -8549207.19748  -6661712.95445         0.00041  22616333.38445  22616333.65348
 -17788097.22648 -13860845.66546         0.00041  20713839.95546  20713840.28848
  -6905074.80648  -5380570.25346         0.00041  21789295.80346  21789296.13548
  -8675525.77448  -6760146.07246         0.00041  22437306.27646  22437306.14748
  11432207.52448   8908218.61544         0.00041  24139906.72544  24139904.66248
  -2195788.54947         0.00041         0.00041         0.00041  24449598.85247
 -17757315.46348 -13836862.08546         0.00041  21050893.84946  21050894.18148
 97 03 27 02 23 00.0000000  0  7 05 06 10 17 24 26 30
  -8449263.66748  -6583834.92645         0.00041  22635352.61345  22635352.31248
 -17826742.12748 -13890958.56646         0.00041  20706485.99746  20706486.29848
  -6844108.49548  -5333064.02946         0.00041  21800897.82346  21800897.48248
  -8738827.02748  -6809471.70246         0.00041  22425261.19846  22425260.26448
  11511012.20448   8969624.95844         0.00041  24154902.04444  24154900.77348
  -2274117.23847         0.00041         0.00041         0.00041  24434693.19947
 -17692892.73948 -13786662.55346         0.00041  21063153.37646  21063153.45348
 97 03 27 02 23 30.0000000  0  7 05 06 10 17 24 26 30
  -8349139.51748  -6505816.15545         0.00041  22654406.08245  22654405.54948
 -17865204.48148 -13920929.21146         0.00041  20699166.80446  20699167.08248
  -6782730.63748  -5285237.11946         0.00041  21812577.63646  21812577.33848
  -8801952.77948  -6858660.58246         0.00041  22413248.62246  22413247.79348
  11589710.54148   9030948.27844         0.00041  24169877.37544  24169877.73148
  -2352478.87347         0.00041         0.00041         0.00041  24419782.21747
 -17628051.45548 -13736136.88246         0.00041  21075492.23646  21075492.41448
 97 03 27 02 24 00.0000000  0  7 05 06 10 17 24 26 30
  -8248818.86448  -6427644.23245         0.00041  22673496.28945  22673495.84148
 -17903432.39949 -13950717.19546         0.00041  20691892.27946  20691892.73749
  -6720897.14748  -5237055.17246         0.00041  21824344.11146  21824343.61548
  -8864855.08748  -6907675.33846         0.00041  22401278.84846  22401277.76348
  11668341.45948   9092219.13144         0.00041  24184836.25044  24184839.35848
  -2430836.60547         0.00041         0.00041         0.00041  24404870.16647
 -17562746.13648 -13685249.64246         0.00041  21087919.53046  21087919.52048
 97 03 27 02 24 30.0000000  0  7 05 06 10 17 24 26 30
  -8148278.92348  -6349301.43645         0.00041  22692628.68845  22692628.00248
 -17941366.85048 -13980276.50746         0.00041  20684673.51346  20684673.90048
  -6658568.54848  -5188487.43746         0.00041  21836203.99546  21836204.16748
  -8927487.89148  -6956480.09646         0.00041  22389360.65946  22389359.26048
  11746953.76148   9153475.49841         0.00041         0.00041  24199799.23848
  -2509135.63648         0.00041         0.00041         0.00041  24389970.70048
 -17496920.77148 -13633957.15546         0.00041  21100445.77946  21100445.60148
 97 03 27 02 25 00.0000000  0  7 05 06 10 17 24 26 30
  -8047518.00348  -6270786.42645         0.00041  22711802.61945  22711802.34548
 -17979007.42348 -14009606.81846         0.00041  20677510.84846  20677511.15648
  -6595732.84148  -5139524.54146         0.00041  21848162.06546  21848161.65848
  -8989825.82648  -7005055.09046         0.00041  22377498.40346  22377496.62448
  11825564.42148   9214730.55544         0.00041  24214760.82844  24214758.08948
  -2587365.78348  -2016126.81844         0.00041  24375084.33244  24375083.20048
 -17430572.11348 -13582256.90046         0.00041  21113071.05646  21113071.38448
 97 03 27 02 25 30.0000000  0  7 05 06 10 17 24 26 30
  -7946526.39248  -6192091.66945         0.00041  22731020.51445  22731020.15448
 -18016366.16449 -14038717.51946         0.00041  20670401.62146  20670402.03949
  -6532397.88548  -5090172.62246         0.00041  21860214.37146  21860214.08048
  -9051861.32148  -7053394.41646         0.00041  22365692.57946  22365691.29948
  11904188.56948   9275996.13841         0.00041         0.00041  24229719.99748
  -2665531.16448  -2077034.82044         0.00041  24360209.31044  24360209.21548
 -17363708.38248 -13530155.28646         0.00041  21125795.00946  21125795.36048
 97 03 27 02 26 00.0000000  0  7 05 06 10 17 24 26 30
  -7845398.50048  -6113290.73145         0.00041  22750264.08645  22750264.38448
 -18053528.88749 -14067675.47446         0.00041  20663329.70946  20663330.22749
  -6468672.97648  -5040516.84646         0.00041  21872340.46246  21872340.25248
  -9113706.82748  -7101585.68246         0.00041  22353924.16946  22353922.94648
  11982735.17348   9337201.28944         0.00041  24244669.95444  24244667.47248
  -2743727.14048  -2137966.70441         0.00041         0.00041  24345328.50048
 -17296443.25448 -13477740.90246         0.00041  21138594.85846  21138595.35548
 97 03 27 02 26 30.0000000  0  7 05 06 10 17 24 26 30
  -7744132.09948  -6034381.85145         0.00041  22769535.63845  22769534.73448
 -18090506.40048 -14096489.10346         0.00041  20656293.21446  20656293.41748
  -6404571.88248  -4990567.94346         0.00041  21884539.00446  21884538.69048
  -9175384.01548  -7149645.81946         0.00041  22342186.47346  22342186.22748
  12061198.78648   9398341.77041         0.00041         0.00041  24259597.51448
  -2821946.85148  -2198917.12441         0.00041         0.00041  24330444.49248
 -17228779.80548 -13425016.13746         0.00041  21151471.04446  21151471.39848
 97 03 27 02 27 00.0000000  0  7 05 06 10 17 24 26 30
  -7642629.02448  -5955288.54845         0.00041  22788849.91045  22788850.44448
 -18127187.31249 -14125071.62246         0.00041  20649313.34646  20649313.63149
  -6339994.18948  -4940247.66246         0.00041  21896826.98146  21896827.17248
  -9236814.38648  -7197513.62146         0.00041  22330496.88146  22330496.04648
  12139663.60748         0.00041         0.00041         0.00041  24274528.42848
  -2900091.51648  -2259809.06941         0.00041         0.00041  24315573.88748
 -17160632.38448 -13371914.25446         0.00041  21164439.10046  21164439.27348
 97 03 27 02 27 30.0000000  0  7 05 06 10 17 24 26 30
  -7540920.77148  -5876035.36845         0.00041  22808203.85345  22808203.62248
 -18163580.56249 -14153429.99346         0.00041  20642387.60746  20642388.02049
  -6274958.18048  -4889570.25446         0.00041  21909203.33646  21909202.99348
  -9298035.38548  -7245218.27246         0.00041  22318847.41546  22318845.99848
  12218099.13748   9520601.74841         0.00041         0.00041  24289455.93948
  -2978180.72648  -2320657.78344         0.00041  24300714.82744  24300713.33548
 -17092033.39348 -13318460.49246         0.00041  21177493.12246  21177493.27048
 97 03 27 02 28 00.0000000  0  8 05 06 10 17 23 24 26 30
  -7439017.50948  -5796630.23844         0.00041  22827596.48944  22827595.73348
 -18199694.84648 -14181570.98046         0.00041  20635515.16046  20635515.55148
  -6209461.54248  -4838533.90946         0.00041  21921666.80146  21921666.28848
  -9359062.46248  -7292771.81246         0.00041  22307234.38446  22307233.15948
        -0.44557         0.00051         0.00051         0.00051  24502000.24657
  12296496.03248         0.00041         0.00041         0.00041  24304373.73848
  -3056204.17748  -2381455.25644         0.00041  24285865.93844  24285865.61148
 -17022974.82448 -13264648.61846         0.00041  21190634.87146  21190634.64748
 97 03 27 02 28 30.0000000  0  7 05 06 10 17 24 26 30
  -7336936.49448  -5717086.58945         0.00041  22847021.99245  22847021.49348
 -18235554.71949 -14209513.72946         0.00041  20628691.41246  20628691.92049
  -6143521.59448  -4787152.13046         0.00041  21934214.68546  21934214.17448
  -9419895.33748  -7340174.04746         0.00041  22295657.52746  22295657.07648
  12374834.81548   9642733.42541         0.00041         0.00041  24319281.65248
  -3134164.69348  -2442203.62341         0.00041         0.00041  24271029.60148
 -16953460.18048 -13210481.37946         0.00041  21203862.94446  21203862.80848
 97 03 27 02 29 00.0000000  0  7 05 06 10 17 24 26 30
  -7234704.55548  -5637425.34845         0.00041  22866474.91345  22866475.26348
 -18271175.19748 -14237269.93146         0.00041  20621912.84046  20621913.37248
  -6077151.83248  -4735435.43446         0.00041  21946845.29546  21946844.56648
  -9480531.91848  -7387423.29746         0.00041  22284119.33246  22284118.21748
  12453106.10148         0.00041         0.00041         0.00041  24334175.51148
  -3212079.28248  -2502916.27244         0.00041  24256207.98744  24256204.57748
 -16883517.10048 -13155980.29646         0.00041  21217172.45146  21217172.59248
 97 03 27 02 29 30.0000000  0  7 05 06 10 17 24 26 30
  -7132291.56848  -5557623.03145         0.00041  22885964.87945  22885964.37448
 -18306541.09449 -14264827.75446         0.00041  20615183.32946  20615183.66749
  -6010335.41048  -4683370.69246         0.00041  21959559.04746  21959559.21348
  -9540924.36048  -7434482.31846         0.00041  22272626.97346  22272626.03648
  12531353.09848   9764695.68841         0.00041         0.00041  24349064.49048
  -3289912.79248  -2563565.73741         0.00041         0.00041  24241392.92448
 -16813103.56048 -13101112.61746         0.00041  21230571.86846  21230571.82548
 97 03 27 02 30 00.0000000  0  7 05 06 10 17 24 26 30
  -7029653.32548  -5477645.18745         0.00041  22905497.62745  22905495.67748
 -18341611.02949 -14292154.95446         0.00041  20608509.64846  20608509.99749
  -5943045.87348  -4630937.28246         0.00041  21972363.90546  21972364.05448
  -9601023.64448  -7481312.91546         0.00041  22261190.55546  22261189.51948
  12609618.13848   9825681.47141         0.00041         0.00041  24363959.82948
  -3367619.99648  -2624116.81441         0.00041         0.00041  24226605.63948
 -16742165.96348 -13045836.56646         0.00041  21244070.25946  21244070.65548
 97 03 27 02 30 30.0000000  0  7 05 06 10 17 24 26 30
  -6926828.25148  -5397521.74145         0.00041  22925064.06845  22925062.17248
 -18376416.98248 -14319276.46846         0.00041  20601886.25046  20601886.59148
  -5875323.26048  -4578166.41246         0.00041  21985251.22546  21985250.96048
  -9660850.70448  -7527931.39046         0.00041  22249805.62146  22249804.89148
  12687877.11548   9886662.43141         0.00041         0.00041  24378852.23848
  -3445247.31148  -2684605.57941         0.00041         0.00041  24211833.95648
 -16670752.87648 -12990190.00646         0.00041  21257660.12846  21257660.32048
 97 03 27 02 31 00.0000000  0  7 05 06 10 17 24 26 30
  -6823859.63148  -5317286.47645         0.00041  22944657.36545  22944656.50548
 -18410991.08548 -14346217.32346         0.00041  20595307.04046  20595307.43948
  -5807203.71448  -4525086.25246         0.00041  21998214.19446  21998213.94648
  -9720458.08848  -7574378.66846         0.00041  22238462.90246  22238461.90948
  12766082.40348         0.00041         0.00041         0.00041  24393731.89548
  -3522847.91748  -2745073.56641         0.00041         0.00041  24197066.29748
 -16598920.01848 -12934216.37046         0.00041  21271329.53346  21271329.79348
 97 03 27 02 31 30.0000000  0  8 05 06 10 17 23 24 26 30
  -6720696.35448  -5236899.53245         0.00041  22964287.98745  22964288.68748
 -18445287.82348 -14372942.04146         0.00041  20588780.38246  20588780.80848
  -5738660.46048  -4471675.91546         0.00041  22011257.25946  22011257.32948
  -9779811.50248  -7620628.06646         0.00041  22227168.08746  22227167.37748
        -1.12457         0.00051         0.00051         0.00051  24361206.29857
  12844255.51548  10008515.78241         0.00041         0.00041  24408609.28748
  -3600377.20448  -2805485.93341         0.00041         0.00041  24182314.61248
 -16526631.88248 -12877887.97846         0.00041  21285085.43146  21285085.66848
 97 03 27 02 32 00.0000000  0  8 05 06 10 17 23 24 26 30
  -6617425.68148  -5156428.90544         0.00041  22983941.54344  22983939.97648
 -18479385.91748 -14399511.97346         0.00041  20582291.77146  20582292.31448
  -5669780.30648  -4418003.05346         0.00041  22024365.07646  22024364.45248
  -9839005.76948  -7666753.43946         0.00041  22215904.35446  22215903.03348
   -105439.00547         0.00041         0.00041         0.00041  24341141.05047
  12922308.87648  10069336.55041         0.00041         0.00041  24423462.53848
  -3677915.41348  -2865905.27844         0.00041  24167558.13644  24167558.67648
 -16453989.71948 -12821283.72346         0.00041  21298908.65446  21298908.85648
 97 03 27 02 32 30.0000000  0  8 05 06 10 17 23 24 26 30
  -6514036.06248  -5075865.57344         0.00041  23003615.11844  23003614.38348
 -18513250.46348 -14425899.92446         0.00041  20575847.59646  20575847.96348
  -5600539.19348  -4364048.94846         0.00041  22037540.43346  22037540.57148
  -9898027.12848  -7712744.09146         0.00041  22204672.12146  22204671.73448
   -210848.47048   -164297.65241         0.00041         0.00041  24321082.18948
  13000263.58648  10130080.50641         0.00041         0.00041  24438295.74948
  -3755432.29748  -2926308.00044         0.00041  24152810.30144  24152807.12448
 -16380978.19448 -12764391.64446         0.00041  21312802.41946  21312802.78248
 97 03 27 02 33 00.0000000  0  8 05 06 10 17 23 24 26 30
  -6410471.86248  -4995166.20544         0.00041  23023322.50644  23023321.28948
 -18546823.17748 -14452060.47246         0.00041  20569458.65246  20569459.29748
  -5530891.48948  -4309777.99546         0.00041  22050794.54546  22050794.15848
  -9956828.60948  -7758563.40746         0.00041  22193483.72046  22193481.72248
   -316166.56048   -246363.63044         0.00041  24301042.82344  24301041.69248
  13078159.28648  10190778.45341         0.00041         0.00041  24453119.33148
  -3832854.93047  -2986637.26341         0.00041         0.00041  24138073.36247
 -16307538.95948 -12707166.25046         0.00041  21326777.29146  21326777.85948
 97 03 27 02 33 30.0000000  0  8 05 06 10 17 23 24 26 30
  -6306765.74248  -4914356.26344         0.00041  23043056.53344  23043056.35048
 -18580129.56948 -14478013.49646         0.00041  20563120.60846  20563121.05048
  -5460869.77748  -4255215.62546         0.00041  22064118.95146  22064118.81148
 -10015427.82548  -7804225.10346         0.00041  22182331.62346  22182330.57648
   -421413.46448   -328374.15844         0.00041  24281014.74044  24281013.78048
  13155982.57748  10251419.91844         0.00041  24467931.06144  24467927.89848
  -3910186.58748  -3046895.69844         0.00041  24123361.78844  24123358.71748
 -16233687.83248 -12649619.90546         0.00041  21340830.70246  21340831.01848
 97 03 27 02 34 00.0000000  0  8 05 06 10 17 23 24 26 30
  -6202914.18448  -4833432.98444         0.00041  23062820.07744  23062818.87648
 -18613141.86748 -14503737.35746         0.00041  20556838.79846  20556839.29848
  -5390441.50448  -4200336.44946         0.00041  22077520.65346  22077520.80748
 -10073810.67348  -7849718.21046         0.00041  22171222.38646  22171221.01348
   -526561.25748   -410307.43044         0.00041  24261006.33444  24261004.67448
  13233759.06948  10312024.96541         0.00041         0.00041  24482728.67848
  -3987415.12948  -3107073.78841         0.00041         0.00041  24108661.66648
 -16159394.61848 -12591729.08246         0.00041  21354968.20546  21354968.53848
 97 03 27 02 34 30.0000000  0  8 05 06 10 17 23 24 26 30
  -6098877.56248  -4752365.49844         0.00041  23082616.96644  23082615.80848
 -18645809.97748 -14529193.01346         0.00041  20550622.23746  20550622.71148
  -5319552.42748  -4145098.19046         0.00041  22091010.28646  22091010.52548
 -10131923.71848  -7895001.07546         0.00041  22160162.86146  22160162.51248
   -631564.83848   -492128.39844         0.00041  24241023.54144  24241022.95048
  13311524.96748  10372621.75541         0.00041         0.00041  24497528.20348
  -4064506.25248  -3167144.75141         0.00041         0.00041  24093992.68548
 -16084617.41148 -12533461.11946         0.00041  21369198.12446  21369198.32048
 97 03 27 02 35 00.0000000  0  8 05 06 10 17 23 24 26 30
  -5994651.88548  -4671150.70944         0.00041  23102451.01144  23102450.10548
 -18678144.75549 -14554388.92646         0.00041  20544469.11346  20544469.61449
  -5248210.22348  -4089506.86346         0.00041  22104586.41846  22104586.62548
 -10189763.23948  -7940070.79846         0.00041  22149156.23346  22149155.83748
   -736429.03348   -573840.65544         0.00041  24221068.89444  24221067.30148
  13389269.06548         0.00041         0.00041         0.00041  24512321.72048
  -4141474.12748         0.00041         0.00041         0.00041  24079346.62348
 -16009371.68548 -12474828.09846         0.00041  21383516.69646  21383516.98448
 97 03 27 02 35 30.0000000  0  8 05 06 10 17 23 24 26 30
  -5890257.29748  -4589804.29744         0.00041  23122317.04844  23122315.96448
 -18710142.77548 -14579322.45446         0.00041  20538380.35246  20538380.44648
  -5176433.47648  -4033576.92845         0.00041  22118244.59545  22118245.53048
 -10247362.56548  -7984953.36146         0.00041  22138195.52646  22138195.35248
   -841176.79548   -655462.24144         0.00041  24201133.94144  24201134.47648
  13466981.53848  10493756.70341         0.00041         0.00041  24527109.38748
  -4218346.64348  -3287020.30241         0.00041         0.00041  24064718.09048
 -15933685.29148 -12415851.70046         0.00041  21397919.55246  21397919.36148
 97 03 27 02 36 00.0000000  0  8 05 06 10 17 23 24 26 30
  -5785702.59848  -4508333.13444         0.00041  23142213.01744  23142211.83348
 -18741814.84649 -14604002.00046         0.00041  20532353.17446  20532353.61649
  -5104237.06448  -3977319.96545         0.00041  22131983.71845  22131983.68548
 -10304735.93448  -8029659.85546         0.00041  22127277.93646  22127277.23448
   -945817.23948   -737000.18644         0.00041  24181226.04144  24181222.97148
  13544645.09848         0.00041         0.00041         0.00041  24541889.43948
  -4295146.69848  -3346864.44041         0.00041         0.00041  24050103.53248
 -15857582.93748 -12356551.18346         0.00041  21412401.36446  21412401.32748
 97 03 27 02 36 30.0000000  0  8 05 06 10 17 23 24 26 30
  -5680947.89948  -4426706.11144         0.00041  23162147.82844  23162145.13948
 -18773149.08748 -14628418.30146         0.00041  20526390.43346  20526390.85948
  -5031608.29648  -3920726.12045         0.00041  22145804.77145  22145804.50348
 -10361845.18148  -8074160.53946         0.00041  22116410.37946  22116409.86248
  -1050318.86148   -818429.92444         0.00041  24161336.96344  24161337.09748
  13622291.69948         0.00041         0.00041         0.00041  24556665.02948
  -4371819.61248  -3406609.63344         0.00041  24035511.25344  24035513.22848
 -15781048.48048 -12296913.95946         0.00041  21426965.55246  21426965.43348
 97 03 27 02 37 00.0000000  0  8 05 06 10 17 23 24 26 30
  -5576007.11048  -4344934.08544         0.00041  23182115.58444  23182114.77948
 -18804166.66848 -14652587.85446         0.00041  20520488.04146  20520488.47148
  -4958569.75448  -3863812.96345         0.00041  22159703.55445  22159703.19648
 -10418714.15248  -8118473.99046         0.00041  22105588.22546  22105587.58948
  -1154683.57548   -899753.04244         0.00041  24141478.66844  24141477.24548
  13699913.15648  10675262.54841         0.00041         0.00041  24571435.01948
  -4448368.39848  -3466258.04441         0.00041         0.00041  24020946.68648
 -15704103.14948 -12236956.57346         0.00041  21441607.62746  21441607.69148
 97 03 27 02 37 30.0000000  0  8 05 06 10 17 23 24 26 30
  -5470856.92148  -4262998.87644         0.00041  23202124.19144  23202124.48648
 -18834831.86348 -14676482.82346         0.00041  20514652.51546  20514653.05048
  -4885073.11848  -3806542.85945         0.00041  22173689.18245  22173689.16048
 -10475298.76348  -8162565.87146         0.00041  22094820.74746  22094820.09148
  -1258862.51848   -980931.42744         0.00041  24121654.19444  24121652.42648
  13777556.02248  10735767.20745         0.00041  24586209.61845  24586209.82948
  -4524732.10048  -3525762.16441         0.00041         0.00041  24006413.81148
 -15626704.08148 -12176645.62146         0.00041  21456336.03046  21456336.31648
 97 03 27 02 38 00.0000000  0  8 05 06 10 17 23 24 26 30
  -5365565.83748  -4180953.87944         0.00041  23222160.32944  23222160.27148
 -18865229.69048 -14700169.44946         0.00041  20508868.07146  20508868.44448
  -4811171.19748  -3748956.95245         0.00041  22187752.44445  22187752.14948
 -10531641.99048  -8206469.66246         0.00041  22084099.72646  22084098.24448
  -1362910.49448  -1062007.69444         0.00041  24101853.52844  24101852.31548
  13855147.46248  10796225.59944         0.00041  24600971.88044  24600975.78148
  -4600967.18448  -3585166.08641         0.00041         0.00041  23991905.86548
 -15548912.38348 -12116028.71846         0.00041  21471138.85446  21471139.22348
 97 03 27 02 38 30.0000000  0  8 05 06 10 17 23 24 26 30
  -5260189.46548  -4098842.42844         0.00041  23242213.72744  23242213.35848
 -18895391.43848 -14723672.11746         0.00041  20503128.62246  20503128.99948
  -4736900.48648  -3691083.67045         0.00041  22201885.72145  22201885.58848
 -10587792.22448  -8250223.05946         0.00041  22073414.14446  22073413.56548
  -1466873.25548  -1143017.63944         0.00041  24082071.85444  24082068.96148
  13932654.99348         0.00041         0.00041         0.00041  24615724.47248
  -4677106.95148  -3644495.73641         0.00041         0.00041  23977418.55148
 -15470767.70448 -12055136.76946         0.00041  21486009.86346  21486010.10948
 97 03 27 02 39 00.0000000  0  8 05 06 10 17 23 24 26 30
  -5154691.65648  -4016636.35044         0.00041  23262290.61444  23262289.43948
 -18925244.63748 -14746934.35446         0.00041  20497447.56246  20497447.95548
  -4662201.49848  -3632876.66045         0.00041  22216100.40845  22216100.57648
 -10643706.65148  -8293792.71246         0.00041  22062773.68146  22062772.79048
  -1570705.38248  -1223925.72944         0.00041  24062313.74444  24062310.41548
  14010128.63948         0.00041         0.00041         0.00041  24630466.91148
  -4753115.08048  -3703722.84141         0.00041         0.00041  23962955.56448
 -15392215.83848 -11993927.51746         0.00041  21500957.71846  21500957.82948
 97 03 27 02 39 30.0000000  0  8 05 06 10 17 23 24 26 30
  -5049093.81248  -3934352.35544         0.00041  23282385.65944  23282383.89648
 -18954806.62448 -14769969.65746         0.00041  20491822.25346  20491822.70648
  -4587099.07748  -3574355.28045         0.00041  22230391.78045  22230392.28648
 -10699402.33948  -8337191.92546         0.00041  22052175.80946  22052174.41448
  -1674431.46248  -1304751.13344         0.00041  24042572.22644  24042571.69948
  14087543.86948         0.00041         0.00041         0.00041  24645198.71648
  -4829010.69648  -3762862.22944         0.00041  23948511.85444  23948512.51248
 -15313252.56748 -11932397.68946         0.00041  21515984.18446  21515984.10548
 97 03 27 02 40 00.0000000  0  8 05 06 10 17 23 24 26 30
  -4943320.98948  -3851932.01644         0.00041  23302511.93844  23302511.29548
 -18984011.02748 -14792726.33146         0.00041  20486264.96946  20486265.27248
  -4511550.81448  -3515486.50845         0.00041  22244768.89545  22244768.33748
 -10754819.27948  -8380373.92346         0.00041  22041629.33946  22041629.08248
  -1777991.97548  -1385447.68044         0.00041  24022866.45144  24022864.94848
  14164961.24648  11037638.89941         0.00041         0.00041  24659931.49248
  -4904737.02448  -3821869.76044         0.00041  23934101.37144  23934102.27648
 -15233817.03648 -11870499.86846         0.00041  21531100.05346  21531099.93448
 97 03 27 02 40 30.0000000  0  8 05 06 10 17 23 24 26 30
  -4837391.48748  -3769389.56144         0.00041  23322669.88344  23322669.27048
 -19012874.74548 -14815217.54146         0.00041  20480772.10646  20480772.65448
  -4435587.59148  -3456294.38045         0.00041  22259223.83145  22259223.49148
 -10809980.41848  -8423356.61346         0.00041  22031133.15646  22031132.33248
  -1881399.59948  -1466025.02944         0.00041  24003189.80444  24003186.86048
  14242364.73948         0.00041         0.00041         0.00041  24674660.34748
  -4980302.74148  -3880752.14644         0.00041  23919720.64144  23919722.01348
 -15153930.88448 -11808250.91946         0.00041  21546301.77646  21546302.15248
 97 03 27 02 41 00.0000000  0  8 05 06 10 17 23 24 26 30
  -4731348.22048  -3686758.46144         0.00041  23342849.79044  23342849.19148
 -19041457.17948 -14837489.56046         0.00041  20475332.96146  20475333.41748
  -4359274.61648  -3396829.72545         0.00041  22273746.39545  22273745.51748
 -10864936.40248  -8466179.42146         0.00041  22020675.40146  22020674.15248
  -1984699.01648  -1546518.00844         0.00041  23983531.10044  23983528.71048
  14319690.28347         0.00041         0.00041         0.00041  24689374.09547
  -5055754.51948  -3939545.68744         0.00041  23905363.32844  23905364.20548
 -15073650.59748 -11745694.87046         0.00041  21561578.20146  21561578.55648
 97 03 27 02 41 30.0000000  0  8 05 06 10 17 23 24 26 30
  -4625248.94648  -3604083.75644         0.00041  23363038.79144  23363038.88348
 -19069820.40948 -14859590.76746         0.00041  20469936.06946  20469936.18548
  -4282675.35948  -3337141.99245         0.00041  22288322.25145  22288321.60148
 -10919738.40248  -8508882.24746         0.00041  22010246.74446  22010245.80948
  -2087931.88048  -1626959.12144         0.00041  23963885.48744  23963884.85948
  14396881.72948  11218356.31541         0.00041         0.00041  24704064.67348
  -5131133.79848  -3998282.78941         0.00041         0.00041  23891019.41448
 -14993039.16348 -11682880.78246         0.00041  21576918.31746  21576918.58648
 97 03 27 02 42 00.0000000  0  8 05 06 10 17 23 24 26 30
  -4519161.82848  -3521418.48344         0.00041  23383225.64644  23383226.16548
 -19098019.26548 -14881563.88846         0.00041  20464569.54246  20464569.97748
  -4205853.70148  -3277280.96645         0.00041  22302940.14445  22302940.50648
 -10974452.22048  -8551516.36546         0.00041  21999834.67746  21999834.16848
  -2191166.71248  -1707401.84944         0.00041  23944242.89844  23944240.58148
  14473879.41047  11278354.68341         0.00041         0.00041  24718716.88547
  -5206489.16048  -4057001.19444         0.00041  23876678.17644  23876680.05448
 -14912192.33348 -11619883.27346         0.00041  21592303.26346  21592303.25548
 97 03 27 02 42 30.0000000  0  8 05 06 10 17 23 24 26 30
  -4412907.69448  -3438623.06744         0.00041  23403446.16344  23403445.83648
 -19125858.60148 -14903256.86746         0.00041  20459271.95846  20459272.41548
  -4128611.57648  -3217092.30245         0.00041  22317639.53345  22317639.20748
 -11028891.99248  -8593936.93946         0.00041  21989475.66646  21989474.26548
  -2294210.13248  -1787695.38044         0.00041  23924634.33844  23924631.28548
  14550894.86447         0.00041         0.00041         0.00041  24733370.78947
  -5281619.27548  -4115544.13344         0.00041  23862381.57244  23862383.12948
 -14830913.04148 -11556548.77646         0.00041  21607770.07046  21607770.22848
 97 03 27 02 43 00.0000000  0  8 05 06 10 17 23 24 26 30
  -4306525.70048  -3355728.01744         0.00041  23423690.68344  23423689.69848
 -19153365.99448 -14924691.20146         0.00041  20454037.65846  20454037.92848
  -4050984.90548  -3156603.98345         0.00041  22332411.90945  22332411.07048
 -11083080.70648  -8636161.88946         0.00041  21979163.53046  21979162.68348
  -2397094.07848  -1867864.65544         0.00041  23905054.49344  23905053.33748
  14627902.27347         0.00041         0.00041         0.00041  24748025.82947
  -5356559.49048  -4173939.06544         0.00041  23848122.14144  23848122.14048
 -14749236.45048 -11492904.69446         0.00041  21623313.43346  21623313.25748
 97 03 27 02 43 30.0000000  0  8 05 06 10 17 23 24 26 30
  -4200007.21048  -3272726.59344         0.00041  23443960.25644  23443959.67348
 -19180538.45448 -14945864.54546         0.00041  20448866.71346  20448867.19348
  -3972962.82248  -3095807.55045         0.00041  22347259.22745  22347258.32648
 -11137005.30048  -8678181.02646         0.00041  21968902.09546  21968901.32548
  -2499810.31748  -1947903.26444         0.00041  23885508.69644  23885506.39748
  14704904.82448         0.00041         0.00041         0.00041  24762679.32548
  -5431298.04848  -4232176.95244         0.00041  23833901.39244  23833900.58348
 -14667157.04348 -11428946.73246         0.00041  21638932.04046  21638932.15748
 97 03 27 02 44 00.0000000  0  8 05 06 10 17 23 24 26 30
  -4093356.47748  -3189622.13044         0.00041  23464255.26744  23464254.25148
 -19207385.16448 -14966784.07146         0.00041  20443758.13546  20443758.46548
  -3894567.57348  -3034720.33145         0.00041  22362176.62745  22362176.28548
 -11190676.31248  -8720002.57546         0.00041  21958688.84246  21958687.94448
  -2602377.16148  -2027825.51044         0.00041  23865989.23544  23865988.69148
  14781897.08947         0.00041         0.00041         0.00041  24777330.08347
  -5505849.04148  -4290268.51641         0.00041         0.00041  23819714.38048
 -14584693.10248 -11364689.14446         0.00041  21654624.55146  21654624.58248
 97 03 27 02 44 30.0000000  0  5 06 10 17 23 30
 -19233936.90748 -14987473.73646         0.00041  20438705.28846  20438705.69848
  -3815831.67448  -2973367.69745         0.00041  22377159.05945  22377159.32748
 -11244120.64448  -8761647.48246         0.00041  21948518.48046  21948517.84448
  -2704805.14648  -2107639.47344         0.00041  23846506.44644  23846505.90348
 -14501868.79248 -11300150.73546         0.00041  21670385.71346  21670385.68848
 97 03 27 02 45 00.0000000  0  5 06 10 17 23 30
 -19260184.58848 -15007926.46846         0.00041  20433710.57646  20433710.98448
  -3736767.17848  -2911758.99045         0.00041  22392204.54145  22392204.73348
 -11297338.23048  -8803115.69546         0.00041  21938391.52846  21938391.21548
  -2807749.66447         0.00041         0.00041         0.00041  23827027.67447
 -14418697.16148 -11235341.68446         0.00041  21686212.90046  21686212.84148
 97 03 27 02 45 30.0000000  0  4 06 10 17 30
 -19286083.31548 -15028107.28146         0.00041  20428782.39346  20428782.73548
  -3657332.05748  -2849861.49645         0.00041  22407320.62945  22407320.51948
 -11350309.58548  -8844392.05646         0.00041  21928311.15146  21928310.86248
 -14335140.04248 -11170232.25746         0.00041  21702112.21346  21702112.59948
 97 03 27 02 46 00.0000000  0  7 05 06 10 17 22 26 30
        -0.08158         0.46454         0.00051  23545634.54554  23545631.61858
 -19311598.41949 -15047989.16346         0.00041  20423926.77746  20423927.39249
  -3577493.98748  -2787650.01045         0.00041  22422513.55445  22422513.54548
 -11403009.69548  -8885457.06146         0.00041  21918283.01646  21918282.63448
         0.07457        -0.04551         0.00051         0.00051  24807685.07457
        -1.06358        -0.51854         0.00051  23763254.69954  23763252.12258
 -14251150.42948 -11104785.81546         0.00041  21718095.21846  21718095.23848
 97 03 27 02 46 30.0000000  0  7 05 06 10 17 22 26 30
    107135.11948     83482.42544         0.00041  23566018.09844  23566018.44148
 -19336831.33948 -15067651.19646         0.00041  20419125.14746  20419125.32248
  -3497343.76648  -2725195.28645         0.00041  22437765.26445  22437765.68748
 -11455544.88148  -8926393.53346         0.00041  21908286.05546  21908285.16148
    -83553.77847    -65106.87241         0.00041         0.00041  24791785.22047
    -73829.14648    -57528.85944         0.00041  23749205.18544  23749203.31248
 -14166820.29548 -11039074.03546         0.00041  21734143.12546  21734143.11748
 97 03 27 02 47 00.0000000  0  6 06 10 17 22 26 30
 -19361800.20948 -15087107.47346         0.00041  20414374.12646  20414374.14648
  -3416901.26548  -2662512.81245         0.00041  22453073.01445  22453073.23548
 -11507938.13048  -8967219.40946         0.00041  21898315.91446  21898315.03148
   -166876.40447   -130033.58841         0.00041         0.00041  24775928.77747
   -147579.97348   -114997.00044         0.00041  23735170.77144  23735169.58448
 -14082171.30648 -10973113.78546         0.00041  21750251.28546  21750250.84948
 97 03 27 02 47 30.0000000  0  7 06 10 17 22 23 26 30
 -19386442.64548 -15106309.38046         0.00041  20409684.72346  20409685.09748
  -3336094.86848  -2599546.80245         0.00041  22468450.46245  22468450.20848
 -11560129.25348  -9007887.79446         0.00041  21888384.11646  21888383.34248
   -249913.24347   -194737.57241         0.00041         0.00041  24760127.52947
        -0.01458         1.42654         0.00051  23730129.51054  23730127.99458
   -221169.08748   -172339.10444         0.00041  23721166.74844  23721165.06348
 -13997150.09348 -10906863.49046         0.00041  21766429.99246  21766430.28448
 97 03 27 02 48 00.0000000  0  7 06 10 17 22 23 26 30
 -19410683.42548 -15125198.29446         0.00041  20405071.85346  20405072.22548
  -3254877.21848  -2536260.31445         0.00041  22483906.49545  22483905.59248
 -11612052.63448  -9048347.54346         0.00041  21878503.31246  21878502.55048
   -332609.70647   -259176.37241         0.00041         0.00041  24744390.48247
   -101390.95048    -79004.46544         0.00041  23710835.58744  23710834.14948
   -294518.08648   -229494.15644         0.00041  23707206.94044  23707206.40848
 -13911706.72348 -10840284.25246         0.00041  21782689.43446  21782689.35148
 97 03 27 02 48 30.0000000  0  7 06 10 17 22 23 26 30
 -19434562.72148 -15143805.52746         0.00041  20400527.34846  20400527.92048
  -3173314.25348  -2472704.74945         0.00041  22499426.65945  22499426.10748
 -11663755.06548  -9088635.11646         0.00041  21868664.77246  21868663.98148
   -415011.24947   -323385.29341         0.00041         0.00041  24728710.26747
   -202615.97748   -157881.10044         0.00041  23691571.98744  23691571.50648
   -367672.76548   -286497.72544         0.00041  23693284.84244  23693286.06548
 -13825931.95348 -10773446.77446         0.00041  21799011.74046  21799011.77448
 97 03 27 02 49 00.0000000  0  7 06 10 17 22 23 26 30
 -19458058.35948 -15162113.80846         0.00041  20396056.47046  20396056.84648
  -3091395.51548  -2408871.98445         0.00041  22515014.71845  22515014.82248
 -11715217.63048  -9128735.79946         0.00041  21858871.30146  21858870.87648
   -497085.41248   -387339.21241         0.00041         0.00041  24713093.06848
   -303648.82048   -236607.98344         0.00041  23672346.07544  23672345.65748
   -440600.54948   -343324.58044         0.00041  23679410.21844  23679408.66148
 -13739820.88048 -10706347.28646         0.00041  21815398.19246  21815398.29248
 97 03 27 02 49 30.0000000  0  7 06 10 17 22 23 26 30
 -19481158.51048 -15180113.92346         0.00041  20391660.71146  20391661.07948
  -3009107.61248  -2344751.54445         0.00041  22530673.90645  22530673.87148
 -11766424.43548  -9168637.18146         0.00041  21849127.13846  21849126.77948
   -578797.97048   -451011.31841         0.00041         0.00041  24697543.11548
   -404466.31748   -315167.03744         0.00041  23653161.18944  23653159.50548
   -513264.99448   -399946.17544         0.00041  23665580.75444  23665580.88948
 -13653343.91648 -10638962.70446         0.00041  21831854.32046  21831854.59248
 97 03 27 02 50 00.0000000  0  7 06 10 17 22 23 26 30
 -19503894.79348 -15197830.51546         0.00041  20387334.21846  20387334.53848
  -2926470.94248  -2280359.33245         0.00041  22546399.46045  22546399.04848
 -11817379.49148  -9208342.39046         0.00041  21839430.78846  21839430.14648
   -660151.08548         0.00041         0.00041         0.00041  24682062.51848
   -505081.77648   -393568.62044         0.00041  23634014.73644  23634014.27148
   -585681.70348   -456374.72044         0.00041  23651801.98544  23651800.28748
 -13566505.27148 -10571296.29846         0.00041  21848378.95246  21848379.36948
 97 03 27 02 50 30.0000000  0  7 06 10 17 22 23 26 30
 -19526309.36348 -15215296.42246         0.00041  20383068.58746  20383069.18048
  -2843507.00448  -2215712.12845         0.00041  22562186.19445  22562186.46248
 -11868103.53648  -9247867.59146         0.00041  21829778.24246  21829777.71548
   -741162.35048   -577529.00141         0.00041         0.00041  24666647.06448
   -605528.44648   -471838.75044         0.00041  23614901.93444  23614899.73448
   -657879.95748   -512633.08744         0.00041  23638063.33344  23638061.29348
 -13479320.02348 -10503359.76246         0.00041  21864969.70246  21864970.08448
 97 03 27 02 51 00.0000000  0  7 06 10 17 22 23 26 30
 -19548426.84748 -15232530.83046         0.00041  20378860.06546  20378860.42048
  -2760225.55248  -2150817.47945         0.00041  22578035.05545  22578034.74848
 -11918615.39748  -9287227.45146         0.00041  21820166.14446  21820165.78448
   -821853.93348         0.00041         0.00041         0.00041  24651291.55648
   -705816.80848   -549985.50444         0.00041  23595816.89544  23595816.43848
   -729870.26948   -568729.43944         0.00041  23624362.14544  23624362.31248
 -13391783.12848 -10435149.21546         0.00041  21881627.67646  21881627.74348
 97 03 27 02 51 30.0000000  0  7 06 10 17 22 23 26 30
 -19570177.07548 -15249479.05846         0.00041  20374721.16546  20374721.44648
  -2676559.35948  -2085623.03745         0.00041  22593955.71245  22593955.72248
 -11968836.02048  -9326360.37546         0.00041  21810609.72846  21810608.95848
   -902169.38148   -702988.94141         0.00041         0.00041  24636007.56648
   -805875.93648   -627953.65444         0.00041  23576775.31244  23576774.75148
   -801597.63948   -624620.83944         0.00041  23610713.05944  23610713.15348
 -13303826.88848 -10366611.91446         0.00041  21898365.30146  21898365.48048
 97 03 27 02 52 00.0000000  0  7 06 10 17 22 23 26 30
 -19591645.52148 -15266207.72346         0.00041  20370635.76146  20370636.18948
  -2592618.83848  -2020214.85845         0.00041  22609928.60945  22609928.65348
 -12018862.25348  -9365341.83446         0.00041  21801089.69346  21801089.21748
   -982223.31148   -765368.61841         0.00041         0.00041  24620774.28148
   -905812.03148   -705825.92144         0.00041  23557759.48244  23557757.64248
   -873185.71448   -680403.78144         0.00041  23597088.14644  23597090.39948
 -13215581.19148 -10297849.07146         0.00041  21915158.71646  21915158.09148
 97 03 27 02 52 30.0000000  0  7 06 10 17 22 23 26 30
 -19612795.15548 -15282687.96046         0.00041  20366611.30746  20366611.67748
  -2508390.92948  -1954582.73445         0.00041  22625957.10245  22625957.08848
 -12068694.41348  -9404172.06446         0.00041  21791607.08446  21791606.46848
  -1061997.89548         0.00041         0.00041         0.00041  24605592.78948
  -1005608.99548   -783589.75944         0.00041  23538767.31944  23538766.91148
   -944621.90248   -736068.29341         0.00041         0.00041  23583497.05348
 -13127038.93648 -10228855.11046         0.00041  21932007.14546  21932007.02248
 97 03 27 02 53 00.0000000  0  7 06 10 17 22 23 26 30
 -19633571.15949 -15298877.05746         0.00041  20362657.60146  20362658.03049
  -2423827.98048  -1888689.51145         0.00041  22642048.59145  22642049.17048
 -12118287.48348  -9442815.99546         0.00041  21782169.18146  21782168.91548
  -1141436.79248   -889431.07244         0.00041  24590476.56944  24590476.69648
  -1105215.19548   -861204.97044         0.00041  23519812.26444  23519812.13648
  -1015853.90548   -791573.75244         0.00041  23569940.89144  23569941.64048
 -13038170.12248 -10159606.68846         0.00041  21948917.93346  21948918.40248
 97 03 27 02 53 30.0000000  0  7 06 10 17 22 23 26 30
 -19653981.86648 -15314781.48546         0.00041  20358773.65146  20358774.00348
  -2338959.85548  -1822558.51045         0.00041  22658198.05045  22658198.54548
 -12167667.90748  -9481294.22846         0.00041  21772772.91046  21772772.35848
  -1220551.70848   -951079.12541         0.00041         0.00041  24575421.48648
  -1204651.11348   -938687.47144         0.00041  23500893.46844  23500890.39848
  -1086902.01648   -846935.88744         0.00041  23556420.24944  23556421.61648
 -12949001.71048 -10090124.80446         0.00041  21965886.54646  21965886.88648
 97 03 27 02 54 00.0000000  0  7 06 10 17 22 23 26 30
 -19674048.62748 -15330417.92046         0.00041  20354955.18146  20354955.36748
  -2253803.81548  -1756203.18445         0.00041  22674403.53845  22674403.49548
 -12216867.60548  -9519631.63546         0.00041  21763410.87546  21763409.92648
  -1299355.51948  -1012484.59444         0.00041  24560422.70744  24560425.64348
  -1303937.04248  -1016053.11044         0.00041  23481997.55644  23481996.53248
  -1157774.22348   -902160.93944         0.00041  23542935.61144  23542934.70948
 -12859550.66248 -10020422.71646         0.00041  21982907.68646  21982908.28548
 97 03 27 02 54 30.0000000  0  7 06 10 17 22 23 26 30
 -19693745.17148 -15345765.87846         0.00041  20351206.91346  20351207.39148
  -2168304.69248  -1689580.47745         0.00041  22690673.47745  22690673.36648
 -12265853.82048  -9557802.68646         0.00041  21754088.94746  21754087.89948
  -1377799.23547  -1073609.54041         0.00041         0.00041  24545498.51847
  -1403005.06548  -1093248.95744         0.00041  23463145.91644  23463144.88448
  -1228408.16048   -957200.36244         0.00041  23529495.54544  23529494.17248
 -12769766.99348  -9950461.43046         0.00041  21999993.51046  21999993.46348
 97 03 27 02 55 00.0000000  0  7 06 10 17 22 23 26 30
 -19713119.26549 -15360862.57746         0.00041  20347519.99646  20347520.60049
  -2082499.25748  -1622719.11545         0.00041  22707002.33545  22707001.43248
 -12314648.95148  -9595824.85046         0.00041  21744803.31446  21744802.73248
  -1455929.20648  -1134490.05144         0.00041  24530630.46744  24530631.09648
  -1501874.62348  -1170290.16044         0.00041  23444330.24544  23444330.44248
  -1298827.76448  -1012072.73344         0.00041  23516093.96944  23516093.36448
 -12679683.46148  -9880266.47046         0.00041  22017135.99946  22017135.98448
 97 03 27 02 55 30.0000000  0  7 06 10 17 22 23 26 30
 -19732164.61048 -15375703.10446         0.00041  20343895.84546  20343896.18348
  -1996378.99348  -1555612.42245         0.00041  22723389.51345  22723389.40348
 -12363239.15048  -9633687.31646         0.00041  21735557.18046  21735556.50848
  -1533748.07047  -1195128.06241         0.00041         0.00041  24515821.78147
  -1600530.36148  -1247164.70144         0.00041  23425556.71344  23425557.09548
  -1369029.90848  -1066775.70344         0.00041  23502735.03244  23502734.68948
 -12589290.37048  -9809830.31346         0.00041  22034337.34846  22034337.16048
 97 03 27 02 56 00.0000000  0  7 06 10 17 22 23 26 30
 -19750901.57848 -15390303.33946         0.00041  20340330.49446  20340330.55048
  -1909956.96848  -1488270.59845         0.00041  22739834.58745  22739835.00848
 -12411631.52348  -9671395.64046         0.00041  21726348.35146  21726347.61748
  -1611258.42847  -1255525.76041         0.00041         0.00041  24501072.01047
  -1698989.80948  -1323886.33544         0.00041  23406821.84444  23406821.15248
  -1439026.56248  -1121318.50944         0.00041  23489414.00344  23489414.50748
 -12498610.32248  -9739170.53746         0.00041  22051593.13446  22051592.95048
 97 03 27 02 56 30.0000000  0  7 06 10 17 22 23 26 30
 -19769239.82148 -15404592.88946         0.00041  20336840.83946  20336841.18748
  -1823168.34948  -1420643.10845         0.00041  22756350.31245  22756350.51648
 -12459730.02148  -9708874.97446         0.00041  21717195.20346  21717194.61848
  -1688373.50848  -1315615.39244         0.00041  24486398.76344  24486397.80348
  -1797174.60348  -1400393.94344         0.00041  23388138.68144  23388136.86248
  -1508730.38548  -1175633.15144         0.00041  23476152.17044  23476150.39448
 -12407560.91148  -9668222.94246         0.00041  22068919.03846  22068919.46748
 97 03 27 02 57 00.0000000  0  7 06 10 17 22 23 26 30
 -19787245.49748 -15418623.29946         0.00041  20333414.24546  20333414.61048
  -1736119.55348  -1352812.86745         0.00041  22772915.56645  22772915.09348
 -12507594.65648  -9746172.06646         0.00041  21708086.77146  21708086.16448
  -1765165.48148  -1375453.23541         0.00041         0.00041  24471784.40648
  -1895194.16048  -1476772.76444         0.00041  23369486.42744  23369484.40948
  -1578225.72648  -1229785.36144         0.00041  23462926.02044  23462925.06248
 -12316226.55448  -9597053.33846         0.00041  22086299.94146  22086299.63848
 97 03 27 02 57 30.0000000  0  7 06 10 17 22 23 26 30
 -19804879.97248 -15432364.46246         0.00041  20330058.90246  20330059.10148
  -1648800.15448  -1284771.77245         0.00041  22789532.23445  22789531.81448
 -12555218.87648  -9783281.82346         0.00041  21699024.27146  21699023.64848
  -1841600.92648  -1435013.28641         0.00041         0.00041  24457239.94348
  -1993039.15748  -1553015.61344         0.00041  23350865.78044  23350864.67848
  -1647489.99948  -1283757.46944         0.00041  23449742.96444  23449744.01248
 -12224598.03748  -9525654.52546         0.00041  22103735.81546  22103735.92748
 97 03 27 02 58 00.0000000  0  7 06 10 17 22 23 26 30
 -19822102.68848 -15445784.75946         0.00041  20326781.43146  20326781.65048
  -1561177.54948  -1216494.41845         0.00041  22806205.53545  22806205.91548
 -12602566.60648  -9820176.13446         0.00041  21690014.12246  21690013.61648
  -1917638.21048  -1494263.09644         0.00041  24442768.90244  24442770.11448
  -2090670.72648  -1629092.12144         0.00041  23332287.85344  23332285.77348
  -1716468.55448  -1337506.96644         0.00041  23436618.13644  23436617.92248
 -12132635.84848  -9453995.71546         0.00041  22121235.74646  22121236.09148
 97 03 27 02 58 30.0000000  0  7 06 10 17 22 23 26 30
 -19838992.22949 -15458945.43746         0.00041  20323567.33046  20323567.82649
  -1473338.21848  -1148048.19945         0.00041  22822920.50545  22822921.09148
 -12649718.85748  -9856918.12546         0.00041  21681041.12746  21681040.80548
  -1993362.88548  -1553269.33044         0.00041  24428361.90344  24428359.72248
  -2188153.48948  -1705052.67344         0.00041  23313737.12244  23313735.46248
  -1785227.92648  -1391085.66944         0.00041  23423533.16544  23423533.42848
 -12040422.12048  -9382140.91246         0.00041  22138782.60546  22138783.41948
 97 03 27 02 59 00.0000000  0  7 06 10 17 22 23 26 30
 -19855544.81849 -15471843.56146         0.00041  20320417.35746  20320417.93149
  -1385278.78648  -1079430.46545         0.00041  22839678.74545  22839677.55448
 -12696688.14248  -9893517.54046         0.00041  21672103.85846  21672103.08848
  -2068772.63948  -1612030.14844         0.00041  24414010.86444  24414010.61448
  -2285477.56148  -1780889.58045         0.00041  23295217.34045  23295215.35048
  -1853764.31848  -1444490.64044         0.00041  23410492.07044  23410492.37048
 -11947970.36748  -9310100.61046         0.00041  22156376.71446  22156376.61348
 97 03 27 02 59 30.0000000  0  7 06 10 17 22 23 26 30
 -19871715.94549 -15484444.43046         0.00041  20317340.13146  20317340.64549
  -1296933.51248  -1010590.00345         0.00041  22856490.29145  22856490.07248
 -12743439.99748  -9929947.53046         0.00041  21663206.82446  21663206.35448
  -2143828.15048  -1670514.96144         0.00041  24399728.03244  24399727.70348
  -2382584.57348  -1856557.35545         0.00041  23276738.34345  23276736.21348
  -1922029.70348  -1497684.41044         0.00041  23397502.16444  23397501.71048
 -11855234.88248  -9237839.18846         0.00041  22174024.00546  22174023.43848
 97 03 27 03 00 00.0000000  0  7 06 10 17 22 23 26 30
 -19887495.51548 -15496740.18846         0.00041  20314337.57946  20314337.73748
  -1208269.70648   -941501.34245         0.00041  22873361.62945  22873361.99148
 -12789938.15048  -9966179.83046         0.00041  21654358.74146  21654358.28648
  -2218508.36148  -1728707.35044         0.00041  24385519.49744  24385516.32648
  -2479446.07048  -1932033.81544         0.00041  23258306.07144  23258304.34948
  -1990002.02648  -1550649.84344         0.00041  23384567.37044  23384566.84848
 -11762188.07848  -9165335.17746         0.00041  22191729.32846  22191729.35748
 97 03 27 03 00 30.0000000  0  7 06 10 17 22 23 26 30
 -19902898.74048 -15508742.71246         0.00041  20311406.47946  20311406.65048
  -1119315.24748   -872186.17245         0.00041  22890289.20245  22890288.94648
 -12836208.77248 -10002234.83846         0.00041  21645553.50646  21645553.16448
  -2292828.28648  -1786618.92644         0.00041  24371373.44444  24371374.56648
  -2576091.28948  -2007341.74144         0.00041  23239914.16644  23239913.54648
  -2057716.75948  -1603414.52344         0.00041  23371680.83144  23371681.95348
 -11668851.19448  -9092605.11746         0.00041  22209490.75746  22209491.21148
 97 03 27 03 01 00.0000000  0  7 06 10 17 22 23 26 30
 -19917941.42048 -15520464.28546         0.00041  20308543.78646  20308544.10948
  -1030073.32648   -802647.01945         0.00041  22907270.88945  22907271.23648
 -12882270.99348 -10038127.45446         0.00041  21636788.46946  21636787.93648
  -2366800.44448  -1844259.55944         0.00041  24357296.13444  24357297.81448
  -2672539.94148  -2082496.50744         0.00041  23221561.34844  23221559.09848
  -2125192.54148  -1655993.04044         0.00041  23358840.51644  23358840.54448
 -11575233.94348  -9019656.60846         0.00041  22227306.40446  22227305.95148
 97 03 27 03 01 30.0000000  0  7 06 10 17 22 23 26 30
 -19932603.95449 -15531889.62846         0.00041  20305753.48346  20305753.88949
   -940518.36048   -732863.93045         0.00041  22924313.68545  22924313.35148
 -12928094.13148 -10073833.77046         0.00041  21628068.45646  21628067.98548
  -2440394.80648  -1901605.80444         0.00041  24343292.65644  24343293.20048
  -2768761.47948  -2157474.30345         0.00041  23203251.71345  23203248.75448
  -2192391.14348  -1708355.58044         0.00041  23346053.87344  23346053.33148
 -11481303.87948  -8946464.37446         0.00041  22245179.57046  22245179.83648
 97 03 27 03 02 00.0000000  0  7 06 10 17 22 23 26 30
 -19946919.15549 -15543044.32746         0.00041  20303029.52746  20303029.96149
   -850714.90248   -662887.20045         0.00041  22941402.57545  22941402.86248
 -12973728.10248 -10109392.68446         0.00041  21619385.04446  21619383.91648
  -2513638.29948  -1958678.61441         0.00041         0.00041  24329354.93248
  -2864794.31948  -2232305.06645         0.00041  23184975.81745  23184975.29548
  -2259344.12748  -1760526.69744         0.00041  23333312.73644  23333312.63548
 -11387107.72548  -8873064.81346         0.00041  22263104.68446  22263105.17848
 97 03 27 03 02 30.0000000  0  7 06 10 17 22 23 26 30
 -19960829.03448 -15553883.18246         0.00041  20300382.38446  20300382.72948
   -760619.72148   -592683.17145         0.00041  22958547.29745  22958547.29548
 -13019132.74448 -10144772.90046         0.00041  21610744.28446  21610743.69148
  -2586475.92648  -2015435.18541         0.00041         0.00041  24315494.06648
  -2960575.91848  -2306940.05145         0.00041  23166750.14345  23166749.46448
  -2325989.69448  -1812458.29344         0.00041  23320630.54844  23320630.77148
 -11292602.05848  -8799424.07046         0.00041  22281088.90446  22281088.91348
 97 03 27 03 03 00.0000000  0  7 06 10 17 22 23 26 30
 -19974312.67848 -15564389.89746         0.00041  20297816.68546  20297817.10648
   -670586.97648         0.00041         0.00041         0.00041  22975745.53248
 -13064299.67748 -10179967.88946         0.00041  21602149.20746  21602148.81348
  -2658895.44848  -2071866.03544         0.00041  24301711.26344  24301712.68548
  -3056080.04148  -2381358.82345         0.00041  23148575.90445  23148574.42448
  -2392290.88148  -1864121.52444         0.00041  23308013.94044  23308014.09648
 -11197796.82248  -8725549.88546         0.00041  22299130.19946  22299129.62448
 97 03 27 03 03 30.0000000  0  6 06 17 22 23 26 30
 -19987395.37748 -15574584.20546         0.00041  20295327.08146  20295327.51148
 -13109261.35548 -10215002.94746         0.00041  21593593.28846  21593592.80648
  -2730931.42748  -2127997.89341         0.00041         0.00041  24288005.81848
  -3151344.33148  -2455590.70745         0.00041  23130446.18845  23130445.62048
  -2458290.08448  -1915549.43244         0.00041  23295453.38244  23295454.44448
 -11102740.76648  -8651480.25946         0.00041  22317218.70746  22317218.17948
 97 03 27 03 04 00.0000000  0  6 06 17 22 23 26 30
 -20000105.33848 -15584488.07346         0.00041  20292908.42846  20292908.88048
 -13154050.48748 -10249903.54246         0.00041  21585070.07346  21585069.61248
  -2802615.86948  -2183855.91044         0.00041  24274364.87244  24274364.75248
  -3246396.57548  -2529657.36845         0.00041  23112359.14845  23112358.72848
  -2524034.29448  -1966778.67344         0.00041  23282943.62244  23282944.06048
 -11007474.49948  -8577246.82646         0.00041  22335346.49946  22335346.71248
 97 03 27 03 04 30.0000000  0  7 06 10 17 22 23 26 30
 -20012466.43948 -15594120.11246         0.00041  20290556.25346  20290556.54948
        -0.44058        -0.22954         0.00051  23027617.71454  23027617.81258
 -13198677.24448 -10284677.61846         0.00041  21576577.73446  21576577.13448
  -2873966.76848  -2239453.96241         0.00041         0.00041  24260786.27648
  -3341249.42348  -2603568.66245         0.00041  23094309.23345  23094308.61948
  -2589539.10048  -2017821.33544         0.00041  23270480.59144  23270478.63548
 -10912012.96948  -8502861.22146         0.00041  22353512.93846  22353513.14148
 97 03 27 03 05 00.0000000  0  7 06 10 17 22 23 26 30
 -20024448.64048 -15603456.89946         0.00041  20288276.11846  20288276.47548
     91306.36848     71147.91644         0.00041  23044992.20344  23044993.30648
 -13243101.57548 -10319293.95646         0.00041  21568123.87346  21568123.73948
  -2944935.68948  -2294754.38544         0.00041  24247282.58744  24247282.29348
  -3435884.40648  -2677310.17045         0.00041  23076301.59845  23076300.19248
  -2654779.94748  -2068658.33544         0.00041  23258064.62544  23258063.18848
 -10816315.84448  -8428292.04245         0.00041  22371722.76945  22371723.33048
 97 03 27 03 05 30.0000000  0  7 06 10 17 22 23 26 30
 -20036026.81348 -15612478.84746         0.00041  20286072.83746  20286073.35248
    182910.47448    142527.75144         0.00041  23062424.61244  23062424.80348
 -13287266.87048 -10353708.44846         0.00041  21559719.82046  21559719.35048
  -3015477.07048         0.00041         0.00041         0.00041  24233858.36648
  -3530257.16148  -2750847.35444         0.00041  23058341.30844  23058341.68748
  -2719721.04248  -2119261.77344         0.00041  23245706.06744  23245705.63948
 -10720316.94748  -8353487.70845         0.00041  22389991.07245  22389991.05948
 97 03 27 03 06 00.0000000  0  7 06 10 17 22 23 26 30
 -20047244.07048 -15621219.55546         0.00041  20283938.29946  20283938.70748
    274781.15848    214115.29145         0.00041  23079907.19645  23079906.74948
 -13331215.79948 -10387954.35146         0.00041  21551356.42546  21551356.03848
  -3085625.11048         0.00041         0.00041         0.00041  24220509.26048
  -3624394.89648  -2824201.41945         0.00041  23040429.51245  23040427.74248
  -2784387.41548  -2169651.15044         0.00041  23233400.56844  23233399.97248
 -10624051.44248  -8278475.64345         0.00041  22408309.62645  22408309.61348
 97 03 27 03 06 30.0000000  0  7 06 10 17 22 23 26 30
 -20058102.60448 -15629680.74146         0.00041  20281871.81646  20281872.20548
    366900.38148    285896.50344         0.00041  23097435.88144  23097436.55548
 -13374964.83748 -10422044.48246         0.00041  21543031.20946  21543030.69948
  -3155396.17848         0.00041         0.00041         0.00041  24207232.58148
  -3718321.65948  -2897391.07345         0.00041  23022555.40045  23022554.24448
  -2848785.88348  -2219831.72144         0.00041  23221144.81544  23221146.39148
 -10527532.04348  -8203265.73045         0.00041  22426677.22145  22426677.31448
 97 03 27 03 07 00.0000000  0  7 06 10 17 22 23 26 30
 -20068550.25748 -15637821.75846         0.00041  20279883.86146  20279884.24048
    459324.45948    357915.27544         0.00041  23115025.13944  23115024.32548
 -13418443.79948 -10455924.17446         0.00041  21534757.90446  21534757.34948
  -3224747.82948         0.00041         0.00041         0.00041  24194036.03148
  -3811975.98948  -2970368.43845         0.00041  23004732.74645  23004732.46148
  -2912854.40748  -2269755.21344         0.00041  23208954.88844  23208954.40048
 -10430713.51448  -8127822.74445         0.00041  22445100.61745  22445100.91348
 97 03 27 03 07 30.0000000  0  7 06 10 17 22 23 26 30
 -20078636.01448 -15645680.79846         0.00041  20277964.52346  20277964.90748
    551992.88548    430124.37645         0.00041  23132659.86645  23132659.10048
 -13461710.54748 -10489638.51146         0.00041  21526524.26046  21526523.70048
  -3293752.56248         0.00041         0.00041         0.00041  24180903.98448
  -3905397.82548  -3043164.65245         0.00041  22986954.97645  22986954.27148
  -2976642.37348  -2319460.10544         0.00041  23196816.47744  23196815.89248
 -10333667.67548  -8052202.63745         0.00041  22463568.61145  22463568.29448
 97 03 27 03 08 00.0000000  0  7 06 10 17 22 23 26 30
 -20088291.36648 -15653204.44946         0.00041  20276127.05246  20276127.64148
    644915.75348    502531.80444         0.00041  23150340.33044  23150341.49548
 -13504738.67448 -10523166.89346         0.00041  21518336.33346  21518335.92148
  -3362359.75847  -2620019.85841         0.00041         0.00041  24167848.05447
  -3998551.33248  -3115751.79445         0.00041  22969228.70745  22969228.13748
  -3040108.99648  -2368914.59444         0.00041  23184739.25944  23184738.12948
 -10236366.92448  -7976383.90245         0.00041  22482084.31845  22482083.98948
 97 03 27 03 08 30.0000000  0  7 06 10 17 22 23 26 30
 -20097570.70348 -15660435.09546         0.00041  20274361.48046  20274361.93148
    738018.23748    575079.21044         0.00041  23168058.04344  23168057.89548
 -13547581.15648 -10556550.62946         0.00041  21510183.21846  21510182.90048
  -3430621.52647  -2673210.85041         0.00041         0.00041  24154857.74847
  -4091502.29048  -3188181.06245         0.00041  22951540.77645  22951540.17348
  -3103300.60348  -2418154.79344         0.00041  23172711.80844  23172712.35348
 -10138874.83948  -7900416.07045         0.00041  22500635.61145  22500635.80648
 97 03 27 03 09 00.0000000  0  7 06 10 17 22 23 26 30
 -20106480.15049 -15667377.51946         0.00041  20272666.02046  20272666.53749
    831290.95748    647759.25544         0.00041  23185806.05844  23185806.86748
 -13590235.94748 -10589788.11146         0.00041  21502066.68946  21502066.17648
  -3498528.59547  -2726125.41044         0.00041  24141935.53644  24141936.02747
  -4184241.95348  -3260445.70745         0.00041  22933893.57145  22933891.91248
  -3166198.82148  -2467166.35044         0.00041  23160742.32444  23160743.54448
 -10041188.67348  -7824296.99445         0.00041  22519225.50445  22519225.40948
 97 03 27 03 09 30.0000000  0  7 06 10 17 22 23 26 30
 -20114939.64848 -15673969.32646         0.00041  20271056.30446  20271056.66048
    924793.66948    720618.50044         0.00041  23203601.21144  23203599.91648
 -13632662.14448 -10622847.47046         0.00041  21493993.44946  21493992.72848
  -3566002.45348  -2778702.45344         0.00041  24129096.17544  24129095.43248
  -4276720.26748  -3332506.70545         0.00041  22916294.73945  22916293.42448
  -3228745.41948  -2515903.94044         0.00041  23148842.72644  23148841.78848
  -9943240.47748  -7747973.74645         0.00041  22537865.06145  22537864.47448
 97 03 27 03 10 00.0000000  0  7 06 10 17 22 23 26 30
 -20122935.15148 -15680199.55746         0.00041  20269534.67246  20269535.02248
   1018559.67248    793682.91744         0.00041  23221444.00144  23221442.97848
 -13674841.65548 -10655714.60046         0.00041  21485966.61446  21485966.09648
  -3633019.33648  -2830923.35244         0.00041  24116344.74644  24116343.53148
  -4368927.41248  -3404356.37645         0.00041  22898749.47045  22898747.21748
  -3290916.38048  -2564348.83944         0.00041  23137009.83544  23137010.60548
  -9845007.82348  -7671428.83345         0.00041  22556556.37945  22556557.07648
 97 03 27 03 10 30.0000000  0  7 06 10 17 22 23 26 30
 -20130579.07848 -15686155.84746         0.00041  20268080.22146  20268080.61848
   1112509.98748    866890.95444         0.00041  23239322.18944  23239321.42448
 -13716845.32248 -10688444.70746         0.00041  21477973.73146  21477972.92648
  -3699684.31748  -2882870.07544         0.00041  24103658.76944  24103657.36248
  -4460943.81648  -3476057.44245         0.00041  22881240.19345  22881237.43748
  -3352792.65248  -2612564.10044         0.00041  23125236.72844  23125236.43048
  -9746584.42048  -7594735.28245         0.00041  22575285.78845  22575286.15348
 97 03 27 03 11 00.0000000  0  7 06 10 17 22 23 26 30
 -20137828.40048 -15691804.67546         0.00041  20266700.46746  20266700.94848
   1206698.05848    940284.25144         0.00041  23257244.86144  23257245.17948
 -13758623.11048 -10720998.81446         0.00041  21470023.17146  21470023.04548
  -3765956.76548  -2934510.96744         0.00041  24091046.42244  24091046.28948
  -4552710.39648  -3547563.83145         0.00041  22863775.68945  22863774.37448
  -3414340.23048  -2660523.22744         0.00041  23113522.90244  23113524.32148
  -9647924.19048  -7517857.21345         0.00041  22594061.06345  22594061.21648
 97 03 27 03 11 30.0000000  0  7 06 10 17 22 23 26 30
 -20144657.17548 -15697125.81946         0.00041  20265401.08846  20265401.39148
   1301145.18748   1013879.38944         0.00041  23275218.43944  23275218.36848
 -13800151.44248 -10753358.53146         0.00041  21462121.19146  21462120.43848
  -3831800.82648  -2985818.01144         0.00041  24078513.93344  24078516.06048
  -4644192.31348  -3618848.40745         0.00041  22846367.57745  22846366.60548
  -3475542.62948  -2708213.38744         0.00041  23101877.20344  23101877.80248
  -9549027.80148  -7440795.10545         0.00041  22612880.82845  22612880.90748
 97 03 27 03 12 00.0000000  0  7 06 10 17 22 23 26 30
 -20151085.17948 -15702134.66946         0.00041  20264177.71246  20264178.24348
   1395833.62648   1087662.59444         0.00041  23293235.46044  23293236.33848
 -13841432.38448 -10785525.48546         0.00041  21454265.31746  21454264.68648
  -3897222.80548  -3036796.15744         0.00041  24066067.58444  24066067.21248
  -4735383.27348  -3689906.27345         0.00041  22829013.94845  22829013.24148
  -3536396.20248  -2755631.74644         0.00041  23090298.08144  23090297.42048
  -9449919.31048  -7363567.71745         0.00041  22631739.67845  22631740.06048
 97 03 27 03 12 30.0000000  0  7 06 10 17 22 23 26 30
 -20157161.79748 -15706869.70046         0.00041  20263021.72746  20263022.13348
   1490695.38248   1161580.86044         0.00041  23311287.52744  23311288.08548
 -13882523.74748 -10817544.70546         0.00041  21446446.20146  21446445.42348
  -3962269.07748  -3087481.55744         0.00041  24053687.75344  24053689.77148
  -4826324.28248  -3760769.37645         0.00041  22811709.08245  22811708.10948
  -3597339.14948         0.00041         0.00041         0.00041  23078771.40948
  -9350658.53148  -7286221.65745         0.00041  22650629.48245  22650629.37448
 97 03 27 03 13 00.0000000  0  6 06 10 17 22 23 30
 -20162782.57549 -15711249.50446         0.00041  20261951.93946  20261952.47449
   1585813.36548   1235698.75344         0.00041  23329388.82844  23329388.67248
 -13923354.62748 -10849360.96346         0.00041  21438676.10446  21438675.65248
  -4026832.66748  -3137790.80144         0.00041  24041404.08544  24041404.10648
  -4916930.81048  -3831371.83245         0.00041  22794466.78845  22794465.76848
  -9251165.47948  -7208694.61845         0.00041  22669561.93745  22669562.27248
 97 03 27 03 13 30.0000000  0  6 06 10 17 22 23 30
 -20168000.10848 -15715315.10146         0.00041  20260959.07346  20260959.46548
   1681130.23648   1309971.61044         0.00041  23347526.58544  23347527.00548
 -13964001.06548 -10881033.49546         0.00041  21430941.58146  21430940.81948
  -4090976.35348  -3187772.89244         0.00041  24029198.07744  24029197.58448
  -5007278.41048  -3901772.52945         0.00041  22777273.56045  22777272.75348
  -9151505.08648  -7131037.18245         0.00041  22688527.00245  22688526.87748
 97 03 27 03 14 00.0000000  0  6 06 10 17 22 23 30
 -20172843.40448 -15719089.10946         0.00041  20260037.47046  20260038.00448
   1776625.58748   1384383.58044         0.00041  23365698.92544  23365698.78048
 -14004483.51148 -10912578.24346         0.00041  21423237.92746  21423237.29748
  -4154735.51348  -3237455.36644         0.00041  24017064.37244  24017064.60448
  -5097400.70048  -3971997.66645         0.00041  22760123.77145  22760123.56448
  -9051676.64048  -7053248.80345         0.00041  22707523.07345  22707523.40648
 97 03 27 03 14 30.0000000  0  6 06 10 17 22 23 30
 -20177267.97348 -15722536.83246         0.00041  20259195.55846  20259195.94148
   1872328.52348   1458957.29144         0.00041  23383911.79944  23383910.75848
 -14044766.86248 -10943967.85046         0.00041  21415572.05446  21415571.62448
  -4218071.37748  -3286807.95144         0.00041  24005011.56244  24005011.95048
  -5187264.54248  -4042021.40445         0.00041  22743024.58045  22743022.58948
  -8951638.92148  -6975297.35045         0.00041  22726560.20345  22726559.62548
 97 03 27 03 15 00.0000000  0  6 06 10 17 22 23 30
 -20181213.78448 -15725611.48646         0.00041  20258444.50546  20258444.98648
   1968292.95248   1533734.74544         0.00041  23402171.82544  23402171.22648
 -14084788.81348 -10975153.77846         0.00041  21407956.20046  21407955.86648
  -4280926.20248  -3335785.71744         0.00041  23993052.59444  23993050.88448
  -5276818.98248  -4111804.07745         0.00041  22725981.97545  22725981.30548
  -8851330.15048  -6897134.67145         0.00041  22745647.78145  22745647.74848
 97 03 27 03 15 30.0000000  0  7 06 10 17 22 23 26 30
 -20184699.25248 -15728327.43346         0.00041  20257781.30346  20257781.77948
   2064499.47348   1608700.86344         0.00041  23420480.49244  23420479.04148
 -14124551.81348 -11006137.91546         0.00041  21400389.57546  21400389.02648
  -4343307.49448  -3384394.52544         0.00041  23981181.24744  23981180.76448
  -5366065.79848  -4181347.00445         0.00041  22708999.72945  22708998.44948
        -0.40058         0.42454         0.00051  23011043.46354  23011044.01458
  -8750754.22948  -6818763.83045         0.00041  22764787.07345  22764787.13948
 97 03 27 03 16 00.0000000  0  7 06 10 17 22 23 26 30
 -20187821.05848 -15730759.99946         0.00041  20257187.36346  20257187.77448
   2160822.67648   1683757.87844         0.00041  23438809.10244  23438808.56548
 -14164143.31848 -11036988.42846         0.00041  21392855.35446  21392855.07748
  -4405308.57548  -3432707.04244         0.00041  23969382.80344  23969382.29248
  -5455089.54848  -4250716.13345         0.00041  22692059.48345  22692057.68948
    -58099.83548    -45271.84244         0.00041  22999989.43344  22999988.76748
  -8650023.65048  -6740272.49445         0.00041  22783955.95945  22783955.47048
 97 03 27 03 16 30.0000000  0  7 06 10 17 22 23 26 30
 -20190536.83648 -15732876.18946         0.00041  20256670.30846  20256670.63748
   2257293.71448   1758930.14344         0.00041  23457165.59044  23457166.87148
 -14203531.40848 -11067680.42646         0.00041  21385359.95746  21385359.60148
  -4466897.25748  -3480698.20944         0.00041  23957662.53944  23957662.25748
  -5543853.35648  -4319882.70145         0.00041  22675167.51945  22675166.55248
   -115859.47048    -90279.32044         0.00041  22988998.39344  22988997.90248
  -8549126.02248  -6661650.97045         0.00041  22803155.92845  22803155.60748
 97 03 27 03 17 00.0000000  0  7 06 10 17 22 23 26 30
 -20192817.99549 -15734653.71846         0.00041  20256236.35046  20256236.81049
   2353952.68648   1834248.82844         0.00041  23475558.75544  23475560.62448
 -14242692.64148 -11098195.65846         0.00041  21377907.87546  21377907.49048
  -4528058.82748  -3528356.57744         0.00041  23946023.34044  23946022.96148
  -5632339.67848  -4388833.05545         0.00041  22658328.30245  22658327.80648
   -173247.25548   -134997.08244         0.00041  22978076.33844  22978076.78848
  -8448039.81648  -6582882.50445         0.00041  22822390.98845  22822390.92548
 97 03 27 03 17 30.0000000  0  6 06 10 17 23 26 30
 -20194671.07948 -15736097.70446         0.00041  20255883.78446  20255884.17448
   2450798.47848   1909713.07444         0.00041  23493990.76844  23493989.53348
 -14281633.29248 -11128539.00646         0.00041  21370497.98646  21370497.42548
  -5720545.56648  -4457564.89545         0.00041  22641544.38045  22641543.03948
   -230272.11648   -179432.01644         0.00041  22967225.55044  22967224.71048
  -8346780.44748  -6503979.10045         0.00041  22841660.71945  22841660.39148
 97 03 27 03 18 00.0000000  0  6 06 10 17 23 26 30
 -20196078.76548 -15737194.62746         0.00041  20255616.11146  20255616.55048
   2547853.11548   1985340.06744         0.00041  23512456.70444  23512457.63048
 -14320339.40648 -11158699.60146         0.00041  21363132.41146  21363131.86348
  -5808461.25848  -4526070.58945         0.00041  22624814.36945  22624813.22148
   -286937.80748   -223587.09244         0.00041  22956441.49544  22956442.05948
  -8245340.43848  -6424934.97745         0.00041  22860964.71445  22860964.13848
 97 03 27 03 18 30.0000000  0  6 06 10 17 23 26 30
 -20197069.99048 -15737967.00646         0.00041  20255427.12846  20255427.52048
   2645110.59448   2061125.09644         0.00041  23530966.37544  23530965.80548
 -14358841.91048 -11188701.53646         0.00041  21355805.52746  21355804.96048
  -5896106.79548  -4594365.78345         0.00041  22608135.68745  22608134.59948
   -343260.69748   -267475.04845         0.00041  22945725.22645  22945724.50848
  -8143728.05248  -6345756.51545         0.00041  22880301.03445  22880300.27748
 97 03 27 03 19 00.0000000  0  6 06 10 17 23 26 30
 -20197662.86548 -15738428.97146         0.00041  20255314.38946  20255314.93448
   2742536.67848   2137041.53444         0.00041  23549505.77944  23549505.17848
 -14397162.27948 -11218561.55346         0.00041  21348513.39046  21348512.82948
  -5983481.47348  -4662449.92345         0.00041  22591508.69445  22591507.66048
   -399256.48248   -311108.14145         0.00041  22935068.72245  22935068.60448
  -8041958.59148  -6266455.66645         0.00041  22899665.58545  22899666.42048
 97 03 27 03 19 30.0000000  0  6 06 10 17 23 26 30
 -20197852.90648 -15738577.04446         0.00041  20255278.15646  20255278.58548
   2840128.55148   2213087.14444         0.00041  23568076.71544  23568076.12948
 -14435292.12848 -11248273.10446         0.00041  21341257.32146  21341257.01248
  -6070556.16848  -4730300.29845         0.00041  22574938.85145  22574937.77148
   -454913.10848   -354476.89845         0.00041  22924477.69645  22924477.67848
  -7940027.67648  -6187029.00045         0.00041  22919063.52245  22919063.17548
 97 03 27 03 20 00.0000000  0  7 06 10 17 22 23 26 30
 -20197571.28948 -15738357.56846         0.00041  20255331.81146  20255332.29148
   2937955.90848   2289316.24544         0.00041  23586691.81144  23586692.27948
 -14473176.44348 -11277793.33746         0.00041  21334048.15846  21334047.70148
        -0.43658        -0.49451         0.00051         0.00051  23877899.78758
  -6157269.29748  -4797868.93845         0.00041  22558438.51745  22558436.61448
   -510159.15948   -397525.78345         0.00041  22913965.78845  22913964.66948
  -7837879.22848  -6107432.82345         0.00041  22938501.57145  22938501.27548
 97 03 27 03 20 30.0000000  0  7 06 10 17 22 23 26 30
 -20196846.25148 -15737792.58346         0.00041  20255469.58046  20255470.19648
   3035980.05948   2365698.70744         0.00041  23605346.61544  23605345.64148
 -14510857.98848 -11307155.56446         0.00041  21326877.67246  21326877.21248
    -58120.68048    -45288.95444         0.00041  23866845.06644  23866839.06148
  -6243640.45148  -4865171.11045         0.00041  22542001.74845  22542000.31648
   -565010.49348   -440267.05745         0.00041  22903526.66345  22903526.59748
  -7735559.53448  -6027703.18045         0.00041  22957971.93045  22957971.59048
 97 03 27 03 21 00.0000000  0  7 06 10 17 22 23 26 30
 -20195740.72248 -15736931.12846         0.00041  20255680.19846  20255680.71248
   3134127.87248   2442177.50944         0.00041  23624023.26444  23624022.95148
 -14548398.69448 -11336408.05146         0.00041  21319733.92546  21319733.70248
   -115858.89848    -90279.80244         0.00041  23855852.24944  23855852.67548
  -6329747.37948  -4932267.39645         0.00041  22525616.17745  22525615.21548
   -619532.62748   -482751.82345         0.00041  22893150.63745  22893151.82448
  -7633149.76448  -5947903.35045         0.00041  22977460.08845  22977459.56148
 97 03 27 03 21 30.0000000  0  7 06 10 17 22 23 26 30
 -20194239.32248 -15735761.22446         0.00041  20255965.74746  20255966.19348
   3232432.17948   2518778.24744         0.00041  23642729.94744  23642729.58248
 -14585768.46348 -11365527.34046         0.00041  21312622.81046  21312622.38848
   -173198.30748   -134959.87844         0.00041  23844943.20544  23844941.77248
  -6415592.12148  -4999159.37745         0.00041  22509280.89245  22509279.67148
   -673690.40048   -524952.68045         0.00041  22882845.38245  22882845.96348
  -7530632.99748  -5868020.16944         0.00041  22996968.43544  22996967.62148
 97 03 27 03 22 00.0000000  0  7 06 10 17 22 23 26 30
 -20192318.73748 -15734264.67346         0.00041  20256331.33346  20256331.76648
   3330909.74648   2595514.03344         0.00041  23661469.40344  23661468.92848
 -14622933.05548 -11394486.74846         0.00041  21305550.44846  21305550.13248
   -230104.22148   -179302.10244         0.00041  23834113.48644  23834113.07548
  -6501156.58048  -5065832.96746         0.00041  22492998.92246  22492997.29048
   -727439.40848   -566834.99945         0.00041  22872617.55445  22872617.16848
  -7427989.94148  -5788038.58445         0.00041  23016501.06045  23016500.50948
 97 03 27 03 22 30.0000000  0  7 06 10 17 22 23 26 30
 -20189945.46348 -15732415.36246         0.00041  20256783.04946  20256783.58048
   3429576.84248   2672397.44844         0.00041  23680245.30744  23680244.95748
 -14659842.86148 -11423247.62346         0.00041  21298526.71546  21298526.50848
   -286513.37648   -223257.33844         0.00041  23823379.11644  23823378.57248
  -6586408.90148  -5132263.31246         0.00041  22476775.79046  22476774.23748
   -780735.25848   -608364.20845         0.00041  22862474.42145  22862475.03748
  -7325171.52048  -5707920.32845         0.00041  23036066.18645  23036066.22348
 97 03 27 03 23 00.0000000  0  7 06 10 17 22 23 26 30
 -20187136.78848 -15730226.76146         0.00041  20257317.40846  20257317.81648
   3528419.98148   2749418.08644         0.00041  23699055.04944  23699054.39148
 -14696502.08248 -11451813.24046         0.00041  21291550.81446  21291550.31748
   -342435.48048   -266832.96644         0.00041  23812738.62544  23812737.17648
  -6671379.18148  -5198473.88946         0.00041  22460606.20346  22460605.31248
   -833589.38848   -649549.24745         0.00041  22852417.23145  22852417.61848
  -7222185.26148  -5627671.29445         0.00041  23055664.13545  23055663.52548
 97 03 27 03 23 30.0000000  0  6 06 17 22 23 26 30
 -20183893.11448 -15727699.19946         0.00041  20257934.55446  20257935.04248
 -14732929.07948 -11480197.90246         0.00041  21284619.19646  21284618.67748
   -397883.43548   -310039.15044         0.00041  23802183.25844  23802185.30848
  -6756062.38948  -5264460.78746         0.00041  22444491.45046  22444490.50748
   -886007.75648   -690394.72744         0.00041  22842442.50344  22842443.04748
  -7119038.72348  -5547297.39744         0.00041  23075292.28044  23075291.93748
 97 03 27 03 24 00.0000000  0  6 06 17 22 23 26 30
 -20180273.02748 -15724878.34546         0.00041  20258623.42346  20258623.84548
 -14769201.73648 -11508462.29446         0.00041  21277716.37746  21277715.91648
   -452913.07848   -352919.43044         0.00041  23791714.25644  23791713.93248
  -6840508.03748  -5330262.57146         0.00041  22428422.31746  22428420.86848
   -938072.31348   -730964.47845         0.00041  22832535.18845  22832535.69248
  -7015791.64548  -5466845.13745         0.00041  23094940.67345  23094940.10248
 97 03 27 03 24 30.0000000  0  6 06 17 22 23 26 30
 -20176219.08348 -15721719.43846         0.00041  20259394.99146  20259395.40548
 -14805290.14548 -11536583.12046         0.00041  21270848.97346  21270848.44348
   -507483.82848   -395442.05144         0.00041  23781328.97644  23781329.05148
  -6924681.17248  -5395852.00046         0.00041  22412403.60246  22412403.39348
   -989756.42348   -771237.80845         0.00041  22822699.52845  22822700.51448
  -6912392.73148  -5386274.54545         0.00041  23114615.09245  23114615.71748
 97 03 27 03 25 00.0000000  0  6 06 17 22 23 26 30
 -20171682.80448 -15718184.68546         0.00041  20260258.31046  20260258.79248
 -14841165.42048 -11564537.87246         0.00041  21264022.25646  21264021.72548
   -561577.75548   -437593.16544         0.00041  23771033.90744  23771035.77748
  -7008542.22148  -5461198.24046         0.00041  22396445.66546  22396444.88648
  -1041023.93048   -811186.50245         0.00041  22812943.69445  22812943.98448
  -6808809.62948  -5305560.42745         0.00041  23134327.01145  23134327.10648
 97 03 27 03 25 30.0000000  0  6 06 17 22 23 26 30
 -20166671.24148 -15714279.58146         0.00041  20261211.81546  20261212.26848
 -14876827.50248 -11592326.49746         0.00041  21257236.24246  21257235.70148
   -615204.74748   -479380.44044         0.00041  23760831.56044  23760830.03448
  -7092080.76948  -5526293.17746         0.00041  22380548.60346  22380547.61848
  -1091881.69248   -850815.90245         0.00041  22803266.71145  22803266.25948
  -6705047.44648  -5224706.78844         0.00041  23154072.92444  23154072.19248
 97 03 27 03 26 00.0000000  0  6 06 17 22 23 26 30
 -20161201.20648 -15710017.21246         0.00041  20262252.72146  20262253.21048
 -14912274.85448 -11619947.79546         0.00041  21250490.32646  21250490.22548
   -668379.15248   -520815.03944         0.00041  23750712.24744  23750712.54348
  -7175301.48048  -5591140.45846         0.00041  22364712.17546  22364711.53248
  -1142336.69348   -890131.50245         0.00041  22793665.74445  22793665.62948
  -6601122.89548  -5143726.61545         0.00041  23173847.86445  23173848.04348
 97 03 27 03 26 30.0000000  0  6 06 17 22 23 26 30
 -20155385.41548 -15705485.42146         0.00041  20263359.70046  20263360.12948
 -14947613.46048 -11647484.35846         0.00041  21243765.52546  21243765.34448
   -721221.52448   -561990.88744         0.00041  23740656.51244  23740656.82748
  -7258307.11148  -5655820.16246         0.00041  22348917.12446  22348915.80948
  -1192488.94148   -929211.13644         0.00041  22784121.25544  22784121.42548
  -6497162.04648  -5062718.16044         0.00041  23193630.92244  23193631.07548
 97 03 27 03 27 00.0000000  0  6 06 17 22 23 26 30
 -20149162.59048 -15700636.47146         0.00041  20264543.75146  20264544.18548
 -14982758.04848 -11674869.73746         0.00041  21237077.97846  21237077.68348
   -773654.53348   -602847.77544         0.00041  23730677.61444  23730678.90048
  -7341000.25248  -5720256.34745         0.00041  22333181.09845  22333180.09348
  -1242252.21148   -967987.69745         0.00041  22774650.57145  22774652.02948
  -6393108.73748  -4981637.65044         0.00041  23213433.16344  23213431.81348
 97 03 27 03 27 30.0000000  0  6 06 17 22 23 26 30
 -20142445.06848 -15695402.05746         0.00041  20265822.19946  20265822.68248
 -15017615.91648 -11702031.70346         0.00041  21230444.53646  21230444.18748
   -825568.29048   -643300.07144         0.00041  23720800.72544  23720800.35748
  -7423273.14348  -5784365.07546         0.00041  22317524.79746  22317524.05548
  -1291530.84048  -1006386.62345         0.00041  22765274.30345  22765274.71948
  -6288888.03948  -4900426.73844         0.00041  23233264.28344  23233264.46348
 97 03 27 03 28 00.0000000  0  6 06 17 22 23 26 30
 -20135316.25748 -15689847.14146         0.00041  20267178.51546  20267179.05848
 -15052277.56648 -11729040.77246         0.00041  21223848.61846  21223848.55548
   -877043.00248   -683410.24744         0.00041  23711004.33944  23711004.97748
  -7505229.03948  -5848226.78646         0.00041  22301929.22246  22301928.62448
  -1340409.21648  -1044473.65445         0.00041  22755973.42045  22755973.44648
  -6184601.07748  -4819164.18745         0.00041  23253110.44645  23253110.08248
 97 03 27 03 28 30.0000000  0  6 06 17 22 23 26 30
 -20127714.96348 -15683924.07546         0.00041  20268625.11746  20268625.47148
 -15086700.11548 -11755863.53146         0.00041  21217298.40646  21217298.23848
   -928004.73648   -723120.64644         0.00041  23701306.31344  23701306.66748
  -7586841.94448  -5911821.22746         0.00041  22286398.91746  22286397.81848
  -1388834.74848  -1082207.83145         0.00041  22746757.45445  22746757.82448
  -6080196.58048  -4737810.04844         0.00041  23272977.14844  23272977.34148
 97 03 27 03 29 00.0000000  0  6 06 17 22 23 26 30
 -20119619.14748 -15677615.65446         0.00041  20270165.77646  20270166.14448
 -15120868.88448 -11782488.53546         0.00041  21210796.27046  21210795.80548
   -978432.67448   -762415.17944         0.00041  23691710.09144  23691710.50848
  -7668113.61148  -5975149.76146         0.00041  22270933.03046  22270932.69148
  -1436785.16648  -1119571.77345         0.00041  22737632.67745  22737633.10048
  -5975654.22048  -4656348.47145         0.00041  23292872.91545  23292871.30248
 97 03 27 03 29 30.0000000  0  6 06 17 22 23 26 30
 -20111044.59748 -15670934.19146         0.00041  20271797.30346  20271797.80848
 -15154814.13448 -11808939.36546         0.00041  21204336.52846  21204336.17548
  -1028356.60748   -801316.92844         0.00041  23682208.99344  23682210.20048
  -7749076.27548  -6038237.53546         0.00041  22255526.60046  22255525.70948
  -1484292.26948  -1156590.28645         0.00041  22728592.36445  22728592.67848
  -5870993.84448  -4574794.92244         0.00041  23312788.13344  23312787.37848
 97 03 27 03 30 00.0000000  0  6 06 17 22 23 26 30
 -20102000.69948 -15663886.99446         0.00041  20273518.36746  20273518.81248
 -15188556.83848 -11835232.37046         0.00041  21197915.56446  21197915.21848
  -1077791.73548   -839837.82044         0.00041  23672801.30944  23672802.71948
  -7829746.50348  -6101097.43346         0.00041  22240176.36846  22240174.67948
  -1531360.67748  -1193266.94645         0.00041  22719637.49345  22719636.19148
  -5766210.97448  -4493145.90844         0.00041  23332727.13644  23332726.80748
 97 03 27 03 30 30.0000000  0  6 06 17 22 23 26 30
 -20092548.38448 -15656521.55046         0.00041  20275316.93446  20275317.36448
 -15222174.00948 -11861427.55646         0.00041  21191518.46746  21191518.16748
  -1126805.36848   -878030.26044         0.00041  23663476.64344  23663476.23148
  -7910160.31348  -6163757.51146         0.00041  22224873.46146  22224872.37448
  -1578041.52648  -1229641.63545         0.00041  22710751.59245  22710753.38148
  -5661357.90548  -4411442.24444         0.00041  23352679.12744  23352679.52048
 97 03 27 03 31 00.0000000  0  6 06 17 22 23 26 30
 -20082621.94548 -15648786.66346         0.00041  20277206.04846  20277206.41748
 -15255573.97848 -11887453.49446         0.00041  21185162.48046  21185162.35448
  -1175335.15648   -915845.70544         0.00041  23654242.26244  23654240.99848
  -7990205.52548  -6226130.37346         0.00041  22209640.63346  22209639.86848
  -1624250.06348  -1265648.27945         0.00041  22701959.46345  22701959.52448
  -5556360.66048  -4329626.23244         0.00041  23372660.75144  23372660.32048
 97 03 27 03 31 30.0000000  0  6 06 17 22 23 26 30
 -20072250.50548 -15640705.01146         0.00041  20279179.42546  20279179.86548
 -15288777.01448 -11913325.98146         0.00041  21178844.42146  21178844.02348
  -1223399.23448   -953298.19144         0.00041  23645096.33244  23645094.88448
  -8069892.53748  -6288224.12446         0.00041  22194477.38646  22194476.51348
  -1670010.60148  -1301305.82745         0.00041  22693251.97145  22693251.51048
  -5451246.86048  -4247719.36944         0.00041  23392662.22944  23392662.68948
 97 03 27 03 32 00.0000000  0  6 06 17 22 23 26 30
 -20061474.41748 -15632308.07546         0.00041  20281230.43146  20281230.73648
 -15321812.15748 -11939067.64446         0.00041  21172557.98746  21172557.68548
  -1271020.15048   -990405.43144         0.00041  23636035.24844  23636032.88348
  -8149262.64848  -6350070.93246         0.00041  22179373.54146  22179372.44448
  -1715348.32848  -1336633.90545         0.00041  22684624.16745  22684624.51548
  -5346053.64548  -4165750.62744         0.00041  23412679.72944  23412680.59848
 97 03 27 03 32 30.0000000  0  6 06 17 22 23 26 30
 -20050246.92748 -15623559.39446         0.00041  20283366.84246  20283367.22148
 -15354605.78448 -11964621.11246         0.00041  21166317.51646  21166317.25948
  -1318142.00848  -1027123.76244         0.00041  23627066.41744  23627066.03548
  -8228271.25848  -6411636.06346         0.00041  22164338.89046  22164337.46148
  -1760227.61348  -1371604.75645         0.00041  22676084.80045  22676084.29548
  -5240755.34248  -4083699.99744         0.00041  23432717.75144  23432717.12948
 97 03 27 03 33 00.0000000  0  6 06 17 22 23 26 30
 -20038583.77448 -15614471.22646         0.00041  20285586.00446  20285586.49448
 -15387178.27248 -11990002.25746         0.00041  21160119.37246  21160118.83448
  -1364785.29348  -1063469.16244         0.00041  23618187.88444  23618189.98848
  -8306960.95948  -6472952.68646         0.00041  22149364.60346  22149363.58948
  -1804687.50548  -1406248.82145         0.00041  22667623.53745  22667623.64148
  -5135396.20948  -4001601.98544         0.00041  23452766.55844  23452767.12748
 97 03 27 03 33 30.0000000  0  7 06 17 21 22 23 26 30
 -20026495.49448 -15605051.77846         0.00041  20287886.66846  20287887.30548
 -15419574.49548 -12015246.05646         0.00041  21153954.60346  21153954.19348
        -1.00757         0.00051         0.00051         0.00051  25210668.95957
  -1410979.65548  -1099464.75744         0.00041  23609398.96244  23609399.30448
  -8385369.43048  -6534050.17046         0.00041  22134443.78346  22134443.02548
  -1848754.24148  -1440586.52145         0.00041  22659239.28545  22659237.99948
  -5029998.34948  -3919473.78344         0.00041  23472823.21744  23472823.62948
 97 03 27 03 34 00.0000000  0  7 06 17 21 22 23 26 30
 -20013955.81748 -15595280.60046         0.00041  20290272.80946  20290273.20348
 -15451768.93048 -12040332.62046         0.00041  21147828.23546  21147827.91848
    -99410.04847         0.00041         0.00041         0.00041  25191752.75847
  -1456701.48248  -1135092.15044         0.00041  23600699.53344  23600698.76548
  -8463468.57348  -6594906.62646         0.00041  22119582.17946  22119581.38348
  -1892395.88248  -1474592.99245         0.00041  22650932.63045  22650933.61348
  -4924539.85348  -3837298.33844         0.00041  23492890.84844  23492891.68048
 97 03 27 03 34 30.0000000  0  7 06 17 21 22 23 26 30
 -20000899.72748 -15585107.04746         0.00041  20292757.27146  20292757.61648
 -15483706.76548 -12065219.22846         0.00041  21141750.30446  21141750.16848
   -198702.52147         0.00041         0.00041         0.00041  25172858.16447
  -1501902.41448  -1170313.64444         0.00041  23592099.61844  23592097.93148
  -8541189.27148  -6655468.18646         0.00041  22104792.35946  22104791.63448
  -1935562.41548  -1508229.23845         0.00041  22642719.23145  22642719.15048
  -4818971.03548  -3755036.93744         0.00041  23512979.82744  23512980.72548
 97 03 27 03 35 00.0000000  0  7 06 17 21 22 23 26 30
 -19987358.36448 -15574555.36146         0.00041  20295333.95346  20295334.35648
 -15515442.51848 -12089948.37046         0.00041  21135711.48046  21135710.99748
   -297927.69047         0.00041         0.00041         0.00041  25153975.49747
  -1546613.97348  -1205153.82844         0.00041  23583589.20844  23583589.75448
  -8618545.23848  -6715745.52746         0.00041  22090072.29846  22090071.19148
  -1978266.32048  -1541504.99045         0.00041  22634591.95845  22634593.11048
  -4713304.12048  -3672699.08444         0.00041  23533088.44744  23533087.83248
 97 03 27 03 35 30.0000000  0  7 06 17 21 22 23 26 30
 -19973370.14748 -15563655.45946         0.00041  20297995.79546  20297996.36848
 -15546979.81648 -12114522.87246         0.00041  21129709.73946  21129709.59448
   -397101.05647         0.00041         0.00041         0.00041  25135103.85747
  -1590839.26848  -1239615.09144         0.00041  23575174.78044  23575173.71248
  -8695552.56248  -6775751.21546         0.00041  22075418.42246  22075417.27148
  -2020516.33648  -1574427.07245         0.00041  22626552.35345  22626552.97048
  -4607553.20548  -3590295.77644         0.00041  23553212.76544  23553211.31948
 97 03 27 03 36 00.0000000  0  6 06 17 22 23 26 30
 -19958976.74048 -15552439.83146         0.00041  20300735.08546  20300735.36248
 -15578349.87748 -12138967.06646         0.00041  21123740.37746  21123739.95648
  -1634607.33648  -1273720.09444         0.00041  23566844.26344  23566844.98048
  -8772252.53348  -6835517.39346         0.00041  22060823.08146  22060821.84148
  -2062355.24648  -1607028.81245         0.00041  22618590.13545  22618590.89648
  -4501772.85448  -3507869.51744         0.00041  23573339.99644  23573341.05648
 97 03 27 03 36 30.0000000  0  6 06 17 22 23 26 30
 -19944156.10648 -15540891.32146         0.00041  20303555.20846  20303555.59548
 -15609552.03948 -12163280.42846         0.00041  21117802.87046  21117802.40448
  -1677904.76948  -1307458.33544         0.00041  23558605.34644  23558605.50348
  -8848635.26748  -6895036.39046         0.00041  22046286.38446  22046285.85548
  -2103766.79948  -1639297.56145         0.00041  22610710.55645  22610710.81048
  -4395946.52148  -3425407.44944         0.00041  23593478.40244  23593479.99948
 97 03 27 03 37 00.0000000  0  6 06 17 22 23 26 30
 -19928921.46548 -15529020.18746         0.00041  20306454.36946  20306454.74548
 -15640603.21448 -12187476.14246         0.00041  21111893.61846  21111893.51748
  -1720746.98848  -1340841.90444         0.00041  23550455.00644  23550453.46648
  -8924718.81048  -6954322.24246         0.00041  22031808.57046  22031807.80948
  -2144740.78448  -1671225.32145         0.00041  22602913.15945  22602913.61648
  -4290083.89848  -3342917.11144         0.00041  23613624.47644  23613624.79748
 97 03 27 03 37 30.0000000  0  6 06 17 22 23 26 30
 -19913183.46448 -15516756.80246         0.00041  20309449.10046  20309449.57348
 -15671411.17048 -12211482.32446         0.00041  21106031.58346  21106031.28848
  -1763066.20948  -1373817.93144         0.00041  23542400.26844  23542399.42948
  -9000445.09748  -7013329.71946         0.00041  22017398.73446  22017397.94748
  -2185205.06248  -1702755.93945         0.00041  22595212.95545  22595213.56748
  -4184124.70048  -3260351.49644         0.00041  23633788.56444  23633788.16248
 97 03 27 03 38 00.0000000  0  6 06 17 22 23 26 30
 -19896931.92748 -15504093.26546         0.00041  20312541.86046  20312542.25148
 -15701991.84248 -12235311.41346         0.00041  21100212.10546  21100211.80448
  -1804889.63648  -1406407.58744         0.00041  23534441.49544  23534441.63248
  -9075806.47648  -7072052.84146         0.00041  22003057.88546  22003057.10348
  -2225157.60048  -1733887.76945         0.00041  22587610.06645  22587610.87748
  -4078067.07348  -3177709.16144         0.00041  23653971.82844  23653969.63948
 97 03 27 03 38 30.0000000  0  6 06 17 22 23 26 30
 -19880183.87748 -15491042.84646         0.00041  20315728.91846  20315729.13548
 -15732342.13148 -12258960.96846         0.00041  21094436.91346  21094436.45848
  -1846224.48848  -1438616.55644         0.00041  23526576.30744  23526575.66648
  -9150799.25348  -7130488.75146         0.00041  21988787.01046  21988786.44148
  -2264590.98948  -1764615.08045         0.00041  22580106.38545  22580106.99948
  -3971901.18448  -3094982.49944         0.00041  23674171.74244  23674172.22948
 97 03 27 03 39 00.0000000  0  6 06 17 22 23 26 30
 -19862949.63548 -15477613.56746         0.00041  20319008.37446  20319008.74148
 -15762458.03148 -12282427.90446         0.00041  21088705.88846  21088705.58848
  -1887075.35548  -1470448.38244         0.00041  23518801.88144  23518801.64448
  -9225428.93748  -7188641.73146         0.00041  21974585.95746  21974584.87648
  -2303511.48748  -1794942.72545         0.00041  22572700.12945  22572700.77448
  -3865644.32048  -3012184.97844         0.00041  23694393.31644  23694391.94948
 97 03 27 03 39 30.0000000  0  6 06 17 22 23 26 30
 -19845232.06248 -15463807.65546         0.00041  20322379.95946  20322380.39048
 -15792339.61148 -12305712.24146         0.00041  21083019.43146  21083018.90848
  -1927426.70148  -1501890.99844         0.00041  23511124.63844  23511122.39448
  -9299687.80648  -7246505.76846         0.00041  21960454.35346  21960453.75848
  -2341930.67048  -1824879.74545         0.00041  22565390.76245  22565389.70748
  -3759294.98248  -2929315.38644         0.00041  23714629.83144  23714630.46748
 97 03 27 03 40 00.0000000  0  6 06 17 22 23 26 30
 -19827048.66148 -15449638.78746         0.00041  20325840.07646  20325840.44148
 -15822019.63848 -12328839.52046         0.00041  21077371.43346  21077370.99548
  -1967273.40848  -1532940.39844         0.00041  23503541.67144  23503540.45548
  -9373570.74448  -7304076.86546         0.00041  21946394.95346  21946394.57548
  -2379851.70748  -1854428.59245         0.00041  22558172.93945  22558172.51248
  -3652868.96148  -2846385.95544         0.00041  23734882.36944  23734882.65248
 97 03 27 03 40 30.0000000  0  6 06 17 22 23 26 30
 -19808449.00148 -15435145.56346         0.00041  20329379.65846  20329380.12148
 -15851563.57748 -12351860.75246         0.00041  21071749.57246  21071749.20948
  -2006649.36348  -1563622.94644         0.00041  23496048.48144  23496047.14348
  -9447140.90548  -7361404.24046         0.00041  21932395.27646  21932394.42048
  -2417330.67648  -1883632.97445         0.00041  22551040.25545  22551040.99848
  -3546448.13748  -2763460.62844         0.00041  23755132.63244  23755133.56248
 97 03 27 03 41 00.0000000  0  6 06 17 22 23 26 30
 -19789332.92648 -15420249.93546         0.00041  20333017.12546  20333017.53648
 -15880897.00348 -12374717.95546         0.00041  21066167.36846  21066167.14448
  -2045456.56948  -1593862.36444         0.00041  23488663.60744  23488662.52148
  -9520321.70148  -7418428.21846         0.00041  21918469.04746  21918468.50748
  -2454291.09248  -1912433.28345         0.00041  22544008.41845  22544008.39848
  -3439976.19748  -2680495.45544         0.00041  23775395.59944  23775394.58748
 97 03 27 03 41 30.0000000  0  6 06 17 22 23 26 30
 -19769772.14448 -15405007.79746         0.00041  20336739.57146  20336739.94648
 -15910078.16648 -12397456.51546         0.00041  21060614.57046  21060614.17548
  -2083761.93248  -1623710.70344         0.00041  23481374.27444  23481374.20948
  -9593175.04348  -7475197.03946         0.00041  21904605.63746  21904605.02348
  -2490798.92448  -1940880.91945         0.00041  22537060.30645  22537060.97248
  -3333526.56948  -2597547.73144         0.00041  23795650.35944  23795651.46848
 97 03 27 03 42 00.0000000  0  6 06 17 22 23 26 30
 -19749757.37248 -15389411.88946         0.00041  20340548.25846  20340548.75148
 -15939089.29848 -12420062.58246         0.00041  21055093.97146  21055093.67048
  -2121569.53648  -1653171.18244         0.00041  23474179.33444  23474179.38348
  -9665693.00648  -7531704.52046         0.00041  21890806.20646  21890805.47048
  -2526844.57348  -1968968.44745         0.00041  22530201.41545  22530201.80548
  -3227101.26248  -2514618.96444         0.00041  23815902.38944  23815902.66548
 97 03 27 03 42 30.0000000  0  6 06 17 22 23 26 30
 -19729291.18348 -15373464.22746         0.00041  20344442.91746  20344443.23448
 -15967904.51448 -12442515.98546         0.00041  21049610.51146  21049610.15848
  -2158897.08048  -1682257.57944         0.00041  23467078.21244  23467075.79548
  -9737882.34148  -7587955.92546         0.00041  21877068.64246  21877068.04748
  -2562442.61148  -1996707.16245         0.00041  22523427.64445  22523427.70648
  -3120694.05248  -2431704.26544         0.00041  23836152.27344  23836152.17748
 97 03 27 03 43 00.0000000  0  6 06 17 22 23 26 30
 -19708417.72648 -15357199.21346         0.00041  20348415.03946  20348415.43948
 -15996546.88848 -12464834.71246         0.00041  21044160.07546  21044159.51148
  -2195793.43848  -1711008.00744         0.00041  23460055.11744  23460054.53248
  -9809772.23748  -7643973.99846         0.00041  21863388.84646  21863387.94948
  -2597626.44348  -2024123.13545         0.00041  22516731.32345  22516732.50648
  -3014308.02348  -2348806.01544         0.00041  23856396.50244  23856396.33148
 97 03 27 03 43 30.0000000  0  6 06 17 22 23 26 30
 -19687079.49648 -15340572.02546         0.00041  20352475.32546  20352475.83348
 -16024961.97848 -12486976.32546         0.00041  21038752.95846  21038752.42248
  -2232209.02448  -1739383.81144         0.00041  23453125.88144  23453124.66248
  -9881284.39248  -7699697.72946         0.00041  21849780.66846  21849779.69348
  -2632319.80148  -2051156.91745         0.00041  22510130.47345  22510130.33648
  -2907856.62948  -2265856.83244         0.00041  23876653.22544  23876653.12448
 97 03 27 03 44 00.0000000  0  6 06 17 22 23 26 30
 -19665223.41548 -15323541.31746         0.00041  20356634.44746  20356634.89848
 -16053115.02448 -12508913.74346         0.00041  21033395.41046  21033395.06948
  -2268088.28148  -1767341.67644         0.00041  23446297.92344  23446297.61448
  -9952370.35748  -7755089.37546         0.00041  21836252.93146  21836252.66048
  -2666465.14948  -2077763.68145         0.00041  22503632.62045  22503632.99648
  -2801286.38248  -2182815.09944         0.00041  23896934.62144  23896933.09948
 97 03 27 03 44 30.0000000  0  6 06 17 22 23 26 30
 -19642952.89348 -15306187.66146         0.00041  20360872.57546  20360872.89148
 -16081111.04148 -12530728.81846         0.00041  21028067.75646  21028067.70348
  -2303507.71848  -1794941.25044         0.00041  23439557.04044  23439557.60448
 -10023129.39348  -7810226.26346         0.00041  21822788.03546  21822787.23848
  -2700144.26948  -2104007.13645         0.00041  22497223.73545  22497224.20948
  -2694702.17348  -2099762.48844         0.00041  23917215.93444  23917215.72048
 97 03 27 03 45 00.0000000  0  6 06 17 22 23 26 30
 -19620199.53448 -15288457.77146         0.00041  20365202.03146  20365202.40148
 -16108892.01148 -12552376.31946         0.00041  21022781.28146  21022781.25048
  -2338380.19948  -1822114.59644         0.00041  23432922.52544  23432921.58748
 -10093478.43948  -7865043.66846         0.00041  21809401.39846  21809400.28848
  -2733256.16948  -2129808.61745         0.00041  22490922.76645  22490923.12948
  -2588048.50648  -2016655.78144         0.00041  23937509.17544  23937510.54148
 97 03 27 03 45 30.0000000  0  7 06 17 21 22 23 26 30
 -19596998.83848 -15270379.31246         0.00041  20369617.18046  20369617.56648
 -16136495.41548 -12573885.45446         0.00041  21017528.63946  21017528.45948
        -0.90957         0.00051         0.00051         0.00051  24761585.54957
  -2372737.34748  -1848886.39944         0.00041  23426382.25444  23426383.47748
 -10163465.33548  -7919578.89346         0.00041  21796083.00046  21796082.20548
  -2765844.10648  -2155201.80845         0.00041  22484720.73945  22484721.50848
  -2481408.96648  -1933560.01641         0.00041         0.00041  23957803.20748
 97 03 27 03 46 00.0000000  0  7 06 17 21 22 23 26 30
 -19573359.36148 -15251958.96146         0.00041  20374115.61746  20374115.96148
 -16163922.85748 -12595257.47746         0.00041  21012309.55446  21012309.37448
    -96972.87748         0.00041         0.00041         0.00041  24743132.25148
  -2406586.11148  -1875262.06144         0.00041  23419942.77544  23419942.28748
 -10233115.28848  -7973851.55946         0.00041  21782829.10346  21782828.55448
  -2797937.98348  -2180210.03445         0.00041  22478613.94745  22478614.34648
  -2374816.93848  -1850501.31044         0.00041  23978088.61544  23978087.70948
 97 03 27 03 46 30.0000000  0  7 06 17 21 22 23 26 30
 -19549195.98548 -15233130.37846         0.00041  20378713.85446  20378714.19948
 -16191096.22748 -12616431.51646         0.00041  21007138.40346  21007138.21148
   -193764.04848   -150984.34541         0.00041         0.00041  24724714.29248
  -2439866.44048  -1901194.83144         0.00041  23413609.34244  23413609.13648
 -10302353.96548  -8027803.76046         0.00041  21769653.68746  21769652.62748
  -2829471.41748  -2204781.53145         0.00041  22472613.28345  22472613.75248
  -2268197.62048  -1767421.27044         0.00041  23998375.65344  23998376.70948
 97 03 27 03 47 00.0000000  0  7 06 17 21 22 23 26 30
 -19524547.66548 -15213923.90446         0.00041  20383404.30446  20383404.58348
 -16218074.26748 -12637453.35046         0.00041  21002004.67646  21002004.23748
   -290446.32047         0.00041         0.00041         0.00041  24706315.55247
  -2472660.73948  -1926748.80744         0.00041  23407369.12544  23407369.03648
 -10371249.17348  -8081488.31046         0.00041  21756542.87646  21756542.26348
  -2860516.04748  -2228972.14545         0.00041  22466706.17145  22466706.57348
  -2161598.42648  -1684356.95144         0.00041  24018660.94644  24018661.85948
 97 03 27 03 47 30.0000000  0  7 06 17 21 22 23 26 30
 -19499378.42248 -15194311.51246         0.00041  20388194.07046  20388194.17448
 -16244831.50748 -12658303.14546         0.00041  20996912.96246  20996912.52448
   -387006.35547         0.00041         0.00041         0.00041  24687940.11147
  -2504951.72648  -1951910.61644         0.00041  23401223.52644  23401223.57548
 -10439781.00748  -8134889.71946         0.00041  21743502.04046  21743500.93448
  -2891068.98948  -2252779.61845         0.00041  22460892.18845  22460892.22148
  -2054984.81748  -1601281.45044         0.00041  24038944.15844  24038948.68348
 97 03 27 03 48 00.0000000  0  6 06 17 22 23 26 30
 -19473704.21048 -15174305.64246         0.00041  20393079.39146  20393079.80448
 -16271381.22948 -12678991.23346         0.00041  20991860.70646  20991860.33348
  -2536756.78048  -1976693.80144         0.00041  23395170.68244  23395171.22248
 -10507952.52948  -8188010.35746         0.00041  21730529.10346  21730528.36348
  -2921135.70448  -2276208.23245         0.00041  22455169.77345  22455170.68348
  -1948345.98848  -1518186.22144         0.00041  24059241.22144  24059242.70148
 97 03 27 03 48 30.0000000  0  6 06 17 22 23 26 30
 -19447579.63048 -15153948.83346         0.00041  20398050.70546  20398051.18448
 -16297778.99848 -12699560.90846         0.00041  20986837.31446  20986836.82648
  -2568118.68948  -2001131.67444         0.00041  23389203.70844  23389203.21048
 -10575801.46348  -8240879.63546         0.00041  21717617.71546  21717617.09048
  -2950750.31148  -2299284.54745         0.00041  22449535.33845  22449535.20648
  -1841725.88248  -1435105.55644         0.00041  24079531.40144  24079531.62248
 97 03 27 03 49 00.0000000  0  6 06 17 22 23 26 30
 -19420966.99948 -15133211.73546         0.00041  20403115.10146  20403115.52648
 -16323980.11748 -12719977.34646         0.00041  20981851.50346  20981851.37248
  -2598966.22748  -2025168.72644         0.00041  23383334.08144  23383333.15048
 -10643271.69548  -8293453.82746         0.00041  21704778.75446  21704778.15248
  -2979850.31148  -2321959.86745         0.00041  22443997.57745  22443997.94648
  -1735091.10148  -1352013.50944         0.00041  24099822.66844  24099823.99548
 97 03 27 03 49 30.0000000  0  7 06 17 21 22 23 26 30
 -19393899.43948 -15112120.16046         0.00041  20408265.82646  20408266.19448
 -16349998.52648 -12740251.42546         0.00041  20976899.95546  20976899.94248
        -0.85157         0.00051         0.00051         0.00051  24614614.55757
  -2629300.23248  -2048805.62344         0.00041  23377561.00544  23377560.64448
 -10710367.88048  -8345736.54346         0.00041  21692010.67246  21692010.13448
  -3008444.31448  -2344240.90245         0.00041  22438556.84845  22438556.53048
  -1628472.15448  -1268933.88944         0.00041  24120114.95044  24120113.28148
 97 03 27 03 50 00.0000000  0  7 06 17 21 22 23 26 30
 -19366368.79548 -15090667.72946         0.00041  20413504.76946  20413505.19248
 -16375815.63348 -12760368.64146         0.00041  20971987.34546  20971987.11448
    -96047.81248         0.00041         0.00041         0.00041  24596338.12348
  -2659090.61748  -2072018.90744         0.00041  23371892.96244  23371891.94648
 -10777069.64748  -8397711.92046         0.00041  21679317.70146  21679317.18848
  -3036495.52848  -2366098.97145         0.00041  22433217.75645  22433218.09848
  -1521848.51448  -1185850.51444         0.00041  24140401.48644  24140402.31948
 97 03 27 03 50 30.0000000  0  7 06 17 21 22 23 26 30
 -19338392.83548 -15068868.29846         0.00041  20418828.64846  20418829.04948
 -16401457.17448 -12780349.05446         0.00041  20967108.11646  20967107.70648
   -191953.92247         0.00041         0.00041         0.00041  24578087.50247
  -2688352.39848  -2094820.31444         0.00041  23366324.75844  23366323.14148
 -10843399.66948  -8449397.63546         0.00041  21666695.55746  21666694.64048
  -3064011.87748  -2387540.29045         0.00041  22427981.27345  22427982.34748
  -1415250.15948  -1102786.86044         0.00041  24160687.77144  24160687.08548
 97 03 27 03 51 00.0000000  0  7 06 17 21 22 23 26 30
 -19309939.07048 -15046696.55346         0.00041  20424243.05246  20424243.43748
 -16426875.87348 -12800155.82346         0.00041  20962270.88746  20962270.62648
   -287674.06247         0.00041         0.00041         0.00041  24559872.59847
  -2717059.81348  -2117189.72444         0.00041  23360861.93044  23360860.91048
 -10909337.59548  -8500777.80946         0.00041  21654148.01946  21654147.13348
  -3090957.62048  -2408536.97845         0.00041  22422853.93145  22422854.49048
  -1308643.33748  -1019716.57844         0.00041  24180973.21644  24180973.58348
 97 03 27 03 51 30.0000000  0  7 06 17 21 22 23 26 30
 -19281069.34048 -15024200.67046         0.00041  20429736.89246  20429737.13048
 -16452132.88848 -12819836.60146         0.00041  20957464.80046  20957464.51848
   -383268.58347         0.00041         0.00041         0.00041  24541680.31547
  -2745287.11348  -2139185.02645         0.00041  23355488.43745  23355489.25148
 -10974951.28648  -8551905.34146         0.00041  21641661.69346  21641661.57748
  -3117417.21348  -2429154.82945         0.00041  22417819.19645  22417819.83948
  -1202090.57748   -936688.42044         0.00041  24201250.26744  24201250.60748
 97 03 27 03 52 00.0000000  0  7 06 17 21 22 23 26 30
 -19251719.46548 -15001330.65946         0.00041  20435321.86046  20435322.21948
 -16477174.47848 -12839349.52046         0.00041  20952699.43546  20952699.05448
   -478681.95648   -372997.58641         0.00041         0.00041  24523524.39148
  -2772974.53548  -2160759.60944         0.00041  23350221.66844  23350220.76248
 -11040183.10648  -8602735.30746         0.00041  21629248.83546  21629248.50648
  -3143337.21648  -2449352.24345         0.00041  22412887.70045  22412887.36748
  -1095542.82548   -853664.15641         0.00041         0.00041  24221525.21948
 97 03 27 03 52 30.0000000  0  7 06 17 21 22 23 26 30
 -19221876.72348 -14978076.61646         0.00041  20441000.85846  20441001.24148
 -16501988.83148 -12858685.37246         0.00041  20947977.49646  20947977.22348
   -573917.01948   -447206.67244         0.00041  24505402.21044  24505402.86548
  -2800125.45148  -2181916.18244         0.00041  23345054.37644  23345054.34148
 -11105027.02048  -8653263.01146         0.00041  21616909.09846  21616908.66148
  -3168711.60948  -2469124.52445         0.00041  22408058.11645  22408059.10448
   -989006.89848   -770649.11244         0.00041  24241798.92544  24241798.70848
 97 03 27 03 53 00.0000000  0  7 06 17 21 22 23 26 30
 -19191611.98648 -14954493.73346         0.00041  20446760.10646  20446760.50048
 -16526652.65148 -12877903.91446         0.00041  20943283.67846  20943283.74048
   -669070.93648   -521352.58644         0.00041  24487295.77144  24487295.27948
  -2826822.88748  -2202719.36844         0.00041  23339973.52144  23339973.45948
 -11169555.66848  -8703545.04446         0.00041  21604629.55246  21604629.13048
  -3193637.48348  -2488547.97446         0.00041  22403315.32346  22403315.15848
   -882561.86848   -687704.94541         0.00041         0.00041  24262053.77548
 97 03 27 03 53 30.0000000  0  7 06 17 21 22 23 26 30
 -19160800.40148 -14930484.74346         0.00041  20452623.29646  20452623.70948
 -16551059.91048 -12896922.55046         0.00041  20938639.45146  20938639.28348
   -764038.50748   -595353.27244         0.00041  24469224.71844  24469223.26148
  -2852955.57348  -2223082.52444         0.00041  23335001.06544  23335000.75248
 -11233640.75748  -8753481.45946         0.00041  21592435.15746  21592434.41948
  -3218002.12148  -2507533.54445         0.00041  22398678.13845  22398678.41548
   -776104.29848   -604751.00241         0.00041         0.00041  24282312.87748
 97 03 27 03 54 00.0000000  0  7 06 17 21 22 23 26 30
 -19129438.02848 -14906046.54946         0.00041  20458591.50846  20458591.94548
 -16575201.04248 -12915733.81846         0.00041  20934045.46846  20934045.14148
   -858815.76748   -669205.58844         0.00041  24451187.07744  24451186.88448
  -2878528.85348  -2243009.76844         0.00041  23330134.08944  23330134.12248
 -11297278.86048  -8803069.56646         0.00041  21580325.13846  21580324.26248
  -3241786.04548  -2526066.57045         0.00041  22394152.52545  22394152.64248
   -669620.60448   -521776.68044         0.00041  24302576.57844  24302575.98948
 97 03 27 03 54 30.0000000  0  7 06 17 21 22 23 26 30
 -19097638.83848 -14881267.98746         0.00041  20464642.36746  20464642.91548
 -16599185.04648 -12934422.63346         0.00041  20929481.33046  20929481.16148
   -953513.67848   -742996.15144         0.00041  24433167.82844  24433167.17448
  -2903668.65548  -2262599.24244         0.00041  23325349.99844  23325350.81748
 -11360585.18548  -8852399.14546         0.00041  21568278.46846  21568277.60948
  -3265098.94848  -2544232.46145         0.00041  22389715.97545  22389717.02948
   -563222.32748   -438869.04344         0.00041  24322824.74944  24322823.16048
 97 03 27 03 55 00.0000000  0  7 06 17 21 22 23 26 30
 -19065461.55548 -14856194.81146         0.00041  20470765.59246  20470766.04048
 -16623078.70948 -12953041.05746         0.00041  20924934.79746  20924934.46448
  -1048191.00848   -816770.66044         0.00041  24415150.86144  24415150.91848
  -2928432.84348  -2281896.04744         0.00041  23320640.23044  23320638.32448
 -11423625.41848  -8901521.38546         0.00041  21556282.09946  21556281.50448
  -3288011.65048  -2562086.51245         0.00041  22385356.36945  22385356.62148
   -456983.20248   -356085.31244         0.00041  24343038.12144  24343039.17248
 97 03 27 03 55 30.0000000  0  7 06 17 21 22 23 26 30
 -19032753.12548 -14830707.74946         0.00041  20476990.13946  20476990.30548
 -16646720.80148 -12971463.45346         0.00041  20920435.76146  20920435.52548
  -1142669.85848   -890390.50644         0.00041  24397172.26144  24397172.64248
  -2952638.67148  -2300757.85541         0.00041         0.00041  23316031.69348
 -11486239.25448  -8950311.36146         0.00041  21544366.73246  21544366.19048
  -3310344.28248  -2579488.55445         0.00041  22381106.55345  22381106.86748
   -350743.35148   -273301.04444         0.00041  24363257.29544  24363255.94548
 97 03 27 03 56 00.0000000  0  7 06 17 21 22 23 26 30
 -18999554.91248 -14804839.03746         0.00041  20483307.78546  20483308.12648
 -16670158.13648 -12989726.30646         0.00041  20915975.55346  20915975.41048
  -1236988.44448   -963885.41944         0.00041  24379224.56544  24379223.94748
  -2976312.55748  -2319206.92445         0.00041  23311527.36745  23311526.60048
 -11548471.07948  -8998803.67746         0.00041  21532524.43046  21532523.82348
  -3332126.55648  -2596461.75145         0.00041  22376959.96645  22376961.21648
   -244544.06648   -190548.34741         0.00041         0.00041  24383465.58148
 97 03 27 03 56 30.0000000  0  7 06 17 21 22 23 26 30
 -18965856.24948 -14778580.33746         0.00041  20489720.14546  20489720.45048
 -16693404.74348 -13007840.52946         0.00041  20911551.84746  20911551.83848
  -1331156.10248  -1037262.79244         0.00041  24361303.74144  24361304.10848
  -2999440.30548  -2337226.62744         0.00041  23307124.51444  23307125.61548
 -11610318.36648  -9046996.34746         0.00041  21520755.24746  21520754.67748
  -3353347.32548  -2612997.41145         0.00041  22372923.23145  22372923.37548
   -138392.71448   -107833.03144         0.00041  24403664.99944  24403664.52848
 97 03 27 03 57 00.0000000  0  7 06 17 21 22 23 26 30
 -18931591.93248 -14751880.87646         0.00041  20496240.34846  20496240.47548
 -16716407.00648 -13025764.36046         0.00041  20907174.55546  20907174.62348
  -1425100.28548  -1110466.00344         0.00041  24343429.61044  24343427.49648
  -3021944.53648  -2354762.24944         0.00041  23302843.95944  23302843.44048
 -11671703.88748  -9094829.19546         0.00041  21509074.17346  21509073.49448
  -3373934.63948  -2629039.47345         0.00041  22369004.94845  22369005.94348
    -32206.90848    -25090.81644         0.00041  24423871.74944  24423871.04748
 97 03 27 03 57 30.0000000  0  7 06 17 21 22 23 26 30
 -18896836.71748 -14724798.92046         0.00041  20502854.56646  20502854.67948
 -16739238.66948 -13043555.26046         0.00041  20902829.86846  20902830.03048
  -1518894.32048  -1183552.23544         0.00041  24325578.80444  24325578.64148
  -3043894.57648  -2371866.21844         0.00041  23298666.47144  23298666.15548
 -11732680.30448  -9142343.26346         0.00041  21497470.97346  21497470.08848
  -3393948.22648  -2644634.45445         0.00041  22365195.91645  22365197.33848
     73968.77448     57643.49444         0.00041  24444076.10044  24444075.98948
 97 03 27 03 58 00.0000000  0  7 06 17 21 22 23 26 30
 -18861616.53948 -14697354.64946         0.00041  20509556.35946  20509556.61448
 -16761930.93148 -13061237.53046         0.00041  20898511.83246  20898511.84648
  -1612581.71148  -1256555.36344         0.00041  24307750.57944  24307750.50048
  -3065342.76748  -2388579.10944         0.00041  23294584.25144  23294585.38148
 -11793266.88848  -9189553.56746         0.00041  21485941.25246  21485940.84448
  -3413416.14648  -2659804.26045         0.00041  22361492.00245  22361491.75348
    180114.52348    140354.41444         0.00041  24464276.54344  24464275.32248
 97 03 27 03 58 30.0000000  0  7 06 17 21 22 23 26 30
 -18825931.33748 -14669548.01746         0.00041  20516346.98946  20516347.24448
 -16784457.14048 -13078790.40646         0.00041  20894224.96046  20894225.29148
  -1706143.14548  -1329460.36844         0.00041  24289947.47244  24289945.91848
  -3086295.07048  -2404905.58544         0.00041  23290597.00444  23290598.18248
 -11853445.54648  -9236446.00446         0.00041  21474489.77346  21474489.25948
  -3432337.25248  -2674547.97945         0.00041  22357891.43945  22357891.68348
    286242.57148    223051.59244         0.00041  24484469.96444  24484470.37048
 97 03 27 03 59 00.0000000  0  7 06 17 21 22 23 26 30
 -18789833.76948 -14641420.06746         0.00041  20523216.32646  20523216.55548
 -16806837.50948 -13096229.63646         0.00041  20889966.44646  20889966.00448
  -1799591.81448  -1402277.47041         0.00041         0.00041  24272162.88148
  -3106786.68448  -2420873.07745         0.00041  23286698.67545  23286698.89948
 -11913252.51848  -9283048.81946         0.00041  21463108.87346  21463108.45148
  -3450755.71048  -2688900.03045         0.00041  22354386.10045  22354387.14748
    392301.37348    305694.80541         0.00041         0.00041  24504652.19048
 97 03 27 03 59 30.0000000  0  7 06 17 21 22 23 26 30
 -18753253.22848 -14612915.74446         0.00041  20530177.18746  20530177.58248
 -16828993.43548 -13113493.97746         0.00041  20885750.32546  20885749.90748
  -1892866.43448  -1474958.98944         0.00041  24254416.57344  24254413.36548
  -3126757.52948  -2436434.76445         0.00041  23282898.28945  23282898.68748
 -11972629.60248  -9329316.65646         0.00041  21451809.66846  21451809.42848
  -3468604.73148  -2702808.34345         0.00041  22350990.37145  22350990.57848
    498326.36648    388311.70641         0.00041         0.00041  24524829.32648
 97 03 27 04 00 00.0000000  0  7 06 17 21 22 23 26 30
 -18716213.40248 -14584053.54446         0.00041  20537225.86146  20537225.96748
 -16850937.33948 -13130593.11246         0.00041  20881574.35746  20881574.36648
  -1985971.41548  -1547508.27944         0.00041  24236699.31444  24236696.57748
  -3146233.00248  -2451610.45745         0.00041  23279193.52345  23279191.82748
 -12031609.32048  -9375274.85446         0.00041  21440586.53646  21440586.06748
  -3485905.39648  -2716289.36445         0.00041  22347697.31145  22347698.40248
    604265.60648    470861.75041         0.00041         0.00041  24544988.63748
 97 03 27 04 00 30.0000000  0  7 06 17 21 22 23 26 30
 -18678648.40848 -14554782.12446         0.00041  20544374.01546  20544374.28648
 -16872601.52148 -13147474.28446         0.00041  20877451.89546  20877451.90748
  -2078823.58048  -1619860.57844         0.00041  24219026.24844  24219027.02448
  -3165138.74348  -2466342.21745         0.00041  23275594.96245  23275594.79948
 -12090141.46048  -9420884.29246         0.00041  21429448.13046  21429447.53448
  -3502601.04648  -2729298.95845         0.00041  22344521.03145  22344521.51848
    710158.11548         0.00041         0.00041         0.00041  24565139.38748
 97 03 27 04 01 00.0000000  0  7 06 17 21 22 23 26 30
 -18640650.29248 -14525173.19846         0.00041  20551604.78746  20551605.07148
 -16894097.86548 -13164224.66946         0.00041  20873361.34446  20873361.14048
  -2171523.93248  -1692094.55841         0.00041         0.00041  24201386.94048
  -3183552.86448  -2480690.86545         0.00041  23272091.96345  23272090.18048
 -12148336.49548  -9466231.05146         0.00041  21418374.12646  21418373.19548
  -3518789.53348  -2741913.34645         0.00041  22341440.43345  22341440.84548
    815899.04147         0.00041         0.00041         0.00041  24585260.08047
 97 03 27 04 01 30.0000000  0  7 06 17 21 22 23 26 30
 -18602153.04048 -14495175.34046         0.00041  20558930.65646  20558931.13448
 -16915379.90048 -13180808.05946         0.00041  20869311.75246  20869311.41848
  -2264030.31148  -1764177.48241         0.00041         0.00041  24183782.43648
  -3201429.48548  -2494620.71144         0.00041  23268689.18144  23268688.96348
 -12206138.18748  -9511271.30746         0.00041  21407374.37446  21407373.88448
  -3534420.91248  -2754093.62945         0.00041  22338465.36645  22338465.71548
    921551.97647         0.00041         0.00041         0.00041  24605365.08047
 97 03 27 04 02 00.0000000  0  7 06 17 21 22 23 26 30
 -18563150.30248 -14464783.59946         0.00041  20566352.65946  20566352.81448
 -16936441.00948 -13197219.29946         0.00041  20865304.00046  20865303.51948
  -2356315.21648  -1836087.81344         0.00041  24166221.33644  24166221.31748
  -3218747.10048  -2508114.94144         0.00041  23265394.26044  23265393.55248
 -12263541.54148  -9556001.17546         0.00041  21396451.07246  21396450.45148
  -3549479.82048  -2765827.82945         0.00041  22335600.36045  22335600.57448
   1027139.73047         0.00041         0.00041         0.00041  24625458.27347
 97 03 27 04 02 30.0000000  0  7 06 17 21 22 23 26 30
 -18523669.99248 -14434019.72746         0.00041  20573865.50446  20573865.89448
 -16957331.04648 -13213497.23846         0.00041  20861328.72946  20861328.36048
  -2448428.99448  -1907864.80544         0.00041  24148695.38044  24148692.95448
  -3235543.17948  -2521202.82044         0.00041  23262196.37444  23262196.83048
 -12320595.23048  -9600458.57446         0.00041  21385594.22546  21385593.62448
  -3564008.45148  -2777148.83745         0.00041  22332835.75945  22332835.65748
   1132638.18648    882580.71241         0.00041         0.00041  24645534.28648
 97 03 27 04 03 00.0000000  0  7 06 17 21 22 23 26 30
 -18483757.72648 -14402919.28546         0.00041  20581460.39046  20581460.83248
 -16978095.71848 -13229677.48746         0.00041  20857376.76646  20857376.99048
  -2540423.15448  -1979548.48244         0.00041  24131189.13444  24131187.41548
  -3251862.44748  -2533919.16044         0.00041  23259091.65844  23259091.80648
 -12377328.87948  -9644666.59346         0.00041  21374798.18546  21374797.49948
  -3578038.92848  -2788081.65745         0.00041  22330165.07145  22330165.65648
   1238015.49048    964692.90741         0.00041         0.00041  24665586.37548
 97 03 27 04 03 30.0000000  0  7 06 17 21 22 23 26 30
 -18443414.92648 -14371483.35646         0.00041  20589137.37546  20589137.80848
 -16998722.03248 -13245749.94146         0.00041  20853451.71546  20853451.76248
  -2632293.67348  -2051135.89144         0.00041  24113706.44544  24113705.04748
  -3267721.68148  -2546277.00244         0.00041  23256074.08944  23256073.61748
 -12433714.42448  -9688603.36346         0.00041  21364068.15446  21364067.43748
  -3591555.05248  -2798613.70545         0.00041  22327594.25145  22327594.23048
   1343278.53348   1046716.01241         0.00041         0.00041  24685617.26148
 97 03 27 04 04 00.0000000  0  7 06 17 21 22 23 26 30
 -18402598.99548 -14339678.75346         0.00041  20596904.47146  20596904.84948
 -17019162.75548 -13261677.77946         0.00041  20849562.18746  20849561.78848
  -2723991.08648  -2122588.42344         0.00041  24096257.56044  24096255.90948
  -3283070.57748  -2558237.17644         0.00041  23253152.38944  23253152.33648
 -12489702.55348  -9732230.45146         0.00041  21353414.12046  21353413.35848
  -3604496.93348  -2808698.28745         0.00041  22325130.50845  22325130.84748
   1448470.91648   1128684.04544         0.00041  24705636.17044  24705634.35148
 97 03 27 04 04 30.0000000  0  7 06 17 21 22 23 26 30
 -18361289.28148 -14307489.40146         0.00041  20604765.72046  20604765.92148
 -17039389.06648 -13277438.53546         0.00041  20845713.10846  20845713.09348
  -2815517.02248  -2193907.35144         0.00041  24078839.46644  24078838.96048
  -3297901.91848  -2569794.06344         0.00041  23250331.70044  23250329.81748
 -12545261.75048  -9775523.31946         0.00041  21342841.34146  21342840.74348
  -3616846.75048  -2818321.50445         0.00041  22322779.96145  22322780.95448
   1553599.47448   1210602.36944         0.00041  24725641.55944  24725640.27148
 97 03 27 04 05 00.0000000  0  7 06 17 21 22 23 26 30
 -18319495.58248 -14274922.89346         0.00041  20612719.29446  20612719.24448
 -17059392.21148 -13293025.38146         0.00041  20841906.94546  20841906.69348
  -2906873.31748  -2265094.01044         0.00041  24061457.20944  24061454.07048
  -3312207.87648  -2580941.57844         0.00041  23247607.86944  23247607.44948
 -12600376.05348  -9818469.51246         0.00041  21332353.17746  21332352.72848
  -3628597.42848  -2827477.86645         0.00041  22320545.35545  22320544.99348
   1658650.06748   1292459.96744         0.00041  24745632.92744  24745632.58448
 97 03 27 04 05 30.0000000  0  7 06 17 21 22 23 26 30
 -18277271.00148 -14242020.63746         0.00041  20620753.62746  20620753.99648
 -17079234.53448 -13308486.90946         0.00041  20838130.75946  20838130.71748
  -2998123.61348  -2336198.14244         0.00041  24044092.72544  24044089.58448
  -3326044.04348  -2591723.03644         0.00041  23244975.19244  23244974.76148
 -12655127.61248  -9861133.04746         0.00041  21321934.64446  21321933.85448
  -3639820.54848  -2836223.13245         0.00041  22318409.02145  22318409.37248
   1763557.01848   1374205.59541         0.00041         0.00041  24765594.83048
 97 03 27 04 06 00.0000000  0  7 06 17 21 22 23 26 30
 -18234559.77848 -14208739.18446         0.00041  20628881.39046  20628881.79948
 -17098875.03048 -13323791.18846         0.00041  20834393.15346  20834393.30348
  -3089225.46048  -2407186.56544         0.00041  24026755.63944  24026753.53848
  -3339338.27348  -2602082.21145         0.00041  23242445.75345  23242445.92748
 -12709491.20448  -9903494.26546         0.00041  21311589.16046  21311588.72248
  -3650475.18848  -2844525.44545         0.00041  22316381.35845  22316381.05848
   1868356.82248   1455867.79144         0.00041  24785538.07644  24785537.01948
 97 03 27 04 06 30.0000000  0  7 06 17 21 22 23 26 30
 -18191319.86248 -14175045.75546         0.00041  20637109.93846  20637110.03048
 -17118272.23348 -13338905.89146         0.00041  20830701.91146  20830702.22548
  -3180140.34548  -2478029.32044         0.00041  24009454.80944  24009454.43048
  -3352038.65148  -2611978.60944         0.00041  23240029.45444  23240029.10848
 -12763426.08548  -9945521.42146         0.00041  21301325.92746  21301325.53748
  -3660541.93548  -2852369.65945         0.00041  22314466.02545  22314466.13148
   1973085.39348   1537474.47341         0.00041         0.00041  24805466.41448
 97 03 27 04 07 00.0000000  0  7 06 17 21 22 23 26 30
 -18147597.37948 -14140976.31046         0.00041  20645430.05746  20645430.11948
 -17137480.90949 -13353873.69546         0.00041  20827046.58446  20827046.85349
  -3271322.15747         0.00041         0.00041         0.00041  23992181.57347
  -3364171.77948  -2621432.99744         0.00041  23237720.09944  23237720.06448
 -12816971.31648  -9987244.96246         0.00041  21291136.80646  21291136.32948
  -3670076.90348  -2859799.48545         0.00041  22312651.21045  22312651.59248
   2077714.89848   1619003.97844         0.00041  24825378.08744  24825376.59448
 97 03 27 04 07 30.0000000  0  7 06 17 21 22 23 26 30
 -18103413.06948 -14106546.99846         0.00041  20653837.79046  20653837.89648
 -17156526.83648 -13368714.68146         0.00041  20823422.63946  20823422.58148
  -3362664.83347         0.00041         0.00041         0.00041  23974939.28547
  -3375759.13248  -2630462.09044         0.00041  23235515.41844  23235514.80948
 -12870141.74648 -10028676.44746         0.00041  21281018.77846  21281018.23048
  -3679102.03848  -2866832.03545         0.00041  22310933.80845  22310934.21548
   2182234.31748   1700447.62141         0.00041         0.00041  24845265.36748
 97 03 27 04 08 00.0000000  0  6 06 17 22 23 26 30
 -18058724.66848 -14071724.89546         0.00041  20662341.83346  20662341.96748
 -17175350.29048 -13383382.29846         0.00041  20819840.55446  20819840.36348
  -3386760.54348  -2639034.63345         0.00041  23233421.61645  23233420.99348
 -12922860.83648 -10069756.23646         0.00041  21270986.65146  21270986.06248
  -3687555.00248  -2873418.75045         0.00041  22309324.56445  22309325.54048
   2286700.88548   1781850.16144         0.00041  24865146.66344  24865144.93748
 97 03 27 04 08 30.0000000  0  6 06 17 22 23 26 30
 -18013644.16048 -14036597.23646         0.00041  20670920.08746  20670920.42848
 -17194047.73548 -13397951.71446         0.00041  20816282.62946  20816282.39448
  -3397308.80148  -2647254.07044         0.00041  23231413.66044  23231414.15948
 -12975223.67248 -10110558.42946         0.00041  21261022.16846  21261021.67348
  -3695526.50048  -2879630.29945         0.00041  22307807.73345  22307808.32148
   2391016.03648   1863134.70241         0.00041         0.00041  24884995.44748
 97 03 27 04 09 00.0000000  0  6 06 17 22 23 26 30
 -17968142.76248 -14001141.61546         0.00041  20679578.93346  20679579.38248
 -17212592.12948 -13412401.87646         0.00041  20812753.70746  20812753.52248
  -3407398.85548  -2655116.45344         0.00041  23229493.60044  23229493.61048
 -13027200.02748 -10151059.46446         0.00041  21251131.43546  21251131.02748
  -3702952.42648  -2885416.73145         0.00041  22306394.99545  22306395.41048
   2495209.00848   1944323.99041         0.00041         0.00041  24904823.42748
 97 03 27 04 09 30.0000000  0  5 06 17 22 23 26
 -17922131.27648 -13965288.52346         0.00041  20688334.51946  20688334.92848
 -17230881.63548 -13426653.41846         0.00041  20809273.50646  20809273.11548
  -3416965.58748  -2662571.06545         0.00041  23227673.00345  23227673.46948
 -13078718.75648 -10191203.90846         0.00041  21241327.68846  21241327.20848
  -3709721.53548  -2890691.35745         0.00041  22305106.54245  22305106.99448
 97 03 27 04 10 00.0000000  0  5 06 17 22 23 26
 -17875621.71948 -13929047.32246         0.00041  20697185.04146  20697185.32648
 -17248921.87548 -13440710.73846         0.00041  20805840.40946  20805840.29948
  -3426028.04148  -2669632.72945         0.00041  23225949.50445  23225948.99048
 -13129802.11048 -10231009.10346         0.00041  21231606.78746  21231606.25148
  -3715835.66848  -2895455.60345         0.00041  22303943.65545  22303944.09648
 97 03 27 04 10 30.0000000  0  5 06 17 22 23 26
 -17828622.72648 -13892424.73146         0.00041  20706129.07946  20706128.92348
 -17266733.39548 -13454589.83446         0.00041  20802450.78946  20802450.93248
  -3434592.87848  -2676306.64645         0.00041  23224318.60245  23224318.85948
 -13180472.31348 -10270492.35846         0.00041  21221964.45446  21221963.99748
  -3721313.75248  -2899724.22645         0.00041  22302901.40545  22302901.21548
